[[[{"header":{"parameterUnit":"kt","parameterCategory":2,"dx":1,"dy":1,"la1":29.46422004699707,"la2":30.564109802246094,"lo1":-89.4342041015625,"lo2":-87.934326171875,"nx":46,"ny":34,"refTime":"2022-09-27T00:00:00:Z","depth":"0","parameterNumber":2,"parameterNumberName":"U-component_of_CURRENTS"},"data":[-0.1127,-0.1009,-0.094,-0.087,-0.0747,-0.0529,-0.0395,0,-0.0475,-0.0753,-0.0416,-0.0534,-0.0924,-0.1153,-0.1468,-0.1933,-0.2317,-0.2621,-0.291,-0.3113,-0.3123,-0.2835,-0.2285,-0.1714,-0.1297,-0.1313,-0.1826,-0.236,-0.2536,-0.2477,-0.2509,-0.2552,-0.2472,-0.2317,-0.2125,-0.1938,-0.1746,-0.1468,-0.1041,-0.0523,0.0016,0.0481,0.0694,0.0571,0.0267,0.0101,-0.0897,-0.0918,-0.0924,-0.0924,-0.0902,-0.095,-0.1196,-0.1377,0,-0.024,-0.0459,-0.1078,-0.1607,-0.1463,-0.1591,-0.1965,-0.2301,-0.2541,-0.2798,-0.3049,-0.3251,-0.3251,-0.2904,-0.2285,-0.1639,-0.1249,-0.1303,-0.1714,-0.2125,-0.2339,-0.2483,-0.2659,-0.2835,-0.2888,-0.2819,-0.2798,-0.2718,-0.252,-0.2322,-0.2109,-0.1847,-0.1602,-0.1463,-0.1388,-0.1201,-0.0705,-0.0603,-0.0737,-0.0833,-0.0886,-0.087,-0.0801,-0.0758,-0.0737,-0.0278,0.0037,-0.0101,0,-0.0486,-0.11,-0.1447,-0.1901,-0.2258,-0.2472,-0.267,-0.2878,-0.3081,-0.3209,-0.3123,-0.2728,-0.2082,-0.1463,-0.1175,-0.1303,-0.1671,-0.2066,-0.244,-0.2814,-0.3214,-0.3508,-0.3668,-0.3801,-0.3908,-0.3983,-0.4068,-0.409,-0.3946,-0.3689,-0.3332,-0.2851,-0.2141,-0.118,-0.0272,-0.0475,-0.0667,-0.0806,-0.0844,-0.0806,-0.0796,-0.0796,-0.0715,-0.0683,-0.0918,-0.0625,-0.032,-0.0769,-0.1393,-0.1986,-0.2306,-0.2467,-0.2584,-0.2707,-0.2846,-0.2979,-0.3022,-0.2856,-0.2424,-0.1826,-0.1335,-0.1185,-0.1447,-0.2088,-0.2659,-0.3097,-0.3625,-0.4084,-0.4335,-0.4442,-0.4506,-0.4528,-0.4501,-0.4271,-0.3914,-0.3476,-0.2926,-0.2221,-0.1442,-0.0753,0.0214,-0.0075,-0.04,-0.0667,-0.0801,-0.0812,-0.0806,-0.0822,-0.0812,-0.078,-0.078,-0.0763,-0.0844,-0.1297,-0.2141,-0.2584,-0.2525,-0.252,-0.2525,-0.2547,-0.26,-0.268,-0.2734,-0.2702,-0.2504,-0.2088,-0.1575,-0.1233,-0.1201,-0.1511,-0.205,-0.2445,-0.2579,-0.2605,-0.2627,-0.276,-0.2995,-0.3209,-0.3251,-0.3054,-0.2696,-0.2258,-0.1783,-0.1308,-0.087,-0.0529,0.0283,0.0198,-0.0155,-0.0518,-0.078,-0.0881,-0.0838,-0.0796,-0.0822,-0.0854,-0.0892,-0.0913,-0.0822,-0.0737,0,-0.1223,-0.2467,-0.2472,-0.2419,-0.2349,-0.2333,-0.2349,-0.2371,-0.2371,-0.2317,-0.2114,-0.1714,-0.1297,-0.1073,-0.1078,-0.1265,-0.1516,-0.1628,-0.1618,-0.1644,-0.1719,-0.1789,-0.1746,-0.1639,-0.1495,-0.1265,-0.0998,-0.0731,-0.0448,-0.016,0.0117,0.0929,0.0651,0.0139,-0.0288,-0.0892,-0.1335,-0.1159,-0.0881,-0.0849,-0.0897,-0.0972,-0.1078,-0.1223,-0.1329,-0.1361,0,-0.1159,-0.2306,-0.2216,-0.2093,-0.204,-0.2018,-0.2002,-0.1991,-0.1981,-0.1911,-0.1719,-0.1399,-0.1105,-0.0956,-0.0966,-0.1159,-0.1431,-0.1532,-0.15,-0.15,-0.1532,-0.1452,-0.1175,-0.0865,-0.0635,-0.0432,-0.0219,0.0005,0.0219,0.0427,0,-0.0133,-0.0112,-0.0069,-0.0694,-0.1564,-0.149,-0.0934,-0.0828,-0.0865,-0.0929,-0.1004,-0.1036,-0.1062,-0.1223,-0.1361,0,-0.1046,-0.1965,-0.1794,-0.1735,-0.1709,-0.1676,-0.165,-0.1628,-0.1607,-0.1564,-0.1436,-0.1196,-0.0977,-0.0876,-0.0929,-0.1228,-0.1522,-0.1612,-0.1602,-0.1506,-0.1351,-0.1062,-0.0721,-0.0513,-0.0368,-0.0208,-0.0027,0.0166,0.0352,0,-0.0715,0,0.0107,0.0214,0,-0.0352,-0.0673,-0.0678,-0.0747,-0.0796,-0.0838,-0.086,-0.0934,-0.1073,-0.1196,-0.1249,0,-0.0641,-0.1351,-0.1436,-0.1436,-0.141,-0.1377,-0.1345,-0.1319,-0.1319,-0.1303,-0.1185,-0.0988,-0.0822,-0.0737,-0.0812,-0.1121,-0.1383,-0.141,-0.1265,-0.1073,-0.0828,-0.0539,-0.0379,-0.0326,-0.0251,-0.0123,0.0048,0.0208,0,0.0379,0.0475,0.0464,0,-0.0133,-0.0352,-0.047,-0.0555,-0.0641,-0.0667,-0.0625,-0.0534,-0.0715,-0.0865,-0.0715,-0.0657,0,-0.0726,-0.1351,-0.1228,-0.1196,-0.118,-0.1169,-0.1148,-0.1121,-0.11,-0.1095,-0.1052,-0.0924,-0.0763,-0.0625,-0.0518,-0.0491,-0.0545,-0.0577,-0.0523,-0.0438,-0.0347,-0.0251,-0.023,-0.0246,-0.0224,-0.0123,0.0016,0.0128,0,0,0,0,0,-0.0283,-0.0502,-0.0454,-0.0529,-0.0625,-0.0657,-0.0598,-0.055,0,-0.0107,-0.0192,-0.0166,0,0,-0.0342,-0.0785,-0.0913,-0.0961,-0.0993,-0.1004,-0.0998,-0.0972,-0.0945,-0.0918,-0.0833,-0.0689,-0.0534,-0.0384,-0.023,-0.0091,0.0027,0.0085,0.0048,-0.0032,-0.0091,-0.0128,-0.016,-0.0149,-0.0075,0.0027,0.0101,0,0,0,0,0,0,-0.0187,-0.0416,-0.0507,-0.0646,-0.0758,-0.0876,-0.1036,-0.0518,0.0048,0.0123,0.0235,0,0,-0.0262,-0.0619,-0.0742,-0.0801,-0.0844,-0.0876,-0.0902,-0.0897,-0.0865,-0.0828,-0.0769,-0.0657,-0.0502,-0.0342,-0.0182,-0.0021,0.0085,0.0101,0.0048,-0.0005,-0.0016,-0.0016,-0.0016,-0.0005,0.0032,0.0069,0.008,0,0,0,0,0,0,-0.0219,-0.047,-0.0529,-0.063,-0.0715,-0.0726,-0.0699,-0.0598,-0.0497,-0.0464,0,0,0,-0.023,-0.0534,-0.0635,-0.0689,-0.0731,-0.0769,-0.0812,-0.0838,-0.0817,-0.0774,-0.0705,-0.0609,-0.0491,-0.0358,-0.0214,-0.0075,0.0011,-0.0005,-0.0069,-0.0091,-0.0032,0.0053,0.0133,0.0182,0.0198,0.0155,0.0075,0,0,0,0,0,0,-0.0288,-0.0593,-0.0577,-0.0603,-0.0667,-0.0673,-0.071,-0.0796,-0.1052,-0.1554,-0.1442,-0.103,0,-0.0224,-0.0513,-0.0587,-0.0625,-0.0662,-0.0699,-0.0747,-0.0785,-0.078,-0.0737,-0.0657,-0.0561,-0.047,-0.0379,-0.0294,-0.0224,-0.0214,-0.0262,-0.0294,-0.0246,-0.0128,0.0021,0.0166,0.0272,0.0294,0.0208,0.0064,0,0,0,0,0,0,0,-0.0448,-0.0699,-0.0491,-0.047,-0.0454,-0.0459,-0.0502,-0.0593,-0.0705,-0.0678,-0.0603,0,-0.024,-0.0534,-0.0593,-0.0625,-0.0673,-0.0731,-0.0796,-0.0844,-0.0844,-0.0801,-0.0731,-0.0641,-0.0561,-0.0502,-0.0475,-0.0475,-0.0507,-0.0529,-0.0497,-0.0406,-0.0294,-0.0166,-0.0032,0.008,0.0117,0.0059,-0.0069,0,0,0,0.0187,0.0374,0,0,0,0.0048,0.0059,-0.0048,-0.0139,-0.0171,-0.0208,-0.023,-0.0203,-0.0155,-0.0139,0,-0.0278,-0.0582,-0.0635,-0.0683,-0.0763,-0.086,-0.0956,-0.102,-0.103,-0.1009,-0.094,-0.0838,-0.0742,-0.0678,-0.0673,-0.0705,-0.0726,-0.0715,-0.0667,-0.0603,-0.0545,-0.0486,-0.0422,-0.0363,-0.0331,-0.0342,-0.039,0,0,0.0694,0.1399,0.1532,0.2483,0.3316,0.3305,0.2504,0.1196,0.0454,0.016,0.0059,0.0005,-0.0011,0.0053,0.0283,0.0454,0,-0.0256,-0.055,-0.0635,-0.0742,-0.087,-0.0988,-0.1089,-0.1159,-0.1196,-0.1201,-0.1164,-0.1084,-0.1004,-0.095,-0.0945,-0.0972,-0.0982,-0.095,-0.0892,-0.0828,-0.078,-0.0763,-0.079,-0.0854,-0.0908,-0.0924,-0.0897,0,0,0.0822,0.165,0.141,0.1169,0,0,0.0128,0.0331,0.0352,0.0251,0.0155,0.0064,-0.0011,-0.008,-0.0112,0,-0.0069,-0.0176,-0.0326,-0.0555,-0.0763,-0.0929,-0.1062,-0.1175,-0.1265,-0.1335,-0.1377,-0.1383,-0.1367,-0.1356,-0.1351,-0.1356,-0.1356,-0.1324,-0.1249,-0.1132,-0.0998,-0.0908,-0.0897,-0.0998,-0.118,-0.1377,-0.15,-0.1506,0.1052,0.2573,0.3049,0,0,0,0,0,0.0075,0.023,0.031,0.0283,0.0203,0.0091,-0.0075,-0.0374,-0.0865,-0.0892,-0.0411,-0.0208,-0.0299,-0.0529,-0.0769,-0.0961,-0.1127,-0.1271,-0.1393,-0.1495,-0.157,-0.1618,-0.1644,-0.165,-0.165,-0.1644,-0.1612,-0.1554,-0.1442,-0.1292,-0.1159,-0.1089,-0.1111,-0.1223,-0.1404,-0.1644,-0.1879,-0.2018,0.96,0.6551,0.3609,0.1927,0.1324,0,0,0,0.0037,0.0214,0.0384,0.0384,0.031,0.0224,0.0053,-0.0235,-0.0464,-0.0448,-0.0246,-0.0133,-0.024,-0.0507,-0.0785,-0.1014,-0.1212,-0.1404,-0.1554,-0.1623,-0.1709,-0.1821,-0.1885,-0.1826,-0.1698,-0.1612,-0.1564,-0.1506,-0.141,-0.134,-0.1372,-0.15,-0.1671,-0.1837,-0.1901,-0.1975,-0.2168,-0.2349,0,0.0977,0.2264,0.2435,0.2226,0.2162,0,0,0.023,0.0582,0.0678,0.0577,0.0448,0.0475,0.0342,-0.0075,-0.0374,-0.0443,-0.0374,-0.0294,-0.0358,-0.0598,-0.0854,-0.1068,-0.1287,-0.1532,-0.1709,-0.1703,-0.1719,-0.1863,-0.2002,-0.1997,-0.1831,-0.166,-0.1559,-0.1548,-0.15,-0.1532,-0.1741,-0.2056,-0.2429,-0.267,-0.2632,-0.2525,-0.2536,-0.2643,1.0118,0.6957,0.4704,0.3705,0.3278,0.3465,0.362,0.3449,0.3033,0.2194,0.1436,0.0892,0.055,0.0625,0.0486,-0.0101,-0.047,-0.0646,-0.0769,-0.071,-0.0694,-0.0892,-0.102,-0.1105,-0.1239,-0.1468,-0.1714,-0.189,-0.1837,-0.1698,-0.1799,-0.1954,-0.2002,-0.1917,-0.1842,-0.1911,-0.1853,-0.1778,-0.1853,-0.205,-0.2675,-0.3054,-0.2947,-0.2894,-0.2824,-0.2808,0.166,0.3577,0.3812,0.3673,0.3454,0.3369,0.3241,0.2904,0.2894,0.276,0.1949,0.1057,0.0475,0.0294,0,0,-0.0475,-0.0934,-0.1046,-0.1127,-0.1281,-0.1388,-0.1196,-0.102,-0.0881,-0.0806,-0.0849,-0.0897,0,0,0,-0.0806,-0.1895,-0.2301,-0.228,-0.1901,-0.1543,-0.1431,-0.1356,-0.1201,-0.1105,0,-0.1698,-0.3289,-0.3006,-0.2771,0,0.1265,0.2787,0.3075,0.3086,0.3065,0.3006,0.2744,0.2536,0,0,0,0.0064,-0.0005,-0.0053,0.0032,0,-0.0272,-0.0539,-0.0534,0,0,0,0,0,0,0,-0.0502,-0.0849,-0.0753,-0.103,-0.126,-0.1335,-0.1404,0,0,-0.0481,-0.1078,-0.1175,-0.1244,-0.0876,-0.0961,-0.1516,0,0,0,0,0,0.1036,0.2264,0.2589,0.284,0.299,0.3043,0.3262,0.331,0.2958,0.2445,0.1623,0.0902,0.0614,0.0673,0.0844,0.0651,0.0192,-0.0214,-0.023,-0.0064,-0.0224,-0.0673,-0.1116,-0.063,0.0048,0.0064,-0.0107,-0.0278,-0.0416,-0.0689,-0.1009,-0.1105,-0.078,-0.0657,-0.0518,-0.0246,0,0,0,-0.0726,-0.063,0.0069,-0.0048,0,0,0,0,0.0598,0.1751,0.26,0.3027,0.3385,0.338,0.3006,0.2718,0.2333,0.1725,0.1185,0.0977,0.0982,0.0993,0.086,0.0646,0.0598,0.0561,0.0406,0.024,0.0043,-0.0683,-0.0657,0.0219,0.0133,-0.0256,-0.0085,0.0107,-0.0027,-0.0155,-0.0251,0.0032,0.039,0.0598,0.1249,0.166,0.149,0.0187,-0.1052,-0.0721,-0.0283,-0.0224,0,0,0,0,0,0,0,0,0,0.0555,0.1554,0.2344,0.2408,0.1837,0.1447,0.1308,0.1276,0.1233,0.1105,0.0886,0.086,0.0849,0.0731,0.0753,0.0742,-0.0085,-0.0865,0,0,0,0,0.0027,0.0294,0.04,0.0037,-0.0182,0,0,0,0,0,-0.0833,-0.1634,-0.1303,-0.0705,-0.0363,0,0,0,0,0,0,0,0,0,0,0,0,0.0363,0.1009,0.1388,0.1506,0.1506,0.1447,0.1303,0.103,0.086,0,0,0,0,0,0,0,0,0,0,0,0,0.0043,0.0155,0.0224,0,0,0,0,0,-0.0699,-0.1596,-0.1527,-0.0993,-0.0587,0,0,0,0,0,0,0,0,0,0,0,0,0,0,0,0,0,0,0,0,0,0,0,0,0,0,0,0,0,0,0,0,0,0,0,0,0,0,0,0,0,-0.0416,-0.1111,-0.1276,-0.0982,-0.0593,0,0,0,0,0,0,0,0,0,0,0,0,0,0,0,0,0,0,0,0,0,0,0,0,0,0,0,0,0,0,0,0,0,0,0,0,0,0,0,0,0,-0.0214,-0.0529,-0.0678,-0.0726,-0.0395,0,0,0,0,0,0,0,0,0,0,0,0,0,0,0,0,0,0,0,0,0,0,0,0,0,0,0,0,0,0,0,0,0,0,0,0,0,0,0,0,0,0,0.0758,-0.0059,-0.0678,-0.04,0,0,0,0,0,0,0,0,0,0,0,0,0,0,0,0,0,0,0,0,0,0,0,0,0,0,0,0,0,0,0,0,0,0,0,0,0,0,0,0,0,0,-0.0368,-0.0614,-0.0667,-0.0475,0,0,0,0,0,0,0,0,0,0,0,0,0,0,0,0,0,0,0,0,0,0,0,0,0,0,0,0,0,0,0,0,0,0,0,0,0,0,0,0,0,0,-0.0395,-0.0774,-0.1014,-0.0865,0,0,0,0,0,0,0,0,0,0,0,0,0,0,0,0,0,0,0,0,0,0,0,0,0,0,0,0,0,0,0,0,0,0,0,0,0,0,0,0,0,0,0.0331,-0.0758,-0.2216,-0.1586,0]}],[{"header":{"parameterUnit":"kt","parameterCategory":2,"dx":1,"dy":1,"la1":29.46422004699707,"la2":30.564109802246094,"lo1":-89.4342041015625,"lo2":-87.934326171875,"nx":46,"ny":34,"refTime":"2022-09-27T00:00:00:Z","depth":"0","parameterNumber":3,"parameterNumberName":"V-component_of_CURRENTS"},"data":[-0.103,-0.1345,-0.1602,-0.1837,-0.2056,-0.2216,-0.2499,0,-0.1404,-0.2691,-0.2969,-0.2595,-0.3155,-0.3534,-0.3833,-0.3924,-0.386,-0.3737,-0.354,-0.331,-0.2985,-0.2467,-0.1719,-0.0998,-0.0833,-0.1399,-0.2162,-0.197,-0.141,-0.0865,-0.0518,-0.024,0.0043,0.0208,0.032,0.0326,0.0235,0.0182,0.0299,0.0438,0.0475,0.0384,0.0262,0.0166,0.0235,0.0128,-0.1084,-0.1452,-0.1703,-0.1911,-0.2098,-0.2232,-0.2381,-0.1153,0,-0.2846,-0.3118,-0.2355,-0.3225,-0.3396,-0.3567,-0.3668,-0.3615,-0.3529,-0.3369,-0.3203,-0.3011,-0.2702,-0.2216,-0.1506,-0.0833,-0.0774,-0.142,-0.1901,-0.1783,-0.126,-0.0828,-0.0657,-0.0507,-0.0427,-0.0278,-0.0278,-0.0368,-0.0411,-0.0272,0.0,0.0304,0.0566,0.0721,0.0753,0.0678,0.0294,-0.0993,-0.1452,-0.173,-0.1917,-0.2072,-0.2168,-0.2264,-0.229,-0.1078,-0.2589,-0.2985,0,-0.2985,-0.3155,-0.3209,-0.3348,-0.3364,-0.3305,-0.3177,-0.3027,-0.2856,-0.2648,-0.2371,-0.1911,-0.1255,-0.0678,-0.0667,-0.1159,-0.1484,-0.1191,-0.0673,-0.0545,-0.0577,-0.0683,-0.0715,-0.0822,-0.095,-0.0838,-0.0812,-0.0491,-0.0246,0.0112,0.023,0.0331,0.0032,-0.0235,-0.0828,-0.1324,-0.1692,-0.1879,-0.2029,-0.2194,-0.2328,-0.2339,-0.2226,-0.2349,-0.2563,-0.1068,-0.2306,-0.2509,-0.2504,-0.2963,-0.3129,-0.3091,-0.299,-0.2862,-0.2702,-0.2509,-0.2317,-0.2056,-0.1612,-0.0998,-0.0491,-0.0432,-0.0705,-0.0812,-0.047,-0.0336,-0.0454,-0.0758,-0.0972,-0.1137,-0.1276,-0.1153,-0.1329,-0.095,-0.0849,-0.0497,-0.0518,-0.0427,-0.0683,-0.0812,-0.0625,-0.1089,-0.1527,-0.1778,-0.1943,-0.22,-0.2365,-0.2371,-0.228,-0.2237,-0.221,-0.2082,-0.1933,-0.1698,-0.2045,-0.2979,-0.3027,-0.2936,-0.2856,-0.2744,-0.2584,-0.2403,-0.2216,-0.2018,-0.1751,-0.1303,-0.0657,-0.0128,-0.0016,-0.0262,-0.0208,-0.0203,-0.0379,-0.0598,-0.0731,-0.0817,-0.0945,-0.1046,-0.1271,-0.1132,-0.1127,-0.0945,-0.0934,-0.0924,-0.1004,-0.1137,-0.0657,-0.0865,-0.1191,-0.157,-0.1901,-0.2221,-0.244,-0.2269,-0.2189,-0.2114,-0.2088,-0.204,-0.1965,-0.1575,0,-0.3193,-0.3043,-0.2851,-0.2787,-0.267,-0.2509,-0.2333,-0.213,-0.1938,-0.1735,-0.1442,-0.0908,-0.0198,0.0224,0.0149,0.0011,-0.0155,-0.0464,-0.0374,-0.0304,-0.031,-0.0459,-0.0646,-0.0876,-0.0977,-0.1025,-0.1014,-0.0977,-0.1004,-0.1062,-0.1175,-0.0812,-0.0379,-0.0646,-0.1255,-0.1927,-0.2253,-0.2632,-0.2152,-0.2056,-0.1997,-0.1975,-0.1991,-0.2002,-0.1879,-0.103,0,-0.3059,-0.2824,-0.2792,-0.2638,-0.2467,-0.229,-0.2088,-0.1874,-0.1676,-0.1447,-0.1052,-0.0416,0.0144,0.0272,0.0133,-0.0075,-0.0571,-0.0427,-0.0246,-0.0256,-0.0422,-0.0651,-0.0908,-0.0945,-0.102,-0.1014,-0.0977,-0.0993,-0.1062,-0.1116,0,0.0107,-0.0315,-0.1004,-0.1885,-0.2269,-0.292,-0.2104,-0.1981,-0.1927,-0.1906,-0.189,-0.1879,-0.1874,-0.1911,-0.1009,0,-0.283,-0.2931,-0.2627,-0.2424,-0.2269,-0.2077,-0.1858,-0.1628,-0.1399,-0.1068,-0.0561,-0.0027,0.0214,0.0182,0.0032,-0.0358,-0.0432,-0.0262,-0.0315,-0.0502,-0.0918,-0.118,-0.1105,-0.1153,-0.1143,-0.1089,-0.1089,-0.1137,-0.1137,0,-0.0069,0,-0.1244,-0.1821,0,-0.2702,-0.2056,-0.1959,-0.1911,-0.1901,-0.1874,-0.1815,-0.1735,-0.1757,-0.1879,-0.0913,0,-0.2552,-0.2525,-0.236,-0.2232,-0.2077,-0.1885,-0.1628,-0.1356,-0.1041,-0.0598,-0.0144,0.0128,0.0192,0.0128,-0.0021,-0.0187,-0.0203,-0.0374,-0.0683,-0.1143,-0.1383,-0.1244,-0.1271,-0.1281,-0.126,-0.1276,-0.1319,-0.1292,0,-0.0331,0.0,-0.1548,0,-0.0678,-0.2029,-0.1949,-0.1949,-0.1922,-0.197,-0.1975,-0.1933,-0.1634,-0.1997,-0.1911,-0.189,0,-0.2061,-0.2547,-0.2333,-0.2189,-0.2056,-0.1901,-0.166,-0.1361,-0.1046,-0.0651,-0.0235,0.0048,0.016,0.0166,0.0133,0.0069,-0.0091,-0.0374,-0.078,-0.1175,-0.1313,-0.1212,-0.1249,-0.1303,-0.1367,-0.1442,-0.1495,-0.1458,0,0,0,0,0,-0.1361,-0.1682,-0.1901,-0.1975,-0.1959,-0.2072,-0.2162,-0.22,0,-0.2328,-0.2194,-0.1885,0,0,-0.2504,-0.2274,-0.2104,-0.1997,-0.1879,-0.1687,-0.1393,-0.1084,-0.0747,-0.0358,-0.0069,0.0064,0.0101,0.0112,0.0085,-0.0064,-0.0379,-0.0774,-0.1073,-0.1143,-0.1089,-0.1121,-0.1223,-0.1377,-0.1532,-0.1607,-0.1543,0,0,0,0,0,0,-0.1522,-0.1858,-0.2013,-0.1991,-0.2109,-0.2226,-0.2253,-0.1057,-0.244,-0.2552,-0.1815,0,0,-0.2258,-0.2157,-0.2007,-0.1922,-0.1837,-0.1682,-0.1426,-0.1132,-0.0838,-0.0502,-0.0219,-0.0064,-0.0011,0.0005,-0.0027,-0.016,-0.0432,-0.0769,-0.1014,-0.1068,-0.1014,-0.1009,-0.1132,-0.1345,-0.1559,-0.1639,-0.1559,0,0,0,0,0,0,-0.1308,-0.1741,-0.205,-0.2061,-0.212,-0.221,-0.2248,-0.2248,-0.2547,-0.2808,0,0,0,-0.213,-0.2093,-0.1943,-0.1874,-0.1805,-0.1682,-0.1458,-0.1175,-0.0902,-0.0619,-0.0363,-0.0203,-0.0139,-0.0123,-0.0155,-0.0278,-0.0513,-0.079,-0.0988,-0.1025,-0.0966,-0.095,-0.1078,-0.1303,-0.1522,-0.1602,-0.1516,0,0,0,0,0,0,-0.1212,-0.1639,-0.2114,-0.2253,-0.2194,-0.2253,-0.2285,-0.2322,-0.2451,-0.2461,-0.0774,-0.078,0,-0.205,-0.2061,-0.1938,-0.1874,-0.1815,-0.1714,-0.1511,-0.1249,-0.0977,-0.0731,-0.0518,-0.0374,-0.0294,-0.0267,-0.0299,-0.0416,-0.0619,-0.0833,-0.0956,-0.0972,-0.0934,-0.0961,-0.1095,-0.1271,-0.1426,-0.1484,-0.1393,0,0,0,0,0,0,0,-0.1596,-0.2339,-0.2573,-0.2344,-0.2274,-0.2242,-0.2232,-0.2232,-0.2109,-0.1725,-0.1698,0,-0.1965,-0.204,-0.1981,-0.1922,-0.1858,-0.1762,-0.1586,-0.1356,-0.1116,-0.0913,-0.0742,-0.0609,-0.0507,-0.0443,-0.0459,-0.0566,-0.0721,-0.0838,-0.0876,-0.0886,-0.0934,-0.1046,-0.1196,-0.1303,-0.1356,-0.1345,-0.1228,0,0,0,-0.0427,-0.0053,0,0,0,-0.2691,-0.275,-0.2461,-0.2285,-0.2226,-0.2216,-0.2216,-0.2157,-0.1991,-0.1741,0,-0.1826,-0.2013,-0.204,-0.1965,-0.1869,-0.1762,-0.1612,-0.1436,-0.1255,-0.1111,-0.0982,-0.0854,-0.071,-0.0593,-0.0566,-0.0625,-0.071,-0.0731,-0.0737,-0.0801,-0.0956,-0.1148,-0.1324,-0.141,-0.1383,-0.1287,-0.1116,0,0,-0.1271,-0.1169,-0.0705,-0.1404,0.0,0.0,-0.1885,-0.212,-0.2264,-0.2232,-0.2226,-0.2237,-0.2269,-0.2274,-0.2333,-0.1644,0,-0.1655,-0.1991,-0.205,-0.1938,-0.1799,-0.1671,-0.1554,-0.1436,-0.1329,-0.1249,-0.1143,-0.1025,-0.0854,-0.0678,-0.0571,-0.0555,-0.0577,-0.0587,-0.0614,-0.0747,-0.0956,-0.1185,-0.1372,-0.1468,-0.1442,-0.1335,-0.1121,0,0,-0.37,-0.1484,-0.1297,-0.2808,0,0,-0.1127,-0.158,-0.2024,-0.2178,-0.2242,-0.2258,-0.228,-0.2339,-0.2488,0,-0.0507,-0.157,-0.1917,-0.1938,-0.1783,-0.1612,-0.15,-0.1442,-0.1388,-0.1329,-0.1276,-0.1185,-0.1089,-0.0929,-0.071,-0.0518,-0.0427,-0.0422,-0.047,-0.0545,-0.0721,-0.0945,-0.1148,-0.1292,-0.1372,-0.1377,-0.1351,-0.1185,-0.1885,-0.1458,-0.3123,0,0,0,0,0,-0.1602,-0.1831,-0.2045,-0.2184,-0.228,-0.2269,-0.2168,-0.2125,-0.2077,-0.0758,-0.1292,-0.165,-0.1794,-0.1709,-0.1522,-0.1356,-0.1313,-0.134,-0.134,-0.1276,-0.1196,-0.1121,-0.1062,-0.094,-0.071,-0.0454,-0.0294,-0.0288,-0.0384,-0.0518,-0.0742,-0.0961,-0.1084,-0.1143,-0.1164,-0.1159,-0.1223,-0.1175,-0.3769,-0.0838,-0.0368,0.0123,0.0486,0,0,0,-0.2157,-0.2226,-0.2168,-0.2184,-0.2285,-0.2322,-0.1997,-0.1773,-0.1682,-0.166,-0.1767,-0.1847,-0.1687,-0.1431,-0.1217,-0.1089,-0.1127,-0.1265,-0.1313,-0.1201,-0.1036,-0.1009,-0.1009,-0.1014,-0.0758,-0.0448,-0.0203,-0.0214,-0.0374,-0.0545,-0.079,-0.095,-0.0977,-0.1004,-0.1073,-0.0913,-0.0998,-0.1052,0,-0.0609,-0.0064,0.0278,0.0918,0.078,0,0,-0.3038,-0.2691,-0.2269,-0.2056,-0.2168,-0.244,-0.1847,-0.149,-0.1543,-0.1917,-0.2184,-0.221,-0.165,-0.1132,-0.0924,-0.0854,-0.0934,-0.1143,-0.1244,-0.1111,-0.0828,-0.0876,-0.0972,-0.118,-0.0908,-0.0555,-0.0182,-0.0251,-0.055,-0.0689,-0.079,-0.0769,-0.071,-0.0982,-0.1201,-0.0812,-0.0833,-0.0924,0.1404,-0.0096,0.0326,0.0593,0.0699,0.0956,-0.0459,-0.0801,-0.3193,-0.2573,-0.2109,-0.1783,-0.1869,-0.2552,-0.1773,-0.1367,-0.1399,-0.2061,-0.2477,-0.2643,-0.166,-0.0844,-0.0715,-0.0715,-0.078,-0.0934,-0.1052,-0.0833,-0.0721,-0.0806,-0.0961,-0.1223,-0.0977,-0.0641,-0.032,-0.0529,-0.0833,-0.0774,-0.0635,-0.0406,-0.0032,-0.1025,-0.1175,-0.0849,-0.078,-0.0881,0.2808,0.2242,0.158,0.0977,0.047,0.0085,-0.087,-0.1442,-0.2894,-0.2232,-0.1927,-0.1618,-0.15,-0.2178,0,0,-0.1329,-0.2125,-0.244,-0.2483,-0.1666,-0.0705,-0.0646,-0.0683,-0.0715,-0.0812,-0.0913,-0.0977,0,0,0,-0.0518,-0.0651,-0.0299,-0.0443,-0.0747,-0.0619,-0.0513,-0.0459,-0.0427,0.0069,0,0.0705,-0.0881,-0.0774,-0.0892,0,0.221,0.1778,0.1111,0.0379,-0.0219,-0.0747,-0.1068,-0.1527,0,0,0,-0.1783,-0.1644,-0.0454,-0.0155,0,-0.197,-0.2168,-0.2109,0,0,0,0,0,0,0,-0.142,-0.079,-0.0438,-0.0214,-0.0032,-0.0491,-0.0448,0,0,-0.0064,0.0005,-0.0406,-0.0651,-0.032,-0.0048,0.2136,0,0,0,0,0,0.1821,0.1164,0.0352,-0.0251,-0.0598,-0.0699,-0.0112,-0.0593,-0.078,-0.0715,-0.1778,-0.1265,-0.0833,-0.0454,-0.039,-0.1495,-0.1676,-0.1703,-0.0518,-0.0342,-0.031,-0.0539,-0.1062,-0.1687,-0.1575,-0.2258,-0.1725,-0.0913,-0.039,-0.0214,-0.0475,-0.0774,-0.0699,-0.0513,-0.008,0.0422,0,0,0,0.0198,0.0982,-0.0657,-0.0619,0,0,0,0,0.118,0.0352,-0.024,-0.0518,-0.0539,0.0427,-0.0438,-0.0998,-0.11,-0.1095,-0.0865,-0.0683,-0.0609,-0.0747,-0.1052,-0.1207,-0.1367,-0.0876,-0.0598,-0.0507,-0.0934,-0.2312,-0.4052,-0.3145,-0.3038,-0.1869,-0.0956,-0.0262,-0.0294,-0.0326,-0.0699,-0.15,-0.1025,-0.031,0.0555,0.0,0.0,0.0486,0.0486,-0.0198,-0.1303,-0.1228,0,0,0,0,0,0,0,0,0,0.1046,0.031,-0.0438,-0.0091,-0.0363,-0.0507,-0.0529,-0.0555,-0.0641,-0.0774,-0.0913,-0.1452,-0.0721,-0.0513,-0.04,-0.0785,-0.2504,-0.473,0,0,0,0,-0.0166,-0.0363,-0.0214,-0.0662,-0.1335,0,0,0,0,0,0.1308,0.0384,-0.0678,-0.1463,-0.1383,0,0,0,0,0,0,0,0,0,0,0,0,0.0593,0.0149,-0.0294,-0.0454,-0.0502,-0.0555,-0.0646,-0.0758,-0.1516,0,0,0,0,0,0,0,0,0,0,0,0,-0.0085,-0.0529,-0.1062,0,0,0,0,0,0.1789,0.0529,-0.0902,-0.1746,-0.1666,0,0,0,0,0,0,0,0,0,0,0,0,0,0,0,0,0,0,0,0,0,0,0,0,0,0,0,0,0,0,0,0,0,0,0,0,0,0,0,0,0,0.1789,0.0966,-0.0902,-0.1911,-0.1767,0,0,0,0,0,0,0,0,0,0,0,0,0,0,0,0,0,0,0,0,0,0,0,0,0,0,0,0,0,0,0,0,0,0,0,0,0,0,0,0,0,0.1228,0.1153,-0.0737,-0.1906,-0.1751,0,0,0,0,0,0,0,0,0,0,0,0,0,0,0,0,0,0,0,0,0,0,0,0,0,0,0,0,0,0,0,0,0,0,0,0,0,0,0,0,0,0,0.1303,-0.0486,-0.1709,-0.1858,0,0,0,0,0,0,0,0,0,0,0,0,0,0,0,0,0,0,0,0,0,0,0,0,0,0,0,0,0,0,0,0,0,0,0,0,0,0,0,0,0,0,0.1351,-0.063,-0.1377,-0.2034,0,0,0,0,0,0,0,0,0,0,0,0,0,0,0,0,0,0,0,0,0,0,0,0,0,0,0,0,0,0,0,0,0,0,0,0,0,0,0,0,0,0,0.1105,-0.1057,-0.1095,-0.228,0,0,0,0,0,0,0,0,0,0,0,0,0,0,0,0,0,0,0,0,0,0,0,0,0,0,0,0,0,0,0,0,0,0,0,0,0,0,0,0,0,0,0.0972,-0.0844,-0.1127,-0.2979,0]}]],[[{"header":{"parameterUnit":"kt","parameterCategory":2,"dx":1,"dy":1,"la1":29.46422004699707,"la2":30.564109802246094,"lo1":-89.4342041015625,"lo2":-87.934326171875,"nx":46,"ny":34,"refTime":"2022-09-27T00:00:00:Z","depth":"2","parameterNumber":2,"parameterNumberName":"U-component_of_CURRENTS"},"data":[-0.0934,-0.0806,-0.0715,-0.0635,-0.0513,-0.0304,-0.0176,0,-0.0331,-0.0486,-0.0182,-0.031,-0.0689,-0.0908,-0.1223,-0.1655,-0.2018,-0.2317,-0.2595,-0.2782,-0.2782,-0.2493,-0.1933,-0.1361,-0.0945,-0.0956,-0.1458,-0.1975,-0.213,-0.205,-0.2061,-0.2082,-0.1986,-0.1821,-0.1612,-0.141,-0.1207,-0.0913,-0.0481,0.0048,0.0598,0.1073,0.1292,0.118,0.0881,0.0721,-0.0715,-0.0715,-0.0699,-0.0683,-0.0667,-0.0726,-0.0961,-0.1127,0,-0.0123,-0.0224,-0.0828,-0.134,-0.1217,-0.1345,-0.1687,-0.2002,-0.2242,-0.2483,-0.2723,-0.291,-0.2899,-0.2552,-0.1927,-0.1281,-0.0886,-0.0934,-0.1335,-0.1725,-0.1911,-0.2034,-0.2194,-0.2349,-0.2381,-0.2301,-0.2269,-0.2173,-0.1954,-0.1746,-0.1522,-0.1249,-0.0993,-0.0849,-0.0758,-0.0566,-0.0064,-0.0422,-0.0539,-0.0614,-0.0646,-0.063,-0.0577,-0.0534,-0.0497,-0.0032,0.0278,0.0139,0,-0.0358,-0.086,-0.1207,-0.1628,-0.1959,-0.2168,-0.236,-0.2552,-0.2739,-0.2856,-0.2766,-0.2365,-0.1719,-0.1095,-0.0801,-0.0918,-0.1276,-0.1644,-0.1991,-0.2344,-0.2723,-0.3001,-0.3145,-0.3257,-0.3348,-0.3406,-0.3481,-0.3492,-0.3337,-0.307,-0.2712,-0.2226,-0.1511,-0.0555,-0.0096,-0.0288,-0.0454,-0.0566,-0.0603,-0.0577,-0.0566,-0.0555,-0.047,-0.0432,-0.0667,-0.0374,-0.0075,-0.0534,-0.1164,-0.1719,-0.2007,-0.2162,-0.2274,-0.2387,-0.2515,-0.2627,-0.2659,-0.2493,-0.2061,-0.1458,-0.0961,-0.0801,-0.1052,-0.1666,-0.2205,-0.2616,-0.3118,-0.3567,-0.3801,-0.3887,-0.3935,-0.3946,-0.3903,-0.3668,-0.33,-0.2856,-0.2301,-0.1596,-0.0817,-0.0128,0.0363,0.0101,-0.0198,-0.0438,-0.0555,-0.0577,-0.0571,-0.0582,-0.0566,-0.0539,-0.0539,-0.0534,-0.0609,-0.1052,-0.189,-0.2306,-0.221,-0.2216,-0.2221,-0.2232,-0.2274,-0.2344,-0.2381,-0.2339,-0.2136,-0.1719,-0.1201,-0.0849,-0.0806,-0.1095,-0.1602,-0.197,-0.2082,-0.2088,-0.2093,-0.221,-0.2429,-0.2627,-0.2659,-0.2456,-0.2088,-0.1644,-0.1169,-0.0689,-0.0256,0.0085,0.0416,0.0358,0.0027,-0.031,-0.0539,-0.063,-0.0593,-0.0561,-0.0593,-0.0625,-0.0667,-0.0683,-0.0582,-0.0491,0,-0.1062,-0.2146,-0.2162,-0.2114,-0.2045,-0.2018,-0.2024,-0.2029,-0.2018,-0.1954,-0.1741,-0.134,-0.0913,-0.0678,-0.0667,-0.0822,-0.1046,-0.1137,-0.1105,-0.1111,-0.1175,-0.1223,-0.1169,-0.1052,-0.0897,-0.0662,-0.0395,-0.0123,0.016,0.0454,0.0726,0.1046,0.079,0.0294,-0.0112,-0.0646,-0.1052,-0.0902,-0.0651,-0.063,-0.0673,-0.0742,-0.0838,-0.0977,-0.1062,-0.1073,0,-0.0993,-0.1986,-0.1911,-0.1794,-0.1735,-0.1703,-0.1671,-0.165,-0.1623,-0.1543,-0.134,-0.102,-0.071,-0.0545,-0.0529,-0.0694,-0.0945,-0.102,-0.0972,-0.0956,-0.0972,-0.0881,-0.0587,-0.0267,-0.0037,0.0171,0.0384,0.0609,0.0828,0.1041,0,-0.0064,0.0032,0.0101,-0.0448,-0.1265,-0.1223,-0.0721,-0.0625,-0.0651,-0.0699,-0.0758,-0.0785,-0.0806,-0.0945,-0.1062,0,-0.0886,-0.1655,-0.15,-0.1442,-0.1404,-0.1361,-0.1319,-0.1281,-0.1249,-0.1191,-0.1052,-0.0801,-0.0566,-0.0438,-0.0475,-0.0747,-0.1014,-0.1089,-0.1062,-0.095,-0.0785,-0.0486,-0.0133,0.008,0.023,0.039,0.0577,0.0774,0.0966,0,-0.0555,0,0.0203,0.04,0,-0.0246,-0.0475,-0.0491,-0.0534,-0.0566,-0.0587,-0.0598,-0.0683,-0.0812,-0.0902,-0.0945,0,-0.0491,-0.1068,-0.1148,-0.1143,-0.1105,-0.1057,-0.1009,-0.0972,-0.0956,-0.0924,-0.0796,-0.0582,-0.0395,-0.0288,-0.0342,-0.0625,-0.087,-0.0876,-0.0715,-0.0507,-0.0256,0.0037,0.0203,0.0262,0.0342,0.0475,0.0651,0.0817,0,0.0518,0.063,0.0625,0,-0.0005,-0.0133,-0.0294,-0.0374,-0.0432,-0.0438,-0.0384,-0.0267,-0.0459,-0.0614,-0.0432,-0.0358,0,-0.0577,-0.1062,-0.0945,-0.0908,-0.0886,-0.0865,-0.0828,-0.0785,-0.0753,-0.0726,-0.0667,-0.0518,-0.0342,-0.0182,-0.0053,-0.0011,-0.0043,-0.0059,0.0016,0.0117,0.0219,0.0315,0.0347,0.0331,0.0363,0.0464,0.0609,0.0726,0,0,0,0,0,-0.0166,-0.0304,-0.0294,-0.0347,-0.0416,-0.0427,-0.0358,-0.0299,0,0.0021,0.0075,0.0117,0,0,-0.0208,-0.0513,-0.0635,-0.0678,-0.0699,-0.0694,-0.0678,-0.0635,-0.0593,-0.0545,-0.0438,-0.0272,-0.0101,0.0069,0.024,0.0395,0.0534,0.0609,0.0593,0.0523,0.0475,0.0438,0.0411,0.0427,0.0507,0.0614,0.0689,0,0,0,0,0,0,-0.0107,-0.0251,-0.0336,-0.0438,-0.0529,-0.0635,-0.078,-0.0267,0.0294,0.0395,0.0529,0,0,-0.0133,-0.0358,-0.0475,-0.0523,-0.0561,-0.0582,-0.0593,-0.0571,-0.0529,-0.047,-0.039,-0.0251,-0.008,0.0096,0.0278,0.0454,0.0582,0.0619,0.0582,0.0539,0.0534,0.0539,0.0545,0.0561,0.0603,0.0646,0.0657,0,0,0,0,0,0,-0.0133,-0.0304,-0.0363,-0.0432,-0.0486,-0.0491,-0.0459,-0.0352,-0.024,-0.0203,0,0,0,-0.0107,-0.0278,-0.0379,-0.0422,-0.0454,-0.0486,-0.0513,-0.0523,-0.0491,-0.0432,-0.0342,-0.0219,-0.0085,0.0069,0.023,0.039,0.0491,0.0502,0.0454,0.0443,0.0502,0.0593,0.0678,0.0737,0.0758,0.0721,0.0646,0,0,0,0,0,0,-0.0192,-0.0416,-0.0416,-0.0416,-0.0438,-0.0438,-0.0475,-0.0561,-0.0806,-0.1281,-0.118,-0.078,0,-0.0101,-0.0262,-0.0336,-0.0368,-0.0395,-0.0427,-0.0459,-0.0486,-0.047,-0.0406,-0.031,-0.0192,-0.008,0.0027,0.0133,0.0224,0.0262,0.0235,0.0219,0.0278,0.0395,0.0545,0.0694,0.0812,0.0838,0.0763,0.0625,0,0,0,0,0,0,0,-0.0347,-0.0523,-0.0315,-0.0251,-0.023,-0.0235,-0.0283,-0.0368,-0.047,-0.0432,-0.0352,0,-0.0123,-0.0288,-0.0347,-0.0374,-0.0416,-0.047,-0.0523,-0.0555,-0.0545,-0.0491,-0.04,-0.0288,-0.0187,-0.0107,-0.0053,-0.0037,-0.0048,-0.0048,0.0,0.0096,0.0214,0.0347,0.0491,0.0609,0.0657,0.0603,0.0481,0,0,0,0.023,0.0464,0,0,0,0.0133,0.023,0.0144,0.0075,0.0043,0.0011,-0.0011,0.0016,0.0069,0.0096,0,-0.016,-0.0347,-0.04,-0.0438,-0.0513,-0.0609,-0.0694,-0.0747,-0.0747,-0.0705,-0.0625,-0.0502,-0.0384,-0.0304,-0.0272,-0.0278,-0.0278,-0.0251,-0.0192,-0.0123,-0.0053,0.0016,0.0091,0.016,0.0198,0.0192,0.0149,0,0,0.0742,0.1495,0.1692,0.2632,0.3422,0.3438,0.2632,0.1345,0.063,0.0358,0.0267,0.0214,0.0203,0.0262,0.0497,0.0678,0,-0.0139,-0.0326,-0.0406,-0.0513,-0.063,-0.0747,-0.0838,-0.0897,-0.0924,-0.0913,-0.086,-0.0763,-0.0662,-0.0587,-0.0561,-0.0566,-0.0555,-0.0507,-0.0438,-0.0363,-0.0299,-0.0272,-0.0288,-0.0342,-0.039,-0.04,-0.0368,0,0,0.0881,0.1762,0.1543,0.1319,0,0,0.0219,0.0513,0.0539,0.0443,0.0352,0.0272,0.0198,0.0123,0.0091,0,0.0037,0.0037,-0.0112,-0.0336,-0.0545,-0.0705,-0.0833,-0.094,-0.102,-0.1073,-0.1105,-0.1095,-0.1062,-0.103,-0.1004,-0.0988,-0.0966,-0.0918,-0.0822,-0.0694,-0.055,-0.0443,-0.0422,-0.0507,-0.0683,-0.087,-0.0982,-0.0988,0.1169,0.2734,0.3123,0,0,0,0,0,0.0166,0.0416,0.0502,0.0475,0.04,0.0294,0.0128,-0.0171,-0.0667,-0.0689,-0.0208,-0.0005,-0.0091,-0.032,-0.0561,-0.0753,-0.0908,-0.1046,-0.1159,-0.1244,-0.1308,-0.1345,-0.1351,-0.134,-0.1319,-0.1292,-0.1244,-0.1164,-0.1036,-0.0876,-0.0731,-0.0641,-0.0646,-0.0747,-0.0918,-0.1148,-0.1377,-0.1511,0.8516,0.6097,0.3631,0.205,0.1468,0,0,0,0.0133,0.0411,0.0582,0.0582,0.0502,0.0416,0.0246,-0.0037,-0.0267,-0.0251,-0.0053,0.0059,-0.0043,-0.031,-0.0587,-0.0812,-0.1009,-0.1185,-0.1319,-0.1388,-0.1463,-0.1559,-0.1602,-0.1527,-0.1388,-0.1281,-0.1212,-0.1143,-0.1036,-0.0945,-0.0956,-0.1057,-0.1212,-0.1361,-0.142,-0.149,-0.1676,-0.1853,0,0.1073,0.2424,0.2541,0.2333,0.2274,0,0,0.0326,0.078,0.0876,0.0769,0.0641,0.0657,0.0518,0.0112,-0.0182,-0.0246,-0.0182,-0.0107,-0.0171,-0.0411,-0.0667,-0.0881,-0.1089,-0.1324,-0.1484,-0.1479,-0.149,-0.1618,-0.1735,-0.1709,-0.1532,-0.1345,-0.1228,-0.1196,-0.1137,-0.1148,-0.1329,-0.1618,-0.197,-0.2194,-0.2157,-0.205,-0.2056,-0.2157,0.9124,0.6428,0.457,0.37,0.3332,0.3529,0.3599,0.347,0.3177,0.2339,0.1602,0.1073,0.0742,0.0801,0.0651,0.0085,-0.0272,-0.0443,-0.0566,-0.0529,-0.0523,-0.0715,-0.0844,-0.0929,-0.1052,-0.1265,-0.15,-0.1671,-0.1623,-0.1463,-0.1538,-0.1666,-0.1714,-0.1623,-0.1527,-0.157,-0.149,-0.1399,-0.1452,-0.1628,-0.221,-0.2579,-0.2472,-0.2435,-0.2355,-0.2339,0.1618,0.3444,0.37,0.3652,0.3492,0.346,0.3358,0.3049,0.3043,0.2899,0.2104,0.1239,0.0667,0.0486,0,0,-0.0368,-0.0726,-0.0844,-0.0961,-0.1148,-0.1239,-0.1036,-0.086,-0.0715,-0.063,-0.0657,-0.0699,0,0,0,-0.0667,-0.1612,-0.2002,-0.197,-0.1543,-0.1153,-0.1073,-0.0988,-0.0801,-0.0689,0,-0.1484,-0.2835,-0.2547,-0.2312,0,0.1271,0.2782,0.3075,0.3139,0.3155,0.3118,0.2872,0.268,0,0,0,0.016,0.0182,0.0123,0.0208,0,-0.0182,-0.0363,-0.0363,0,0,0,0,0,0,0,-0.04,-0.0641,-0.0539,-0.0806,-0.1014,-0.1052,-0.11,0,0,-0.0315,-0.0758,-0.0828,-0.0817,-0.039,-0.047,-0.1036,0,0,0,0,0,0.1068,0.2333,0.267,0.2926,0.3091,0.3145,0.3369,0.3433,0.3091,0.2589,0.1783,0.1068,0.0769,0.0822,0.0988,0.0801,0.0342,-0.0085,-0.0117,0.0043,-0.0101,-0.0529,-0.0934,-0.0438,0.0246,0.0272,0.0085,-0.0101,-0.023,-0.0464,-0.0737,-0.0828,-0.0518,-0.0384,-0.0224,0.0043,0,0,0,-0.0497,-0.0192,0.0491,0.0374,0,0,0,0,0.0747,0.1959,0.267,0.3065,0.3444,0.3465,0.3102,0.2819,0.2445,0.1863,0.1335,0.1116,0.1111,0.1116,0.0982,0.0769,0.071,0.0657,0.0497,0.0352,0.0198,-0.0374,-0.0203,0.086,0.0651,-0.0043,0.0096,0.0272,0.016,0.0064,0.0,0.0272,0.0609,0.0817,0.1474,0.1895,0.1773,0.0555,-0.0619,-0.0294,0.0117,0.0155,0,0,0,0,0,0,0,0,0,0.0625,0.1725,0.2499,0.2504,0.1943,0.1554,0.141,0.1372,0.1324,0.1191,0.0977,0.0945,0.0918,0.079,0.0822,0.0844,0.0561,0.0294,0,0,0,0,0.0144,0.0502,0.0582,0.024,0.0043,0,0,0,0,0,-0.063,-0.1207,-0.0881,-0.0336,-0.0021,0,0,0,0,0,0,0,0,0,0,0,0,0.0411,0.1095,0.1463,0.157,0.157,0.1506,0.1356,0.1089,0.0918,0,0,0,0,0,0,0,0,0,0,0,0,0.0155,0.0347,0.039,0,0,0,0,0,-0.0507,-0.1196,-0.1132,-0.0635,-0.0267,0,0,0,0,0,0,0,0,0,0,0,0,0,0,0,0,0,0,0,0,0,0,0,0,0,0,0,0,0,0,0,0,0,0,0,0,0,0,0,0,0,-0.024,-0.0737,-0.0897,-0.063,-0.0283,0,0,0,0,0,0,0,0,0,0,0,0,0,0,0,0,0,0,0,0,0,0,0,0,0,0,0,0,0,0,0,0,0,0,0,0,0,0,0,0,0,-0.0064,-0.0203,-0.0331,-0.0379,-0.0107,0,0,0,0,0,0,0,0,0,0,0,0,0,0,0,0,0,0,0,0,0,0,0,0,0,0,0,0,0,0,0,0,0,0,0,0,0,0,0,0,0,0,0.1014,0.0262,-0.0336,-0.0133,0,0,0,0,0,0,0,0,0,0,0,0,0,0,0,0,0,0,0,0,0,0,0,0,0,0,0,0,0,0,0,0,0,0,0,0,0,0,0,0,0,0,-0.0224,-0.0304,-0.0352,-0.0219,0,0,0,0,0,0,0,0,0,0,0,0,0,0,0,0,0,0,0,0,0,0,0,0,0,0,0,0,0,0,0,0,0,0,0,0,0,0,0,0,0,0,-0.024,-0.0475,-0.0721,-0.0619,0,0,0,0,0,0,0,0,0,0,0,0,0,0,0,0,0,0,0,0,0,0,0,0,0,0,0,0,0,0,0,0,0,0,0,0,0,0,0,0,0,0,0.0459,-0.0464,-0.1901,-0.1335,0]}],[{"header":{"parameterUnit":"kt","parameterCategory":2,"dx":1,"dy":1,"la1":29.46422004699707,"la2":30.564109802246094,"lo1":-89.4342041015625,"lo2":-87.934326171875,"nx":46,"ny":34,"refTime":"2022-09-27T00:00:00:Z","depth":"2","parameterNumber":3,"parameterNumberName":"V-component_of_CURRENTS"},"data":[-0.047,-0.0763,-0.0993,-0.1207,-0.141,-0.1564,-0.1842,0,-0.0737,-0.2007,-0.2274,-0.1895,-0.2456,-0.2803,-0.3118,-0.3214,-0.3161,-0.3038,-0.2846,-0.2616,-0.229,-0.1778,-0.1025,-0.0304,-0.0128,-0.0673,-0.1431,-0.1228,-0.0657,-0.0096,0.0267,0.0561,0.0854,0.1036,0.1164,0.1191,0.1116,0.1078,0.1217,0.1372,0.1431,0.1351,0.1239,0.1159,0.1239,0.1143,-0.0529,-0.087,-0.1095,-0.1287,-0.1452,-0.158,-0.1725,-0.079,0,-0.2157,-0.2424,-0.1639,-0.252,-0.2691,-0.2846,-0.2963,-0.292,-0.2835,-0.268,-0.2515,-0.2317,-0.2013,-0.1522,-0.0812,-0.0139,-0.0069,-0.0699,-0.1169,-0.1036,-0.0502,-0.0059,0.0133,0.0299,0.0395,0.0561,0.0582,0.0502,0.0481,0.0641,0.0934,0.126,0.1538,0.1703,0.1746,0.1687,0.1313,-0.0448,-0.0881,-0.1137,-0.1297,-0.1431,-0.1516,-0.1602,-0.1596,-0.0721,-0.1911,-0.2296,0,-0.229,-0.2456,-0.2504,-0.2648,-0.268,-0.2627,-0.2499,-0.2349,-0.2173,-0.1965,-0.1682,-0.1223,-0.0561,0.0021,0.0043,-0.0438,-0.0747,-0.0443,0.0091,0.024,0.0224,0.0133,0.0117,0.0032,-0.0075,0.0048,0.0096,0.0438,0.0699,0.1073,0.1207,0.1319,0.103,0.0774,-0.0294,-0.0763,-0.1111,-0.1276,-0.1404,-0.1548,-0.1666,-0.1671,-0.1532,-0.1682,-0.1895,-0.0726,-0.165,-0.1853,-0.1826,-0.2285,-0.2451,-0.2419,-0.2322,-0.2194,-0.2029,-0.1837,-0.1639,-0.1367,-0.0924,-0.0304,0.0208,0.0278,0.0021,-0.0069,0.0288,0.0443,0.0347,0.0059,-0.0133,-0.0283,-0.0406,-0.0262,-0.0422,-0.0032,0.0085,0.0454,0.0448,0.055,0.0304,0.0182,-0.0112,-0.0545,-0.0956,-0.1191,-0.1345,-0.157,-0.1709,-0.1709,-0.1618,-0.1586,-0.157,-0.1426,-0.1297,-0.1068,-0.1372,-0.2306,-0.236,-0.2274,-0.2189,-0.2082,-0.1927,-0.1746,-0.1554,-0.1351,-0.1068,-0.0614,0.0037,0.0571,0.0699,0.0475,0.0539,0.0566,0.0406,0.0203,0.0085,0.0021,-0.0091,-0.0171,-0.0379,-0.023,-0.0203,-0.0011,0.0011,0.0032,-0.0037,-0.0155,-0.0149,-0.0326,-0.063,-0.1004,-0.1313,-0.1602,-0.1794,-0.1628,-0.1554,-0.149,-0.1463,-0.142,-0.1335,-0.094,0,-0.2499,-0.2371,-0.2194,-0.213,-0.2018,-0.1858,-0.1682,-0.1479,-0.1287,-0.1073,-0.0769,-0.0219,0.0497,0.0924,0.087,0.0747,0.0598,0.0304,0.0411,0.0497,0.0507,0.0374,0.0203,-0.0011,-0.0096,-0.0128,-0.0101,-0.0053,-0.0069,-0.0117,-0.0214,-0.0294,0.0123,-0.0117,-0.0705,-0.1351,-0.1618,-0.1997,-0.1532,-0.1447,-0.1399,-0.1372,-0.1377,-0.1377,-0.1249,-0.0699,0,-0.236,-0.2157,-0.2141,-0.1991,-0.1826,-0.165,-0.1447,-0.1233,-0.103,-0.0796,-0.0384,0.0262,0.0833,0.0977,0.086,0.0662,0.0182,0.0342,0.0539,0.0545,0.04,0.0182,-0.0059,-0.008,-0.0149,-0.0128,-0.008,-0.008,-0.0139,-0.0176,0,0.0555,0.0192,-0.0475,-0.1292,-0.1618,-0.2296,-0.1506,-0.1399,-0.1345,-0.1319,-0.1292,-0.1265,-0.1249,-0.1271,-0.0673,0,-0.2146,-0.2285,-0.1991,-0.1794,-0.1639,-0.1447,-0.1228,-0.0998,-0.0763,-0.0422,0.0101,0.0646,0.0902,0.0892,0.0758,0.0384,0.0326,0.0513,0.047,0.0304,-0.0101,-0.0347,-0.0262,-0.0294,-0.0272,-0.0214,-0.0198,-0.023,-0.0214,0,0.0363,0,-0.0721,-0.1217,0,-0.2093,-0.1474,-0.1388,-0.1335,-0.1324,-0.1287,-0.1228,-0.1116,-0.1159,-0.1255,-0.0587,0,-0.1906,-0.1901,-0.1741,-0.1618,-0.1463,-0.1265,-0.1009,-0.0737,-0.0411,0.0043,0.0507,0.0801,0.0881,0.0838,0.0705,0.055,0.055,0.0395,0.0101,-0.0347,-0.0571,-0.0416,-0.0432,-0.0427,-0.039,-0.0395,-0.0422,-0.0384,0,0.0101,0.0,-0.102,0,-0.0342,-0.1447,-0.1377,-0.1383,-0.1351,-0.1393,-0.1393,-0.1345,-0.1004,-0.1393,-0.1319,-0.1265,0,-0.1415,-0.1927,-0.1725,-0.158,-0.1452,-0.1297,-0.1057,-0.0753,-0.0432,-0.0032,0.04,0.0694,0.0828,0.0849,0.0838,0.0785,0.0641,0.0374,-0.0021,-0.04,-0.0523,-0.0406,-0.0422,-0.0464,-0.0513,-0.0571,-0.0614,-0.0561,0,0,0,0,0,-0.0678,-0.1127,-0.1329,-0.1404,-0.1388,-0.149,-0.158,-0.1607,0,-0.1725,-0.1591,-0.126,0,0,-0.1895,-0.1682,-0.1511,-0.1404,-0.1287,-0.1095,-0.0796,-0.0486,-0.0139,0.0256,0.0555,0.071,0.0763,0.079,0.078,0.0641,0.0347,-0.0037,-0.0315,-0.0374,-0.0304,-0.032,-0.0406,-0.0545,-0.0678,-0.0737,-0.0662,0,0,0,0,0,0,-0.0972,-0.1287,-0.1436,-0.1415,-0.1532,-0.1639,-0.1666,-0.0758,-0.1847,-0.1943,-0.1164,0,0,-0.1666,-0.1575,-0.1426,-0.134,-0.1255,-0.11,-0.0844,-0.0545,-0.0246,0.0101,0.0395,0.0561,0.063,0.0657,0.0646,0.0529,0.0272,-0.0048,-0.0272,-0.031,-0.0246,-0.023,-0.0331,-0.0534,-0.0726,-0.079,-0.0694,0,0,0,0,0,0,-0.0753,-0.118,-0.1463,-0.1484,-0.1543,-0.1628,-0.166,-0.1655,-0.1959,-0.221,0,0,0,-0.1554,-0.1522,-0.1377,-0.1303,-0.1233,-0.1111,-0.0886,-0.0598,-0.032,-0.0032,0.0235,0.0406,0.0481,0.0507,0.0491,0.039,0.0176,-0.0085,-0.0267,-0.0288,-0.0214,-0.0187,-0.0299,-0.0507,-0.0705,-0.0769,-0.0667,0,0,0,0,0,0,-0.0635,-0.1062,-0.1527,-0.166,-0.1618,-0.1671,-0.1698,-0.1741,-0.1869,-0.1895,-0.0502,-0.0502,0,-0.1484,-0.1495,-0.1372,-0.1308,-0.1249,-0.1143,-0.0945,-0.0678,-0.0411,-0.016,0.0059,0.0219,0.031,0.0352,0.0336,0.0235,0.0053,-0.0144,-0.0251,-0.0251,-0.0208,-0.0224,-0.0342,-0.0497,-0.0635,-0.0673,-0.0566,0,0,0,0,0,0,0,-0.1009,-0.1741,-0.197,-0.1762,-0.1698,-0.1671,-0.166,-0.166,-0.1548,-0.118,-0.1148,0,-0.1404,-0.1479,-0.142,-0.1356,-0.1292,-0.1196,-0.102,-0.0796,-0.0555,-0.0347,-0.0171,-0.0032,0.0085,0.016,0.016,0.0069,-0.0064,-0.0166,-0.0187,-0.0187,-0.0224,-0.0326,-0.0454,-0.0545,-0.0582,-0.0555,-0.0422,0,0,0,-0.024,0.0176,0,0,0,-0.2066,-0.2152,-0.1879,-0.1714,-0.166,-0.165,-0.165,-0.1591,-0.1442,-0.1191,0,-0.1271,-0.1458,-0.1484,-0.1404,-0.1313,-0.1207,-0.1052,-0.0876,-0.0694,-0.055,-0.0416,-0.0288,-0.0133,-0.0005,0.0037,-0.0005,-0.0069,-0.008,-0.0069,-0.0117,-0.0251,-0.0427,-0.0587,-0.0657,-0.0619,-0.0513,-0.032,0,0,-0.1009,-0.0721,-0.0187,-0.1062,0.0,0.0,-0.1281,-0.1559,-0.1698,-0.1671,-0.1666,-0.1682,-0.1714,-0.1725,-0.1778,-0.1089,0,-0.11,-0.1436,-0.1495,-0.1388,-0.1244,-0.1121,-0.0998,-0.0881,-0.0774,-0.0694,-0.0582,-0.047,-0.0294,-0.0107,0.0016,0.0043,0.0043,0.0053,0.0043,-0.0069,-0.0262,-0.047,-0.0641,-0.0721,-0.0678,-0.0561,-0.0336,0,0,-0.3155,-0.0966,-0.0726,-0.2125,0,0,-0.0587,-0.1052,-0.1474,-0.1618,-0.1682,-0.1703,-0.173,-0.1794,-0.1943,0,-0.0235,-0.102,-0.1367,-0.1393,-0.1239,-0.1068,-0.0961,-0.0897,-0.0844,-0.078,-0.0726,-0.0635,-0.0539,-0.0374,-0.0149,0.0053,0.016,0.0182,0.016,0.0096,-0.0059,-0.0267,-0.0443,-0.0566,-0.063,-0.0625,-0.0582,-0.0406,-0.1484,-0.0902,-0.2547,0,0,0,0,0,-0.1089,-0.1303,-0.1495,-0.1623,-0.1714,-0.1709,-0.1618,-0.1586,-0.1532,-0.0481,-0.0742,-0.1105,-0.1249,-0.1169,-0.0982,-0.0822,-0.0774,-0.0801,-0.0796,-0.0726,-0.0651,-0.0577,-0.0513,-0.0395,-0.0155,0.0107,0.0278,0.0299,0.0219,0.0107,-0.0101,-0.0299,-0.04,-0.0432,-0.0438,-0.0416,-0.0464,-0.0395,-0.2969,0.008,0.0203,0.039,0.0715,0,0,0,-0.1618,-0.1682,-0.1612,-0.1618,-0.1719,-0.1751,-0.1447,-0.1233,-0.1148,-0.1116,-0.1223,-0.1303,-0.1148,-0.0897,-0.0689,-0.0561,-0.0598,-0.0726,-0.0769,-0.0651,-0.0497,-0.047,-0.047,-0.0475,-0.0219,0.0091,0.0347,0.0347,0.0208,0.0053,-0.0166,-0.0299,-0.0299,-0.0304,-0.0358,-0.0187,-0.0256,-0.0294,0,0.0315,0.0614,0.0844,0.1399,0.1068,0,0,-0.2419,-0.213,-0.1719,-0.1511,-0.1612,-0.1869,-0.1287,-0.095,-0.1014,-0.1372,-0.1639,-0.166,-0.1111,-0.0603,-0.04,-0.0331,-0.0411,-0.0609,-0.0699,-0.0571,-0.0283,-0.0342,-0.0438,-0.0657,-0.0384,-0.0027,0.0347,0.0294,0.0016,-0.0096,-0.0166,-0.0117,-0.0037,-0.0272,-0.0475,-0.0091,-0.0096,-0.0176,0.1618,0.078,0.1057,0.1223,0.126,0.1543,-0.0101,-0.0427,-0.2531,-0.2007,-0.1575,-0.126,-0.1356,-0.2018,-0.1207,-0.0817,-0.0876,-0.1516,-0.1901,-0.2066,-0.1121,-0.0326,-0.0198,-0.0198,-0.0256,-0.0406,-0.0518,-0.0299,-0.0155,-0.0262,-0.0411,-0.0699,-0.0454,-0.0117,0.0208,0.0027,-0.0272,-0.0187,-0.0021,0.0246,0.0662,-0.0262,-0.0411,-0.0123,-0.0043,-0.0133,0.3235,0.2819,0.2242,0.1618,0.1073,0.0673,-0.0224,-0.078,-0.2301,-0.1666,-0.1393,-0.11,-0.1014,-0.1692,0,0,-0.0812,-0.1591,-0.189,-0.1917,-0.11,-0.0182,-0.0117,-0.0149,-0.0176,-0.0262,-0.0363,-0.0459,0,0,0,-0.0016,-0.0133,0.0246,0.0117,-0.0144,-0.0037,0.0091,0.016,0.024,0.0796,0,0.1479,-0.0123,-0.0016,-0.0128,0,0.2739,0.2317,0.1687,0.0934,0.0331,-0.0203,-0.0523,-0.1009,0,0,0,-0.1287,-0.118,-0.023,0.0064,0,-0.1474,-0.1671,-0.1612,0,0,0,0,0,0,0,-0.0865,-0.0513,-0.0187,0.0027,0.0427,-0.0016,0.0059,0,0,0.0459,0.0529,0.0155,-0.0011,0.0427,0.0326,0.2878,0,0,0,0,0,0.2258,0.1666,0.0886,0.0278,-0.0075,-0.0166,0.039,-0.0331,-0.0529,-0.047,-0.1281,-0.0828,-0.0395,-0.0021,-0.0182,-0.1052,-0.1239,-0.1271,-0.031,-0.0128,-0.0085,-0.0283,-0.0721,-0.1265,-0.1084,-0.1431,-0.1153,-0.0411,0.0075,0.024,-0.0021,-0.0315,-0.0475,-0.0272,0.039,0.0892,0,0,0,0.0918,0.1714,-0.0272,-0.024,0,0,0,0,0.165,0.0897,0.0294,0.0005,0.0005,0.0865,0.0043,-0.0491,-0.0593,-0.063,-0.0464,-0.0283,-0.0208,-0.0352,-0.0657,-0.0822,-0.0982,-0.0491,-0.0203,-0.0096,-0.0443,-0.141,-0.2739,-0.2173,-0.1991,-0.1281,-0.0454,0.0198,0.0176,0.0096,-0.0299,-0.1089,-0.0545,0.0133,0.0998,0.0,0.0,0.079,0.1169,0.0529,-0.0545,-0.0486,0,0,0,0,0,0,0,0,0,0.1404,0.0753,0.008,0.0326,0.0021,-0.0155,-0.0182,-0.0208,-0.0294,-0.0438,-0.0582,-0.1121,-0.0368,-0.0149,-0.0021,-0.0315,-0.1383,-0.2958,0,0,0,0,0.0304,0.0128,0.0214,-0.0272,-0.0988,0,0,0,0,0,0.1885,0.1041,0.0032,-0.0731,-0.0646,0,0,0,0,0,0,0,0,0,0,0,0,0.0902,0.0464,0.0027,-0.0133,-0.0187,-0.024,-0.0336,-0.0454,-0.1212,0,0,0,0,0,0,0,0,0,0,0,0,0.0352,-0.0144,-0.0753,0,0,0,0,0,0.2312,0.1137,-0.024,-0.1046,-0.0929,0,0,0,0,0,0,0,0,0,0,0,0,0,0,0,0,0,0,0,0,0,0,0,0,0,0,0,0,0,0,0,0,0,0,0,0,0,0,0,0,0,0.2264,0.1527,-0.0288,-0.1255,-0.1068,0,0,0,0,0,0,0,0,0,0,0,0,0,0,0,0,0,0,0,0,0,0,0,0,0,0,0,0,0,0,0,0,0,0,0,0,0,0,0,0,0,0.1687,0.166,-0.0176,-0.1297,-0.1111,0,0,0,0,0,0,0,0,0,0,0,0,0,0,0,0,0,0,0,0,0,0,0,0,0,0,0,0,0,0,0,0,0,0,0,0,0,0,0,0,0,0,0.1767,0.0059,-0.1127,-0.1271,0,0,0,0,0,0,0,0,0,0,0,0,0,0,0,0,0,0,0,0,0,0,0,0,0,0,0,0,0,0,0,0,0,0,0,0,0,0,0,0,0,0,0.1767,-0.0096,-0.0822,-0.1484,0,0,0,0,0,0,0,0,0,0,0,0,0,0,0,0,0,0,0,0,0,0,0,0,0,0,0,0,0,0,0,0,0,0,0,0,0,0,0,0,0,0,0.1468,-0.0561,-0.0545,-0.1735,0,0,0,0,0,0,0,0,0,0,0,0,0,0,0,0,0,0,0,0,0,0,0,0,0,0,0,0,0,0,0,0,0,0,0,0,0,0,0,0,0,0,0.1303,-0.031,-0.0497,-0.2355,0]}]],[[{"header":{"parameterUnit":"kt","parameterCategory":2,"dx":1,"dy":1,"la1":29.46422004699707,"la2":30.564109802246094,"lo1":-89.4342041015625,"lo2":-87.934326171875,"nx":46,"ny":34,"refTime":"2022-09-27T00:00:00:Z","depth":"4","parameterNumber":2,"parameterNumberName":"U-component_of_CURRENTS"},"data":[-0.0796,-0.0657,-0.055,-0.0454,-0.0342,-0.0171,-0.0064,0,-0.0224,-0.0315,-0.008,-0.0224,-0.0582,-0.0812,-0.1127,-0.1506,-0.1858,-0.2157,-0.2424,-0.2605,-0.26,-0.2312,-0.1762,-0.1191,-0.079,-0.0812,-0.1319,-0.1826,-0.1965,-0.1874,-0.1879,-0.189,-0.1794,-0.1628,-0.142,-0.1212,-0.1004,-0.071,-0.0272,0.0262,0.0812,0.1292,0.1516,0.141,0.1127,0.0966,-0.0593,-0.0577,-0.0534,-0.0507,-0.0507,-0.0598,-0.0822,-0.0966,0,-0.0064,-0.0123,-0.071,-0.1196,-0.1105,-0.1244,-0.1543,-0.1837,-0.2077,-0.2312,-0.2541,-0.2718,-0.2707,-0.2371,-0.1757,-0.1116,-0.0737,-0.079,-0.1191,-0.157,-0.1746,-0.1858,-0.2007,-0.2157,-0.2184,-0.2104,-0.2072,-0.1965,-0.1746,-0.1532,-0.1303,-0.1025,-0.0769,-0.0614,-0.0513,-0.031,0.0187,-0.031,-0.0416,-0.0454,-0.047,-0.047,-0.0448,-0.0416,-0.0363,0.0112,0.04,0.0246,0,-0.0299,-0.0763,-0.1121,-0.149,-0.1794,-0.2002,-0.2189,-0.2371,-0.2547,-0.2659,-0.2573,-0.2189,-0.1554,-0.094,-0.0651,-0.0774,-0.1121,-0.1484,-0.1815,-0.2157,-0.252,-0.2798,-0.2936,-0.3043,-0.3129,-0.3182,-0.3251,-0.3262,-0.3102,-0.2835,-0.2472,-0.1986,-0.1271,-0.0326,0.0021,-0.0171,-0.031,-0.039,-0.0432,-0.0443,-0.0443,-0.0427,-0.0326,-0.0294,-0.0534,-0.0262,0.0027,-0.0443,-0.1084,-0.1591,-0.1837,-0.1991,-0.2109,-0.2216,-0.2328,-0.2435,-0.2461,-0.2306,-0.189,-0.1297,-0.0806,-0.0651,-0.0902,-0.1506,-0.2024,-0.2419,-0.2904,-0.3348,-0.3577,-0.3657,-0.3695,-0.37,-0.3663,-0.3422,-0.3059,-0.2616,-0.2066,-0.1361,-0.0587,0.0091,0.0448,0.0208,-0.0064,-0.0272,-0.0379,-0.0416,-0.0422,-0.0438,-0.0427,-0.0411,-0.0438,-0.0443,-0.0518,-0.095,-0.1789,-0.2162,-0.2024,-0.2034,-0.205,-0.2061,-0.2098,-0.2157,-0.2189,-0.2146,-0.1959,-0.1554,-0.1046,-0.0699,-0.0657,-0.0934,-0.1426,-0.1778,-0.1874,-0.1874,-0.1879,-0.1991,-0.2205,-0.2403,-0.2429,-0.2226,-0.1863,-0.142,-0.094,-0.0464,-0.0032,0.0299,0.0497,0.0459,0.0149,-0.0166,-0.0347,-0.0427,-0.0422,-0.0427,-0.0475,-0.0523,-0.0571,-0.0587,-0.0486,-0.0395,0,-0.0956,-0.1938,-0.1965,-0.1938,-0.1879,-0.1853,-0.1847,-0.1847,-0.1837,-0.1773,-0.157,-0.118,-0.0758,-0.0523,-0.0507,-0.0651,-0.0854,-0.0934,-0.0897,-0.0902,-0.0966,-0.1009,-0.0956,-0.0838,-0.0678,-0.0443,-0.0176,0.0096,0.0379,0.0667,0.0934,0.1084,0.0849,0.0363,-0.0016,-0.0411,-0.0742,-0.0678,-0.0518,-0.0545,-0.0587,-0.0651,-0.0737,-0.086,-0.0924,-0.0908,0,-0.0886,-0.1778,-0.1735,-0.1634,-0.158,-0.1543,-0.1506,-0.1474,-0.1447,-0.1372,-0.118,-0.0865,-0.055,-0.0384,-0.0358,-0.0507,-0.0742,-0.0817,-0.0763,-0.0747,-0.0763,-0.0667,-0.0368,-0.0059,0.0171,0.0379,0.0593,0.0817,0.1036,0.1244,0,-0.0037,0.0091,0.0187,-0.0203,-0.0918,-0.0988,-0.0614,-0.0561,-0.0571,-0.0603,-0.0641,-0.0662,-0.0689,-0.079,-0.0881,0,-0.0785,-0.1474,-0.1345,-0.1292,-0.1255,-0.1201,-0.1153,-0.1116,-0.1078,-0.1025,-0.0892,-0.0641,-0.04,-0.0267,-0.0288,-0.0555,-0.0817,-0.0881,-0.0854,-0.0742,-0.0571,-0.0272,0.0069,0.0283,0.0432,0.0593,0.078,0.0982,0.1169,0,-0.0438,0,0.0251,0.0507,0,-0.0187,-0.04,-0.0438,-0.0464,-0.047,-0.047,-0.047,-0.0571,-0.0673,-0.0721,-0.0763,0,-0.0416,-0.0918,-0.1004,-0.0998,-0.0956,-0.0908,-0.0854,-0.0812,-0.0796,-0.0758,-0.0625,-0.0411,-0.0219,-0.0107,-0.0155,-0.0432,-0.0667,-0.0673,-0.0513,-0.0299,-0.0048,0.024,0.04,0.0459,0.0545,0.0678,0.0854,0.102,0,0.0577,0.0689,0.0694,0,0.0091,-0.0011,-0.0256,-0.0331,-0.0358,-0.0342,-0.0262,-0.0117,-0.0342,-0.0507,-0.0262,-0.0166,0,-0.0502,-0.0918,-0.0806,-0.0774,-0.0753,-0.0721,-0.0678,-0.0635,-0.0598,-0.0566,-0.0497,-0.0347,-0.0166,0.0,0.0128,0.0176,0.0149,0.0139,0.0214,0.032,0.0427,0.0518,0.0545,0.0529,0.0561,0.0667,0.0812,0.0929,0,0,0,0,0,-0.0091,-0.0214,-0.0267,-0.031,-0.0336,-0.0326,-0.024,-0.0171,0,0.008,0.0224,0.0288,0,0,-0.0149,-0.0384,-0.0502,-0.055,-0.0566,-0.0555,-0.0529,-0.0486,-0.0438,-0.0379,-0.0267,-0.0101,0.0075,0.0246,0.0416,0.0582,0.0721,0.0801,0.0796,0.0726,0.0673,0.0635,0.0609,0.0625,0.0705,0.0812,0.0892,0,0,0,0,0,0,-0.008,-0.0219,-0.031,-0.0363,-0.0422,-0.0513,-0.0635,-0.0144,0.0406,0.0571,0.0742,0,0,-0.008,-0.0235,-0.0347,-0.0395,-0.0432,-0.0448,-0.0448,-0.0427,-0.0379,-0.0315,-0.0224,-0.008,0.0091,0.0272,0.0454,0.063,0.0769,0.0812,0.0785,0.0747,0.0731,0.0731,0.0731,0.0753,0.0796,0.0838,0.0854,0,0,0,0,0,0,-0.0101,-0.0267,-0.0342,-0.0363,-0.0374,-0.0368,-0.0336,-0.023,-0.0101,-0.0048,0,0,0,-0.0053,-0.016,-0.0251,-0.0299,-0.0331,-0.0358,-0.0379,-0.0379,-0.0347,-0.0283,-0.0187,-0.0059,0.0085,0.024,0.0406,0.0566,0.0678,0.0699,0.0662,0.0651,0.0699,0.078,0.086,0.0918,0.0945,0.0913,0.0838,0,0,0,0,0,0,-0.0155,-0.0358,-0.0395,-0.0358,-0.032,-0.0315,-0.0352,-0.0443,-0.0667,-0.1116,-0.103,-0.0667,0,-0.0048,-0.0144,-0.0214,-0.024,-0.0267,-0.0299,-0.0326,-0.0347,-0.0326,-0.0262,-0.016,-0.0032,0.0085,0.0198,0.031,0.0411,0.0454,0.0438,0.0427,0.0475,0.0582,0.0721,0.087,0.0988,0.102,0.0945,0.0817,0,0,0,0,0,0,0,-0.0294,-0.047,-0.0262,-0.0144,-0.0112,-0.0128,-0.0176,-0.0262,-0.0352,-0.0299,-0.0203,0,-0.0069,-0.0171,-0.0224,-0.0246,-0.0288,-0.0336,-0.039,-0.0416,-0.04,-0.0347,-0.0251,-0.0133,-0.0021,0.0064,0.0123,0.0149,0.0149,0.0155,0.0203,0.0283,0.039,0.0523,0.0662,0.0785,0.0838,0.0785,0.0673,0,0,0,0.0208,0.0416,0,0,0,0.0139,0.0262,0.0219,0.0176,0.0139,0.0107,0.0091,0.0117,0.0182,0.0224,0,-0.0101,-0.023,-0.0272,-0.031,-0.0384,-0.0475,-0.0561,-0.0609,-0.0609,-0.0566,-0.0475,-0.0347,-0.0224,-0.0128,-0.0091,-0.0085,-0.0085,-0.0053,0.0,0.0059,0.0123,0.0192,0.0267,0.0342,0.0379,0.0379,0.0342,0,0,0.0715,0.1431,0.165,0.2547,0.3203,0.3203,0.2504,0.1324,0.0678,0.0438,0.0347,0.0304,0.0294,0.0352,0.0593,0.078,0,-0.0085,-0.0208,-0.0283,-0.0384,-0.0502,-0.0619,-0.071,-0.0769,-0.0785,-0.0769,-0.071,-0.0609,-0.0502,-0.0416,-0.0379,-0.0374,-0.0358,-0.0315,-0.0251,-0.0182,-0.0123,-0.0096,-0.0112,-0.016,-0.0208,-0.0214,-0.0176,0,0,0.0865,0.1586,0.141,0.1372,0,0,0.024,0.0555,0.0598,0.0518,0.0432,0.0363,0.0283,0.0208,0.0176,0,0.0085,0.0139,0.0,-0.0214,-0.0416,-0.0582,-0.0715,-0.0812,-0.0886,-0.0934,-0.0961,-0.0945,-0.0908,-0.087,-0.0833,-0.0806,-0.0774,-0.0726,-0.0635,-0.0513,-0.0374,-0.0272,-0.0251,-0.0331,-0.0502,-0.0683,-0.0796,-0.0801,0.0982,0.2435,0.2899,0,0,0,0,0,0.0192,0.0481,0.0582,0.0555,0.0481,0.0384,0.0219,-0.0085,-0.0571,-0.0593,-0.0112,0.0096,0.0021,-0.0203,-0.0443,-0.0635,-0.0796,-0.0918,-0.102,-0.11,-0.1164,-0.1196,-0.1201,-0.1185,-0.1148,-0.1111,-0.1057,-0.0982,-0.086,-0.071,-0.0566,-0.0475,-0.047,-0.0566,-0.0737,-0.0961,-0.1191,-0.1319,0.7437,0.5264,0.3225,0.1917,0.1399,0,0,0,0.0182,0.0502,0.0673,0.0667,0.0587,0.0502,0.0336,0.0059,-0.0176,-0.0155,0.0043,0.0155,0.0059,-0.0198,-0.0475,-0.0705,-0.0892,-0.1057,-0.1169,-0.1233,-0.1313,-0.141,-0.1447,-0.1372,-0.1223,-0.1111,-0.1036,-0.0972,-0.0876,-0.079,-0.079,-0.0881,-0.1025,-0.1175,-0.1228,-0.1303,-0.1484,-0.166,0,0.1116,0.2355,0.2312,0.2077,0.2007,0,0,0.0368,0.086,0.0956,0.086,0.0726,0.0726,0.0593,0.0208,-0.0075,-0.0139,-0.0069,0.0005,-0.0064,-0.0304,-0.0561,-0.0769,-0.0966,-0.1175,-0.1319,-0.1324,-0.1356,-0.1474,-0.1575,-0.1538,-0.1361,-0.1175,-0.1057,-0.1025,-0.0966,-0.0966,-0.1132,-0.1415,-0.1757,-0.197,-0.1949,-0.1853,-0.1863,-0.1959,0.7667,0.5408,0.3817,0.3091,0.2856,0.3155,0.331,0.3294,0.3075,0.2301,0.1628,0.1148,0.0833,0.0854,0.0699,0.0192,-0.0139,-0.0304,-0.04,-0.0395,-0.0422,-0.0614,-0.0742,-0.0817,-0.0929,-0.1121,-0.134,-0.1527,-0.149,-0.1313,-0.1351,-0.1463,-0.1527,-0.1447,-0.134,-0.1351,-0.1265,-0.118,-0.1228,-0.141,-0.1954,-0.2285,-0.2221,-0.2242,-0.2146,-0.2136,0.1303,0.2734,0.2915,0.2963,0.3006,0.3161,0.3193,0.2985,0.2958,0.2621,0.1879,0.1265,0.0769,0.0577,0,0,-0.0278,-0.0545,-0.0646,-0.0838,-0.1095,-0.1159,-0.0945,-0.0763,-0.0609,-0.0507,-0.0518,-0.055,0,0,0,-0.0561,-0.1388,-0.1783,-0.1703,-0.1191,-0.0822,-0.0865,-0.078,-0.0561,-0.0422,0,-0.1388,-0.2632,-0.2339,-0.2114,0,0.1073,0.2274,0.2536,0.276,0.2926,0.2969,0.2782,0.2627,0,0,0,0.0219,0.0283,0.0208,0.0294,0,-0.0107,-0.0219,-0.023,0,0,0,0,0,0,0,-0.0304,-0.0464,-0.0374,-0.0635,-0.0806,-0.0758,-0.0758,0,0,-0.0203,-0.0587,-0.0651,-0.047,0.0096,-0.0016,-0.0635,0,0,0,0,0,0.0945,0.2034,0.2365,0.2702,0.291,0.2953,0.3006,0.2792,0.236,0.2221,0.1805,0.1143,0.0838,0.0881,0.1041,0.0876,0.0432,-0.0021,-0.0085,0.008,-0.0032,-0.039,-0.0721,-0.0214,0.0497,0.0577,0.0342,0.0075,-0.0085,-0.0246,-0.0448,-0.0545,-0.0299,-0.0176,-0.0037,0.0198,0,0,0,-0.0315,0.0101,0.071,0.0566,0,0,0,0,0.0726,0.1879,0.2536,0.2899,0.3214,0.3177,0.2798,0.2547,0.2301,0.1863,0.1399,0.1169,0.1148,0.1159,0.103,0.0828,0.0758,0.0689,0.0534,0.0432,0.0395,0.0438,0.0705,0.0785,0.0582,0.0497,0.0438,0.0395,0.0304,0.0262,0.0251,0.0481,0.0721,0.0897,0.1527,0.1949,0.1869,0.0812,-0.024,0.0016,0.0331,0.032,0,0,0,0,0,0,0,0,0,0.0635,0.1682,0.2333,0.2339,0.1879,0.1559,0.1426,0.1388,0.134,0.1212,0.1009,0.0977,0.0934,0.0801,0.0838,0.102,0.1121,0.1089,0,0,0,0,0.0224,0.0635,0.0705,0.0427,0.0272,0,0,0,0,0,-0.0427,-0.0774,-0.0513,-0.0117,0.0117,0,0,0,0,0,0,0,0,0,0,0,0,0.0422,0.1111,0.1468,0.157,0.1564,0.15,0.1351,0.11,0.094,0,0,0,0,0,0,0,0,0,0,0,0,0.023,0.0491,0.0523,0,0,0,0,0,-0.0299,-0.0758,-0.0747,-0.04,-0.0128,0,0,0,0,0,0,0,0,0,0,0,0,0,0,0,0,0,0,0,0,0,0,0,0,0,0,0,0,0,0,0,0,0,0,0,0,0,0,0,0,0,-0.0053,-0.032,-0.0513,-0.0363,-0.0128,0,0,0,0,0,0,0,0,0,0,0,0,0,0,0,0,0,0,0,0,0,0,0,0,0,0,0,0,0,0,0,0,0,0,0,0,0,0,0,0,0,0.0091,0.0139,0.0037,-0.0059,0.0064,0,0,0,0,0,0,0,0,0,0,0,0,0,0,0,0,0,0,0,0,0,0,0,0,0,0,0,0,0,0,0,0,0,0,0,0,0,0,0,0,0,0,0.1265,0.063,0.0048,0.0059,0,0,0,0,0,0,0,0,0,0,0,0,0,0,0,0,0,0,0,0,0,0,0,0,0,0,0,0,0,0,0,0,0,0,0,0,0,0,0,0,0,0,-0.0027,0.0112,0.0048,-0.0011,0,0,0,0,0,0,0,0,0,0,0,0,0,0,0,0,0,0,0,0,0,0,0,0,0,0,0,0,0,0,0,0,0,0,0,0,0,0,0,0,0,0,0.0021,0.0,-0.0283,-0.0347,0,0,0,0,0,0,0,0,0,0,0,0,0,0,0,0,0,0,0,0,0,0,0,0,0,0,0,0,0,0,0,0,0,0,0,0,0,0,0,0,0,0,0.0577,0.0,-0.1287,-0.0998,0]}],[{"header":{"parameterUnit":"kt","parameterCategory":2,"dx":1,"dy":1,"la1":29.46422004699707,"la2":30.564109802246094,"lo1":-89.4342041015625,"lo2":-87.934326171875,"nx":46,"ny":34,"refTime":"2022-09-27T00:00:00:Z","depth":"4","parameterNumber":3,"parameterNumberName":"V-component_of_CURRENTS"},"data":[-0.0149,-0.0438,-0.0641,-0.0828,-0.1014,-0.118,-0.1474,0,-0.0411,-0.1634,-0.1895,-0.1522,-0.2066,-0.2381,-0.2707,-0.2835,-0.2798,-0.2691,-0.2515,-0.2296,-0.1981,-0.1479,-0.0737,-0.0021,0.016,-0.0363,-0.1127,-0.0924,-0.0363,0.0198,0.0566,0.086,0.1153,0.134,0.1468,0.1495,0.1426,0.1399,0.1543,0.1703,0.1762,0.1692,0.1591,0.1516,0.1607,0.1522,-0.0235,-0.0566,-0.0763,-0.0924,-0.1078,-0.1217,-0.1361,-0.0561,0,-0.1757,-0.2029,-0.1244,-0.2109,-0.2269,-0.2429,-0.2579,-0.2557,-0.2488,-0.2349,-0.2194,-0.2007,-0.1709,-0.1228,-0.0523,0.0149,0.0219,-0.0406,-0.087,-0.0742,-0.0214,0.0235,0.0427,0.0598,0.0699,0.086,0.0886,0.0812,0.079,0.0956,0.126,0.1596,0.1885,0.2061,0.2109,0.2061,0.1692,-0.0171,-0.0587,-0.0822,-0.0961,-0.1078,-0.1159,-0.1239,-0.1185,-0.0497,-0.1522,-0.1906,0,-0.189,-0.2056,-0.2104,-0.2269,-0.2317,-0.2274,-0.2162,-0.2024,-0.1863,-0.166,-0.1388,-0.0929,-0.0278,0.0299,0.032,-0.0149,-0.0459,-0.0155,0.0384,0.0534,0.0523,0.0438,0.0427,0.0347,0.024,0.0363,0.0427,0.0763,0.1036,0.1415,0.1564,0.1676,0.1399,0.1132,0.0,-0.0481,-0.0812,-0.0961,-0.1073,-0.1196,-0.1292,-0.1287,-0.1116,-0.1303,-0.1527,-0.0534,-0.1308,-0.1511,-0.1474,-0.1933,-0.2104,-0.2077,-0.1986,-0.1869,-0.1719,-0.1538,-0.1345,-0.1078,-0.0641,-0.0027,0.0481,0.0555,0.0304,0.0219,0.0582,0.0742,0.0651,0.0374,0.0187,0.0043,-0.008,0.0069,-0.008,0.031,0.0432,0.0801,0.0806,0.0902,0.0662,0.0534,0.0198,-0.0251,-0.0651,-0.0886,-0.103,-0.1217,-0.1324,-0.1313,-0.1244,-0.1233,-0.1244,-0.1089,-0.0998,-0.0774,-0.1052,-0.1954,-0.2013,-0.1933,-0.1853,-0.1751,-0.1612,-0.1442,-0.126,-0.1068,-0.079,-0.0336,0.031,0.0838,0.0972,0.0763,0.0828,0.0854,0.0705,0.0502,0.0395,0.0331,0.0224,0.0149,-0.0048,0.0101,0.0133,0.0326,0.0352,0.0374,0.031,0.0187,0.0187,-0.0005,-0.0315,-0.0705,-0.0998,-0.1228,-0.1393,-0.1265,-0.1223,-0.1191,-0.118,-0.1132,-0.103,-0.0641,0,-0.2125,-0.2002,-0.1853,-0.1789,-0.1687,-0.1543,-0.1377,-0.1191,-0.1009,-0.0806,-0.0497,0.0048,0.0763,0.1196,0.1148,0.1036,0.0886,0.0593,0.0694,0.0785,0.0796,0.0667,0.0502,0.0299,0.0214,0.0182,0.0214,0.0267,0.0256,0.0214,0.0123,0.0075,0.0406,0.0155,-0.0422,-0.0988,-0.1185,-0.157,-0.1201,-0.1164,-0.1137,-0.1116,-0.11,-0.1073,-0.0934,-0.0523,0,-0.1965,-0.1799,-0.1805,-0.1666,-0.1511,-0.1345,-0.1159,-0.0956,-0.0763,-0.0534,-0.0123,0.0523,0.1105,0.1249,0.1143,0.095,0.047,0.0625,0.0828,0.0833,0.0689,0.0475,0.0235,0.0208,0.0144,0.0166,0.0219,0.0224,0.0171,0.0144,0,0.0763,0.0422,-0.0208,-0.0886,-0.1143,-0.1863,-0.1212,-0.1148,-0.1111,-0.1073,-0.1036,-0.0982,-0.095,-0.0956,-0.0502,0,-0.1767,-0.1949,-0.1671,-0.149,-0.134,-0.1159,-0.0956,-0.0731,-0.0507,-0.0171,0.0352,0.0908,0.1175,0.1169,0.1041,0.0667,0.0609,0.0796,0.0758,0.0593,0.0192,-0.0053,0.0027,-0.0011,0.0011,0.0075,0.0091,0.0064,0.0085,0,0.055,0,-0.0443,-0.079,0,-0.1703,-0.1201,-0.1153,-0.1105,-0.1084,-0.1041,-0.0966,-0.0822,-0.0886,-0.0956,-0.0427,0,-0.157,-0.1591,-0.1442,-0.1329,-0.118,-0.0993,-0.0747,-0.0486,-0.0171,0.0283,0.0753,0.1057,0.1148,0.1111,0.0982,0.0828,0.0828,0.0673,0.0379,-0.0064,-0.0283,-0.0133,-0.0144,-0.0139,-0.0107,-0.0107,-0.0128,-0.0085,0,0.0294,0.0,-0.0731,0,-0.0075,-0.1121,-0.1111,-0.1137,-0.1116,-0.1143,-0.1137,-0.1089,-0.0705,-0.1111,-0.1046,-0.0966,0,-0.1089,-0.1618,-0.1442,-0.1308,-0.118,-0.103,-0.0801,-0.0502,-0.0192,0.0208,0.0635,0.094,0.1078,0.1105,0.11,0.1052,0.0908,0.0641,0.0246,-0.0128,-0.0251,-0.0133,-0.0144,-0.0182,-0.0224,-0.0283,-0.0315,-0.0262,0,0,0,0,0,-0.0149,-0.0833,-0.1046,-0.1132,-0.1132,-0.1228,-0.1313,-0.1335,0,-0.1431,-0.1292,-0.0924,0,0,-0.1596,-0.1404,-0.1249,-0.1148,-0.103,-0.0844,-0.0555,-0.0246,0.0096,0.0491,0.079,0.095,0.1009,0.1036,0.103,0.0897,0.0603,0.0224,-0.0053,-0.0112,-0.0043,-0.0053,-0.0128,-0.0262,-0.0395,-0.0448,-0.0368,0,0,0,0,0,0,-0.0694,-0.0982,-0.1127,-0.1137,-0.1255,-0.1356,-0.1388,-0.0625,-0.1559,-0.1628,-0.0763,0,0,-0.1388,-0.1313,-0.1175,-0.1089,-0.1004,-0.086,-0.0603,-0.0304,-0.0011,0.0336,0.0625,0.0796,0.086,0.0897,0.0886,0.0774,0.0523,0.0208,-0.0016,-0.0048,0.0016,0.0037,-0.0069,-0.0262,-0.0448,-0.0513,-0.0406,0,0,0,0,0,0,-0.0454,-0.086,-0.1121,-0.1169,-0.1249,-0.1329,-0.1372,-0.1377,-0.1666,-0.1901,0,0,0,-0.1292,-0.1265,-0.1127,-0.1057,-0.0988,-0.0865,-0.0646,-0.0368,-0.0091,0.0198,0.0464,0.063,0.071,0.0737,0.0726,0.063,0.0422,0.0171,-0.0005,-0.0027,0.0043,0.0064,-0.0043,-0.0246,-0.0438,-0.0497,-0.039,0,0,0,0,0,0,-0.0315,-0.0731,-0.1153,-0.1297,-0.1297,-0.1361,-0.1399,-0.1447,-0.1586,-0.1628,-0.04,-0.039,0,-0.1228,-0.1239,-0.1127,-0.1062,-0.0998,-0.0897,-0.0699,-0.0443,-0.0176,0.0069,0.0288,0.0443,0.0534,0.0577,0.0566,0.0475,0.0299,0.0117,0.0005,0.0005,0.0043,0.0021,-0.0091,-0.0246,-0.0374,-0.0406,-0.0294,0,0,0,0,0,0,0,-0.0662,-0.1324,-0.1543,-0.141,-0.1383,-0.1372,-0.1377,-0.1383,-0.1292,-0.095,-0.0918,0,-0.1153,-0.1223,-0.1169,-0.11,-0.1036,-0.094,-0.0769,-0.0545,-0.031,-0.0107,0.0064,0.0203,0.032,0.0395,0.04,0.0315,0.0187,0.0096,0.0069,0.0064,0.0021,-0.008,-0.0208,-0.0299,-0.0331,-0.0299,-0.0155,0,0,0,-0.0171,0.0283,0,0,0,-0.1591,-0.1703,-0.15,-0.1393,-0.1372,-0.1372,-0.1377,-0.1324,-0.1185,-0.0945,0,-0.102,-0.1201,-0.1223,-0.1143,-0.1046,-0.094,-0.079,-0.0619,-0.0438,-0.0299,-0.0171,-0.0043,0.0107,0.0235,0.0283,0.0246,0.0187,0.0176,0.0187,0.0133,-0.0005,-0.0182,-0.0336,-0.0406,-0.0368,-0.0256,-0.0064,0,0,-0.0753,-0.0331,0.0224,-0.0774,0.0,0.0,-0.0876,-0.1175,-0.1335,-0.1345,-0.1367,-0.1399,-0.1442,-0.1463,-0.1522,-0.0838,0,-0.0849,-0.118,-0.1233,-0.1121,-0.0977,-0.0854,-0.0731,-0.0619,-0.0513,-0.0432,-0.0326,-0.0214,-0.0048,0.0139,0.0262,0.0299,0.0299,0.031,0.0294,0.0182,-0.0011,-0.0214,-0.0379,-0.0459,-0.0416,-0.0299,-0.0075,0,0,-0.2547,-0.0315,-0.0117,-0.1543,0,0,-0.031,-0.0742,-0.1132,-0.1281,-0.1361,-0.141,-0.1452,-0.1532,-0.1687,0,-0.0117,-0.0774,-0.1111,-0.1132,-0.0977,-0.0806,-0.0694,-0.063,-0.0571,-0.0507,-0.0454,-0.0368,-0.0278,-0.0117,0.0101,0.0304,0.0416,0.0438,0.0411,0.0347,0.0187,-0.0016,-0.0187,-0.031,-0.0368,-0.0358,-0.0315,-0.0139,-0.1127,-0.0395,-0.1922,0,0,0,0,0,-0.0806,-0.0977,-0.1143,-0.1255,-0.1356,-0.1383,-0.1335,-0.1319,-0.1276,-0.0352,-0.0491,-0.0849,-0.0993,-0.0918,-0.0731,-0.0566,-0.0518,-0.0534,-0.0518,-0.0438,-0.0368,-0.0304,-0.0251,-0.0133,0.0096,0.0352,0.0523,0.0545,0.0464,0.0342,0.0133,-0.0053,-0.0144,-0.0176,-0.0171,-0.0149,-0.0192,-0.0128,-0.2258,0.0715,0.0699,0.0641,0.0876,0,0,0,-0.1271,-0.1308,-0.1233,-0.1233,-0.1324,-0.1372,-0.1132,-0.0961,-0.0886,-0.0849,-0.0945,-0.1025,-0.0886,-0.0651,-0.0443,-0.0315,-0.0336,-0.0443,-0.0464,-0.0342,-0.0203,-0.0198,-0.0203,-0.0208,0.0037,0.0342,0.0587,0.0587,0.0443,0.0283,0.0075,-0.0048,-0.0043,-0.0037,-0.0085,0.008,0.0011,-0.0021,0,0.1052,0.1393,0.1442,0.1805,0.1207,0,0,-0.1949,-0.166,-0.1292,-0.1132,-0.1228,-0.1447,-0.0865,-0.0614,-0.0753,-0.1078,-0.1319,-0.1329,-0.0822,-0.0352,-0.0155,-0.008,-0.0144,-0.0315,-0.0379,-0.0246,0.0021,-0.0059,-0.0149,-0.0374,-0.0112,0.0235,0.0587,0.0539,0.0278,0.0166,0.0107,0.016,0.024,0.0037,-0.0176,0.0171,0.0166,0.0091,0.1543,0.1367,0.1815,0.1879,0.1842,0.197,0.0171,-0.0144,-0.1943,-0.1345,-0.0961,-0.0812,-0.103,-0.1623,-0.0694,-0.0427,-0.0609,-0.1175,-0.149,-0.1628,-0.078,-0.008,0.0053,0.0064,0.0027,-0.0096,-0.0192,0.0016,0.0166,0.0037,-0.0085,-0.04,-0.0149,0.0166,0.0491,0.0363,0.0053,0.0133,0.0288,0.0566,0.0988,0.0107,-0.0037,0.0149,0.0224,0.0139,0.3081,0.2723,0.2547,0.2194,0.1762,0.1303,0.0352,-0.0219,-0.1644,-0.0865,-0.063,-0.0577,-0.0705,-0.1393,0,0,-0.0534,-0.1223,-0.1468,-0.1463,-0.0705,0.0059,0.0144,0.0128,0.0117,0.0053,-0.0027,-0.0117,0,0,0,0.0278,0.0198,0.0593,0.0454,0.031,0.0358,0.0448,0.0475,0.0614,0.1276,0,0.1906,0.0155,0.0246,0.0149,0,0.2589,0.2435,0.2157,0.1596,0.0977,0.039,0.0048,-0.0331,0,0,0,-0.0785,-0.0913,-0.0112,0.0166,0,-0.1159,-0.1329,-0.1287,0,0,0,0,0,0,0,-0.031,-0.0203,0.0043,0.0208,0.0726,0.0336,0.047,0,0,0.0806,0.0806,0.0411,0.039,0.103,0.0609,0.331,0,0,0,0,0,0.228,0.189,0.1292,0.0721,0.0368,0.0326,0.103,0.0368,0.0224,0.0133,-0.0657,-0.0534,-0.016,0.0187,-0.008,-0.0812,-0.1009,-0.1046,-0.0214,-0.0021,0.0059,-0.0016,-0.0379,-0.0619,-0.0043,0.0107,-0.0123,0.0133,0.0454,0.0587,0.0342,0.0053,-0.0283,-0.0043,0.0689,0.1105,0,0,0,0.1436,0.2152,-0.0037,-0.0059,0,0,0,0,0.1714,0.1084,0.0571,0.0326,0.0406,0.1244,0.0865,0.0507,0.0336,-0.0043,-0.0149,-0.0059,0.0005,-0.0155,-0.0464,-0.0641,-0.0806,-0.032,-0.0005,0.0133,0.0128,-0.032,-0.1292,-0.008,0.0352,0.0166,0.0182,0.0566,0.0555,0.0432,-0.0011,-0.0758,-0.0085,0.0395,0.118,0.0,0.0,0.0993,0.1634,0.1004,-0.0091,-0.0128,0,0,0,0,0,0,0,0,0,0.1554,0.0988,0.0561,0.0715,0.04,0.0107,0.0005,-0.0032,-0.0123,-0.0278,-0.0432,-0.0966,-0.0219,0.0027,0.0149,0.0299,0.0128,-0.1345,0,0,0,0,0.0641,0.0529,0.0518,0.0032,-0.0753,0,0,0,0,0,0.2253,0.1527,0.0539,-0.0278,-0.0256,0,0,0,0,0,0,0,0,0,0,0,0,0.102,0.063,0.0208,0.0027,-0.0032,-0.0096,-0.0198,-0.0326,-0.1073,0,0,0,0,0,0,0,0,0,0,0,0,0.0619,0.0166,-0.055,0,0,0,0,0,0.2611,0.1607,0.0256,-0.0603,-0.0507,0,0,0,0,0,0,0,0,0,0,0,0,0,0,0,0,0,0,0,0,0,0,0,0,0,0,0,0,0,0,0,0,0,0,0,0,0,0,0,0,0,0.252,0.1938,0.0144,-0.0838,-0.0657,0,0,0,0,0,0,0,0,0,0,0,0,0,0,0,0,0,0,0,0,0,0,0,0,0,0,0,0,0,0,0,0,0,0,0,0,0,0,0,0,0,0.204,0.204,0.0214,-0.0892,-0.0742,0,0,0,0,0,0,0,0,0,0,0,0,0,0,0,0,0,0,0,0,0,0,0,0,0,0,0,0,0,0,0,0,0,0,0,0,0,0,0,0,0,0,0.2125,0.0502,-0.0678,-0.0902,0,0,0,0,0,0,0,0,0,0,0,0,0,0,0,0,0,0,0,0,0,0,0,0,0,0,0,0,0,0,0,0,0,0,0,0,0,0,0,0,0,0,0.2109,0.0448,-0.031,-0.1078,0,0,0,0,0,0,0,0,0,0,0,0,0,0,0,0,0,0,0,0,0,0,0,0,0,0,0,0,0,0,0,0,0,0,0,0,0,0,0,0,0,0,0.1709,-0.0005,0.0069,-0.1201,0,0,0,0,0,0,0,0,0,0,0,0,0,0,0,0,0,0,0,0,0,0,0,0,0,0,0,0,0,0,0,0,0,0,0,0,0,0,0,0,0,0,0.1468,0.0646,0.0411,-0.1484,0]}]],[[{"header":{"parameterUnit":"kt","parameterCategory":2,"dx":1,"dy":1,"la1":29.46422004699707,"la2":30.564109802246094,"lo1":-89.4342041015625,"lo2":-87.934326171875,"nx":46,"ny":34,"refTime":"2022-09-27T00:00:00:Z","depth":"6","parameterNumber":2,"parameterNumberName":"U-component_of_CURRENTS"},"data":[-0.0699,-0.055,-0.0422,-0.0304,-0.0203,-0.0075,0.0005,0,-0.016,-0.0208,-0.0027,-0.0187,-0.0518,-0.0758,-0.1073,-0.141,-0.1741,-0.204,-0.2301,-0.2477,-0.2467,-0.2184,-0.1644,-0.1084,-0.0694,-0.0731,-0.1239,-0.1741,-0.1869,-0.1773,-0.1773,-0.1778,-0.1682,-0.1516,-0.1308,-0.11,-0.0892,-0.0593,-0.016,0.0374,0.0929,0.1415,0.1644,0.1554,0.1276,0.1121,-0.0518,-0.0481,-0.0411,-0.0363,-0.0384,-0.0507,-0.0737,-0.0876,0,-0.0027,-0.008,-0.0646,-0.1095,-0.1036,-0.118,-0.1436,-0.1709,-0.1959,-0.2189,-0.2403,-0.2573,-0.2563,-0.2242,-0.1644,-0.1014,-0.0646,-0.071,-0.1111,-0.1484,-0.1644,-0.1751,-0.1895,-0.2045,-0.2066,-0.1986,-0.1965,-0.1853,-0.1628,-0.1415,-0.118,-0.0902,-0.0641,-0.0475,-0.0368,-0.0149,0.0347,-0.0246,-0.0331,-0.0336,-0.0326,-0.0342,-0.0363,-0.0342,-0.0283,0.0182,0.0454,0.0299,0,-0.0262,-0.071,-0.1073,-0.1393,-0.1666,-0.1879,-0.2066,-0.2242,-0.2403,-0.2509,-0.2435,-0.2066,-0.1447,-0.0844,-0.0561,-0.0689,-0.1041,-0.1393,-0.1709,-0.2045,-0.2403,-0.2675,-0.2808,-0.2915,-0.2995,-0.3049,-0.3113,-0.3118,-0.2963,-0.2691,-0.2322,-0.1837,-0.1121,-0.0187,0.0101,-0.0091,-0.0208,-0.0251,-0.0299,-0.0347,-0.0358,-0.0336,-0.023,-0.0198,-0.0459,-0.0214,0.0064,-0.0406,-0.1046,-0.15,-0.1703,-0.1858,-0.1981,-0.2088,-0.2194,-0.2285,-0.2312,-0.2173,-0.1778,-0.1201,-0.0721,-0.0566,-0.0822,-0.1415,-0.1917,-0.229,-0.2766,-0.3203,-0.3428,-0.3508,-0.3545,-0.3545,-0.3497,-0.3268,-0.291,-0.2472,-0.1917,-0.1223,-0.0454,0.0214,0.0486,0.0272,0.0027,-0.0144,-0.024,-0.0304,-0.0326,-0.0336,-0.0336,-0.0336,-0.0379,-0.0406,-0.0481,-0.0908,-0.173,-0.2045,-0.1863,-0.189,-0.1922,-0.1938,-0.197,-0.2018,-0.2045,-0.2013,-0.1837,-0.1452,-0.0956,-0.0614,-0.0577,-0.0844,-0.1319,-0.1655,-0.1746,-0.1741,-0.1746,-0.1858,-0.2072,-0.2258,-0.229,-0.2088,-0.1725,-0.1281,-0.0806,-0.0331,0.0091,0.0416,0.0534,0.0518,0.023,-0.0059,-0.0166,-0.023,-0.0283,-0.0336,-0.0411,-0.047,-0.0529,-0.055,-0.0443,-0.0352,0,-0.087,-0.1773,-0.181,-0.1805,-0.1757,-0.1735,-0.1725,-0.1719,-0.1703,-0.165,-0.1463,-0.1089,-0.0673,-0.0438,-0.0416,-0.0555,-0.0742,-0.0812,-0.0774,-0.078,-0.0844,-0.0886,-0.0828,-0.071,-0.0555,-0.032,-0.0053,0.0214,0.0497,0.0785,0.1046,0.1068,0.086,0.0395,0.0053,-0.0053,-0.0203,-0.0363,-0.0422,-0.0502,-0.055,-0.0603,-0.0678,-0.0796,-0.0838,-0.0817,0,-0.0806,-0.1623,-0.1602,-0.1522,-0.1474,-0.1431,-0.1388,-0.1356,-0.1329,-0.126,-0.1084,-0.0769,-0.0459,-0.0288,-0.0256,-0.0395,-0.0619,-0.0689,-0.0641,-0.0625,-0.0635,-0.0539,-0.0246,0.0064,0.0288,0.0491,0.0705,0.0929,0.1148,0.1351,0,-0.0027,0.0107,0.023,0.0208,-0.0198,-0.0582,-0.0545,-0.0539,-0.0539,-0.0555,-0.0571,-0.0598,-0.0619,-0.0699,-0.0774,0,-0.071,-0.1345,-0.1239,-0.1196,-0.1153,-0.11,-0.1046,-0.1004,-0.0972,-0.0924,-0.079,-0.0545,-0.0304,-0.0166,-0.0182,-0.0432,-0.0689,-0.0758,-0.0731,-0.0619,-0.0448,-0.0149,0.0187,0.0395,0.0545,0.0705,0.0892,0.1089,0.1281,0,-0.0384,0,0.0283,0.0566,0,-0.0155,-0.0368,-0.0432,-0.0432,-0.0427,-0.04,-0.0395,-0.0513,-0.0587,-0.0609,-0.0651,0,-0.0368,-0.0828,-0.0913,-0.0908,-0.0865,-0.0806,-0.0747,-0.071,-0.0694,-0.0657,-0.0523,-0.031,-0.0117,0.0,-0.0043,-0.0315,-0.055,-0.055,-0.039,-0.0182,0.0069,0.0352,0.0507,0.0571,0.0651,0.079,0.0966,0.1132,0,0.0593,0.0705,0.0705,0,0.0144,0.0048,-0.0256,-0.0331,-0.0331,-0.0294,-0.0198,-0.0032,-0.0283,-0.0454,-0.0149,-0.0037,0,-0.0448,-0.0828,-0.0721,-0.0689,-0.0667,-0.063,-0.0582,-0.0539,-0.0502,-0.047,-0.039,-0.024,-0.0059,0.0101,0.0235,0.0283,0.0256,0.0251,0.0331,0.0443,0.0545,0.063,0.0651,0.0635,0.0673,0.078,0.0924,0.1041,0,0,0,0,0,-0.0053,-0.0176,-0.0283,-0.0315,-0.031,-0.0272,-0.0176,-0.0101,0,0.0112,0.0315,0.04,0,0,-0.0117,-0.031,-0.0422,-0.047,-0.0481,-0.047,-0.0438,-0.0395,-0.0342,-0.0278,-0.016,0.0005,0.0182,0.0347,0.0518,0.0683,0.0822,0.0913,0.0908,0.0844,0.079,0.0742,0.071,0.0731,0.0812,0.0918,0.0998,0,0,0,0,0,0,-0.008,-0.0235,-0.032,-0.0336,-0.0363,-0.0438,-0.055,-0.0085,0.0454,0.0662,0.0854,0,0,-0.0048,-0.016,-0.0262,-0.032,-0.0352,-0.0363,-0.0363,-0.0336,-0.0283,-0.0219,-0.0117,0.0021,0.0198,0.0374,0.0555,0.0731,0.087,0.0924,0.0902,0.0865,0.0849,0.0838,0.0833,0.0854,0.0897,0.0945,0.0961,0,0,0,0,0,0,-0.0101,-0.0272,-0.0363,-0.0342,-0.031,-0.0304,-0.0267,-0.016,-0.0016,0.0048,0,0,0,-0.0021,-0.0091,-0.0176,-0.0219,-0.0251,-0.0278,-0.0294,-0.0294,-0.0256,-0.0192,-0.0091,0.0043,0.0187,0.0342,0.0507,0.0667,0.0785,0.0812,0.0785,0.0769,0.0812,0.0881,0.0956,0.1014,0.1041,0.1014,0.0945,0,0,0,0,0,0,-0.0144,-0.0352,-0.0422,-0.0347,-0.0251,-0.024,-0.0283,-0.0368,-0.0571,-0.0988,-0.0929,-0.0598,0,-0.0016,-0.0069,-0.0139,-0.0166,-0.0192,-0.0219,-0.024,-0.0256,-0.0235,-0.0171,-0.0069,0.0059,0.0187,0.0299,0.0416,0.0518,0.0571,0.0566,0.0555,0.0593,0.0689,0.0817,0.0966,0.1084,0.1116,0.1046,0.0918,0,0,0,0,0,0,0,-0.0278,-0.0481,-0.0272,-0.0085,-0.0043,-0.0069,-0.0117,-0.0198,-0.0278,-0.0203,-0.0101,0,-0.0032,-0.0096,-0.0144,-0.016,-0.0198,-0.0251,-0.0299,-0.0326,-0.031,-0.0251,-0.0155,-0.0037,0.008,0.0171,0.0235,0.0272,0.0278,0.0288,0.0326,0.0395,0.0491,0.0614,0.0753,0.0881,0.0929,0.0886,0.0774,0,0,0,0.0176,0.0352,0,0,0,0.0107,0.0219,0.0235,0.0224,0.0187,0.0155,0.0149,0.0171,0.0251,0.031,0,-0.0064,-0.0149,-0.0187,-0.0219,-0.0288,-0.0379,-0.047,-0.0518,-0.0518,-0.047,-0.0379,-0.0246,-0.0112,-0.0016,0.0032,0.0043,0.0048,0.0075,0.0117,0.0166,0.0219,0.0283,0.0363,0.0438,0.0481,0.0475,0.0443,0,0,0.0651,0.1228,0.1426,0.2306,0.2904,0.2904,0.2258,0.1196,0.0651,0.0459,0.0384,0.0347,0.0342,0.04,0.0646,0.0838,0,-0.0043,-0.0123,-0.0187,-0.0288,-0.0406,-0.0523,-0.0619,-0.0673,-0.0689,-0.0673,-0.0609,-0.0507,-0.039,-0.0299,-0.0256,-0.024,-0.0224,-0.0187,-0.0133,-0.0069,-0.0021,0.0005,-0.0011,-0.0059,-0.0101,-0.0107,-0.0075,0,0,0.0796,0.142,0.1281,0.1319,0,0,0.023,0.0545,0.0603,0.0534,0.0464,0.0406,0.0331,0.0256,0.0224,0,0.0112,0.0203,0.008,-0.0117,-0.032,-0.0491,-0.0625,-0.0726,-0.0796,-0.0838,-0.0854,-0.0844,-0.0806,-0.0758,-0.071,-0.0673,-0.0641,-0.0593,-0.0513,-0.0395,-0.0272,-0.0171,-0.0149,-0.023,-0.0395,-0.0577,-0.0689,-0.0689,0.087,0.2146,0.2552,0,0,0,0,0,0.0198,0.0491,0.0603,0.0582,0.0513,0.0427,0.0267,-0.0032,-0.0513,-0.0529,-0.0048,0.0171,0.0101,-0.0117,-0.0352,-0.0555,-0.071,-0.0828,-0.0918,-0.0988,-0.1052,-0.1089,-0.1095,-0.1073,-0.103,-0.0982,-0.0924,-0.0854,-0.0747,-0.0609,-0.047,-0.0379,-0.0374,-0.0464,-0.063,-0.0854,-0.1078,-0.1207,0.6188,0.4298,0.268,0.1676,0.1271,0,0,0,0.0203,0.0539,0.0699,0.0699,0.0614,0.0534,0.039,0.0117,-0.0112,-0.0091,0.0107,0.0224,0.0133,-0.0117,-0.0395,-0.0625,-0.0806,-0.095,-0.1052,-0.1111,-0.1201,-0.1297,-0.1335,-0.1255,-0.1105,-0.0988,-0.0913,-0.0854,-0.0774,-0.0699,-0.0694,-0.0769,-0.0908,-0.1057,-0.1116,-0.1191,-0.1372,-0.1548,0,0.0801,0.1725,0.1719,0.1612,0.1628,0,0,0.0379,0.0865,0.0961,0.0881,0.0753,0.0737,0.0609,0.0267,0.0,-0.0053,0.0032,0.0112,0.0032,-0.0219,-0.0481,-0.0689,-0.087,-0.1052,-0.1175,-0.1196,-0.1249,-0.1361,-0.1447,-0.1404,-0.1233,-0.1046,-0.0929,-0.0892,-0.0838,-0.0838,-0.0988,-0.126,-0.1596,-0.1805,-0.1794,-0.1725,-0.1741,-0.1837,0.6305,0.4245,0.283,0.2216,0.2125,0.2573,0.2867,0.2979,0.2824,0.213,0.1548,0.1137,0.0865,0.0849,0.0667,0.024,-0.0027,-0.016,-0.0214,-0.0246,-0.0326,-0.0523,-0.0657,-0.0731,-0.0822,-0.0988,-0.1191,-0.141,-0.1404,-0.1217,-0.1212,-0.1292,-0.1372,-0.1297,-0.1175,-0.1127,-0.1036,-0.0972,-0.1036,-0.1223,-0.1703,-0.2002,-0.1997,-0.2098,-0.2002,-0.1997,0.1057,0.2136,0.212,0.2098,0.2226,0.2547,0.275,0.2691,0.2696,0.2322,0.1666,0.1201,0.0796,0.0619,0,0,-0.0171,-0.0336,-0.04,-0.0715,-0.1057,-0.11,-0.0876,-0.0694,-0.0534,-0.0422,-0.0416,-0.0438,0,0,0,-0.047,-0.1169,-0.1559,-0.142,-0.0812,-0.0491,-0.0667,-0.0587,-0.0331,-0.0149,0,-0.1287,-0.2456,-0.2189,-0.1975,0,0.0924,0.1847,0.1917,0.2125,0.2403,0.2541,0.2419,0.229,0,0,0,0.0246,0.0336,0.0256,0.0342,0,-0.0016,-0.0053,-0.0069,0,0,0,0,0,0,0,-0.0214,-0.0326,-0.0288,-0.0539,-0.0625,-0.0454,-0.039,0,0,-0.0096,-0.0443,-0.0518,-0.0117,0.0603,0.047,-0.0155,0,0,0,0,0,0.0844,0.1746,0.1965,0.2285,0.2515,0.2536,0.252,0.2306,0.1965,0.1927,0.1671,0.1143,0.086,0.0902,0.1057,0.0918,0.0502,0.0027,-0.0069,0.0096,0.0027,-0.0059,0.0133,0.0518,0.0731,0.0737,0.0555,0.0235,0.0021,-0.0048,-0.0139,-0.0246,-0.0107,-0.0016,0.0123,0.031,0,0,0,-0.0101,0.0416,0.0892,0.0705,0,0,0,0,0.0694,0.1773,0.2365,0.2675,0.2894,0.2734,0.2285,0.2034,0.1895,0.1676,0.1367,0.1175,0.1148,0.1159,0.1052,0.0854,0.0785,0.0694,0.0545,0.0502,0.0555,0.0817,0.0876,0.0352,0.0171,0.0454,0.0523,0.0448,0.0406,0.0432,0.0497,0.0678,0.079,0.0929,0.1527,0.1943,0.189,0.1078,0.0224,0.0379,0.0529,0.0432,0,0,0,0,0,0,0,0,0,0.0603,0.1543,0.2018,0.1943,0.1607,0.1447,0.1388,0.1361,0.1319,0.1207,0.102,0.0982,0.0929,0.0801,0.0838,0.102,0.1458,0.1767,0,0,0,0,0.0256,0.0683,0.078,0.0603,0.0513,0,0,0,0,0,-0.0144,-0.0203,-0.0059,0.0091,0.0208,0,0,0,0,0,0,0,0,0,0,0,0,0.0422,0.1095,0.1442,0.1538,0.1527,0.1463,0.1329,0.1095,0.0945,0,0,0,0,0,0,0,0,0,0,0,0,0.0267,0.0566,0.0598,0,0,0,0,0,0.0091,-0.0064,-0.0267,-0.0149,-0.0021,0,0,0,0,0,0,0,0,0,0,0,0,0,0,0,0,0,0,0,0,0,0,0,0,0,0,0,0,0,0,0,0,0,0,0,0,0,0,0,0,0,0.0283,0.032,-0.0005,-0.0037,0.0016,0,0,0,0,0,0,0,0,0,0,0,0,0,0,0,0,0,0,0,0,0,0,0,0,0,0,0,0,0,0,0,0,0,0,0,0,0,0,0,0,0,0.0331,0.0625,0.0507,0.0352,0.0246,0,0,0,0,0,0,0,0,0,0,0,0,0,0,0,0,0,0,0,0,0,0,0,0,0,0,0,0,0,0,0,0,0,0,0,0,0,0,0,0,0,0,0.1442,0.1089,0.0561,0.0278,0,0,0,0,0,0,0,0,0,0,0,0,0,0,0,0,0,0,0,0,0,0,0,0,0,0,0,0,0,0,0,0,0,0,0,0,0,0,0,0,0,0,0.0272,0.0689,0.0566,0.024,0,0,0,0,0,0,0,0,0,0,0,0,0,0,0,0,0,0,0,0,0,0,0,0,0,0,0,0,0,0,0,0,0,0,0,0,0,0,0,0,0,0,0.0384,0.0662,0.0352,0.0021,0,0,0,0,0,0,0,0,0,0,0,0,0,0,0,0,0,0,0,0,0,0,0,0,0,0,0,0,0,0,0,0,0,0,0,0,0,0,0,0,0,0,0.0651,0.0817,-0.0069,-0.0432,0]}],[{"header":{"parameterUnit":"kt","parameterCategory":2,"dx":1,"dy":1,"la1":29.46422004699707,"la2":30.564109802246094,"lo1":-89.4342041015625,"lo2":-87.934326171875,"nx":46,"ny":34,"refTime":"2022-09-27T00:00:00:Z","depth":"6","parameterNumber":3,"parameterNumberName":"V-component_of_CURRENTS"},"data":[0.0048,-0.0235,-0.0411,-0.0555,-0.0721,-0.0908,-0.1223,0,-0.0272,-0.1372,-0.1628,-0.1281,-0.1783,-0.2056,-0.2392,-0.2557,-0.2541,-0.2456,-0.2301,-0.2098,-0.1789,-0.1297,-0.0566,0.0144,0.0331,-0.0176,-0.094,-0.0747,-0.0192,0.0363,0.0737,0.103,0.1324,0.1506,0.1634,0.166,0.1596,0.157,0.1719,0.1885,0.1949,0.1879,0.1783,0.1719,0.1821,0.1741,-0.0075,-0.0384,-0.0555,-0.0683,-0.0822,-0.0972,-0.1127,-0.0432,0,-0.1463,-0.1741,-0.1014,-0.1799,-0.1943,-0.2109,-0.229,-0.2301,-0.2248,-0.213,-0.1991,-0.181,-0.1516,-0.1046,-0.0352,0.0315,0.039,-0.0224,-0.0689,-0.0571,-0.0053,0.04,0.0593,0.0763,0.0865,0.102,0.1046,0.0977,0.095,0.1127,0.1442,0.1789,0.2077,0.2264,0.2322,0.2285,0.1917,-0.0021,-0.0427,-0.0635,-0.0747,-0.0849,-0.0924,-0.0998,-0.0929,-0.0363,-0.1244,-0.1618,0,-0.1596,-0.1751,-0.1799,-0.1986,-0.2066,-0.204,-0.1938,-0.1815,-0.1666,-0.1468,-0.1201,-0.0753,-0.0112,0.0459,0.0486,0.0021,-0.0288,0.0011,0.055,0.0705,0.0699,0.0619,0.0603,0.0523,0.0427,0.0545,0.0614,0.095,0.1228,0.1612,0.1773,0.1885,0.1618,0.1335,0.0166,-0.032,-0.063,-0.0763,-0.0865,-0.0966,-0.1036,-0.1014,-0.0838,-0.1041,-0.1271,-0.0432,-0.1095,-0.1287,-0.1244,-0.1687,-0.1858,-0.1837,-0.1762,-0.1655,-0.1516,-0.1351,-0.1164,-0.0902,-0.047,0.0139,0.0641,0.0715,0.047,0.039,0.0753,0.0918,0.0833,0.0561,0.0379,0.0235,0.0123,0.0267,0.0133,0.0507,0.0635,0.1004,0.102,0.1105,0.087,0.0726,0.0379,-0.008,-0.0464,-0.0699,-0.0833,-0.0972,-0.1046,-0.103,-0.0982,-0.1004,-0.1041,-0.0908,-0.0828,-0.0614,-0.0876,-0.1725,-0.1767,-0.1692,-0.1628,-0.1538,-0.1404,-0.1249,-0.1078,-0.0897,-0.0625,-0.0171,0.0464,0.0993,0.1132,0.0929,0.0998,0.103,0.0881,0.0683,0.0577,0.0513,0.0406,0.0342,0.0149,0.0299,0.0331,0.0523,0.0555,0.0571,0.0507,0.0384,0.0395,0.0198,-0.0123,-0.0523,-0.0763,-0.0918,-0.1057,-0.1009,-0.1014,-0.1014,-0.102,-0.0966,-0.086,-0.0475,0,-0.189,-0.1757,-0.1612,-0.1564,-0.1468,-0.1335,-0.118,-0.1009,-0.0838,-0.0641,-0.0342,0.0208,0.0918,0.1345,0.1313,0.1207,0.1052,0.0758,0.086,0.0945,0.0961,0.0833,0.0667,0.047,0.039,0.0358,0.039,0.0448,0.0438,0.0395,0.031,0.0315,0.0577,0.0304,-0.0256,-0.0619,-0.0667,-0.1095,-0.0982,-0.1009,-0.0998,-0.0982,-0.0945,-0.0897,-0.0747,-0.0432,0,-0.1714,-0.1564,-0.1575,-0.1447,-0.1303,-0.1153,-0.0972,-0.0785,-0.0603,-0.0384,0.0021,0.0673,0.1255,0.141,0.1308,0.1121,0.0641,0.079,0.0993,0.0998,0.0854,0.0635,0.0395,0.0368,0.0304,0.032,0.0374,0.0384,0.0336,0.0315,0,0.0854,0.0523,-0.0059,-0.0363,-0.0464,-0.1271,-0.103,-0.1025,-0.0993,-0.0956,-0.0902,-0.0822,-0.0774,-0.079,-0.0411,0,-0.1532,-0.1714,-0.1458,-0.1287,-0.1148,-0.0977,-0.0785,-0.0577,-0.0358,-0.0032,0.0497,0.1057,0.1329,0.1335,0.1212,0.0838,0.0774,0.0961,0.0924,0.0753,0.0352,0.0107,0.0182,0.0139,0.016,0.0219,0.024,0.0219,0.0246,0,0.0625,0,-0.0294,-0.0203,0,-0.126,-0.1062,-0.1036,-0.0993,-0.0966,-0.0918,-0.0833,-0.0667,-0.0737,-0.0796,-0.0347,0,-0.1361,-0.1388,-0.1255,-0.1143,-0.1004,-0.0828,-0.0593,-0.0336,-0.0032,0.0416,0.0892,0.1207,0.1303,0.1271,0.1143,0.0988,0.0988,0.0833,0.0539,0.0096,-0.0128,0.0021,0.0011,0.0011,0.0048,0.0048,0.0027,0.0069,0,0.0363,0.0,-0.0587,0,0.0043,-0.0908,-0.0972,-0.1009,-0.0998,-0.102,-0.1009,-0.0956,-0.0561,-0.0956,-0.0897,-0.0806,0,-0.0908,-0.142,-0.126,-0.1137,-0.1014,-0.087,-0.0646,-0.0358,-0.0053,0.0342,0.0769,0.1073,0.1217,0.1249,0.1249,0.1201,0.1057,0.079,0.0395,0.0016,-0.0107,0.0016,0.0005,-0.0027,-0.0069,-0.0123,-0.016,-0.0101,0,0,0,0,0,0.008,-0.0678,-0.0886,-0.0977,-0.0998,-0.1084,-0.1159,-0.118,0,-0.1255,-0.1111,-0.0737,0,0,-0.1404,-0.1239,-0.1089,-0.0988,-0.0876,-0.0694,-0.0411,-0.0107,0.0235,0.0625,0.0918,0.1084,0.1143,0.1169,0.1169,0.1036,0.0747,0.0363,0.0085,0.0032,0.0101,0.0091,0.0016,-0.0112,-0.024,-0.0294,-0.0208,0,0,0,0,0,0,-0.0545,-0.079,-0.0934,-0.0977,-0.1095,-0.1191,-0.1223,-0.0561,-0.1383,-0.142,-0.055,0,0,-0.1217,-0.1148,-0.102,-0.094,-0.086,-0.0715,-0.0464,-0.0171,0.0128,0.0464,0.0753,0.0918,0.0988,0.1025,0.1014,0.0908,0.0657,0.0347,0.0128,0.0096,0.016,0.0176,0.0075,-0.0117,-0.0304,-0.0363,-0.0256,0,0,0,0,0,0,-0.031,-0.0657,-0.0886,-0.0972,-0.1068,-0.1148,-0.1191,-0.1212,-0.1479,-0.1687,0,0,0,-0.1127,-0.11,-0.0977,-0.0908,-0.0844,-0.0721,-0.0507,-0.023,0.0043,0.0331,0.0593,0.0753,0.0833,0.0865,0.0854,0.0758,0.0561,0.0315,0.0144,0.0123,0.0187,0.0203,0.0091,-0.0112,-0.0299,-0.0358,-0.0246,0,0,0,0,0,0,-0.0182,-0.0534,-0.0865,-0.1025,-0.1084,-0.1164,-0.1207,-0.1265,-0.1404,-0.1452,-0.0352,-0.0336,0,-0.1068,-0.1073,-0.0977,-0.0908,-0.0849,-0.0742,-0.055,-0.0299,-0.0043,0.0203,0.0416,0.0571,0.0657,0.0705,0.0694,0.0609,0.0443,0.0267,0.016,0.0149,0.0182,0.0149,0.0032,-0.0117,-0.024,-0.0272,-0.0155,0,0,0,0,0,0,0,-0.0481,-0.0977,-0.1185,-0.1143,-0.1175,-0.1185,-0.1201,-0.1207,-0.1127,-0.0822,-0.0796,0,-0.0993,-0.1052,-0.1009,-0.0934,-0.0865,-0.0774,-0.0603,-0.0384,-0.0155,0.0037,0.0203,0.0342,0.0454,0.0534,0.0539,0.0464,0.0342,0.0256,0.0224,0.0208,0.0155,0.0048,-0.0085,-0.0171,-0.0203,-0.0166,-0.0021,0,0,0,-0.0171,0.0278,0,0,0,-0.1196,-0.1308,-0.1196,-0.1169,-0.118,-0.1191,-0.1196,-0.1148,-0.102,-0.0806,0,-0.0854,-0.1025,-0.1046,-0.0961,-0.0865,-0.0758,-0.0614,-0.0443,-0.0272,-0.0139,-0.0011,0.0112,0.0256,0.0384,0.0438,0.0406,0.0347,0.0336,0.0336,0.0278,0.0133,-0.0048,-0.0203,-0.0272,-0.0235,-0.0123,0.0069,0,0,-0.063,-0.0128,0.0422,-0.0561,0.0,0.0,-0.0603,-0.0865,-0.1052,-0.1116,-0.1169,-0.1207,-0.1255,-0.1287,-0.134,-0.0689,0,-0.0683,-0.1004,-0.1052,-0.0934,-0.079,-0.0667,-0.055,-0.0432,-0.0331,-0.0251,-0.0155,-0.0048,0.0112,0.0299,0.0422,0.0459,0.0459,0.047,0.0448,0.0331,0.0133,-0.0069,-0.024,-0.032,-0.0278,-0.016,0.0064,0,0,-0.2114,0.0085,0.0288,-0.1121,0,0,-0.0171,-0.0529,-0.0881,-0.103,-0.1127,-0.1196,-0.126,-0.1345,-0.1506,0,-0.0043,-0.0603,-0.0934,-0.095,-0.0796,-0.0625,-0.0518,-0.0448,-0.0379,-0.031,-0.0262,-0.0182,-0.0101,0.0048,0.0267,0.047,0.0582,0.0603,0.0571,0.0502,0.0331,0.0128,-0.0043,-0.016,-0.0214,-0.0208,-0.0166,0.0011,-0.0833,-0.0166,-0.1447,0,0,0,0,0,-0.0641,-0.0753,-0.087,-0.0961,-0.1057,-0.1121,-0.1116,-0.1132,-0.11,-0.0262,-0.032,-0.0673,-0.0817,-0.0747,-0.0561,-0.0395,-0.0342,-0.0347,-0.031,-0.023,-0.0166,-0.0117,-0.0069,0.0043,0.0267,0.0518,0.0683,0.0705,0.0614,0.0481,0.0272,0.0085,0.0,-0.0021,-0.0021,0.0005,-0.0043,0.0021,-0.166,0.0876,0.0865,0.0673,0.0854,0,0,0,-0.1014,-0.1004,-0.0918,-0.0902,-0.0972,-0.103,-0.087,-0.0769,-0.0705,-0.0651,-0.0731,-0.0812,-0.0694,-0.0481,-0.0283,-0.0149,-0.016,-0.024,-0.0235,-0.0107,0.0011,-0.0005,-0.0021,-0.0021,0.0219,0.0507,0.0742,0.0737,0.0587,0.0422,0.0214,0.0107,0.0117,0.0123,0.0075,0.023,0.016,0.0128,0,0.1442,0.1682,0.1586,0.1783,0.1132,0,0,-0.1548,-0.1265,-0.0945,-0.0817,-0.0892,-0.1052,-0.0507,-0.0374,-0.0561,-0.0828,-0.1014,-0.1009,-0.0577,-0.0176,0.0005,0.0085,0.0037,-0.0091,-0.0133,0.0005,0.0235,0.0133,0.0053,-0.0171,0.0085,0.0416,0.0753,0.071,0.0464,0.0352,0.0294,0.0347,0.0422,0.0256,0.0027,0.0326,0.0315,0.0246,0.1361,0.1666,0.2056,0.2018,0.1927,0.1965,0.0315,0.0032,-0.15,-0.0924,-0.0603,-0.0545,-0.0785,-0.1281,-0.0272,-0.0139,-0.039,-0.0833,-0.1036,-0.1116,-0.0427,0.0101,0.0224,0.0246,0.0224,0.0128,0.0053,0.024,0.0368,0.0219,0.0128,-0.0182,0.0085,0.039,0.0715,0.0657,0.0352,0.0416,0.0539,0.0801,0.1228,0.0406,0.0262,0.031,0.0368,0.0294,0.2718,0.2413,0.2371,0.221,0.1949,0.1543,0.0699,0.0166,-0.1175,-0.0475,-0.0278,-0.0326,-0.0507,-0.1175,0,0,-0.0299,-0.0833,-0.0988,-0.0892,-0.0166,0.0235,0.0315,0.0315,0.0326,0.0272,0.0203,0.0139,0,0,0,0.047,0.0448,0.087,0.0763,0.0737,0.0747,0.0785,0.0726,0.094,0.1687,0,0.2205,0.032,0.0395,0.031,0,0.2296,0.2216,0.2088,0.1773,0.1308,0.0769,0.0448,0.0075,0,0,0,-0.047,-0.071,-0.0027,0.0224,0,-0.0838,-0.0977,-0.0918,0,0,0,0,0,0,0,0.0363,0.0059,0.0192,0.032,0.094,0.0625,0.0822,0,0,0.1111,0.1014,0.0593,0.0763,0.1586,0.087,0.3561,0,0,0,0,0,0.2088,0.1799,0.1367,0.0924,0.0619,0.0609,0.1303,0.0555,0.0481,0.0379,-0.0246,-0.0283,0.0016,0.0331,-0.0011,-0.0609,-0.0812,-0.0854,-0.0144,0.0048,0.0192,0.031,0.024,0.0133,0.0555,0.1014,0.0427,0.0555,0.0731,0.0865,0.0646,0.0379,-0.0096,0.0203,0.094,0.1233,0,0,0,0.1901,0.2493,0.0198,0.0091,0,0,0,0,0.1644,0.1089,0.0673,0.047,0.0582,0.1335,0.1057,0.086,0.0801,0.0395,0.0155,0.0117,0.0155,-0.0016,-0.032,-0.0513,-0.0678,-0.0208,0.0117,0.0336,0.0582,0.0689,0.0133,0.1116,0.1137,0.0737,0.0726,0.0817,0.0854,0.0705,0.0219,-0.0443,0.04,0.0619,0.1271,0.0,0.0,0.1164,0.2061,0.1484,0.0379,0.0182,0,0,0,0,0,0,0,0,0,0.1479,0.0998,0.0758,0.0945,0.0678,0.0336,0.0149,0.0091,-0.0005,-0.0166,-0.0331,-0.0854,-0.0123,0.0139,0.0283,0.055,0.0892,0.0011,0,0,0,0,0.0806,0.0828,0.0726,0.0262,-0.0555,0,0,0,0,0,0.2573,0.1991,0.1078,0.0192,0.0107,0,0,0,0,0,0,0,0,0,0,0,0,0.1041,0.071,0.0336,0.0144,0.0075,0.0011,-0.0096,-0.0235,-0.0966,0,0,0,0,0,0,0,0,0,0,0,0,0.0763,0.0374,-0.0411,0,0,0,0,0,0.2814,0.205,0.0763,-0.0128,-0.0069,0,0,0,0,0,0,0,0,0,0,0,0,0,0,0,0,0,0,0,0,0,0,0,0,0,0,0,0,0,0,0,0,0,0,0,0,0,0,0,0,0,0.2552,0.2301,0.0577,-0.0406,-0.023,0,0,0,0,0,0,0,0,0,0,0,0,0,0,0,0,0,0,0,0,0,0,0,0,0,0,0,0,0,0,0,0,0,0,0,0,0,0,0,0,0,0.2157,0.2349,0.0566,-0.0497,-0.0352,0,0,0,0,0,0,0,0,0,0,0,0,0,0,0,0,0,0,0,0,0,0,0,0,0,0,0,0,0,0,0,0,0,0,0,0,0,0,0,0,0,0,0.2451,0.0918,-0.0235,-0.0507,0,0,0,0,0,0,0,0,0,0,0,0,0,0,0,0,0,0,0,0,0,0,0,0,0,0,0,0,0,0,0,0,0,0,0,0,0,0,0,0,0,0,0.236,0.0993,0.0198,-0.063,0,0,0,0,0,0,0,0,0,0,0,0,0,0,0,0,0,0,0,0,0,0,0,0,0,0,0,0,0,0,0,0,0,0,0,0,0,0,0,0,0,0,0.1815,0.0571,0.071,-0.0566,0,0,0,0,0,0,0,0,0,0,0,0,0,0,0,0,0,0,0,0,0,0,0,0,0,0,0,0,0,0,0,0,0,0,0,0,0,0,0,0,0,0,0.1532,0.1949,0.1468,-0.0342,0]}]],[[{"header":{"parameterUnit":"kt","parameterCategory":2,"dx":1,"dy":1,"la1":29.46422004699707,"la2":30.564109802246094,"lo1":-89.4342041015625,"lo2":-87.934326171875,"nx":46,"ny":34,"refTime":"2022-09-27T00:00:00:Z","depth":"8","parameterNumber":2,"parameterNumberName":"U-component_of_CURRENTS"},"data":[-0.0635,-0.0491,-0.0336,-0.0214,-0.0117,-0.0021,0.0037,0,-0.0117,-0.0144,0.0,-0.0171,-0.0475,-0.071,-0.1025,-0.1324,-0.1639,-0.1943,-0.22,-0.2371,-0.236,-0.2082,-0.1548,-0.0998,-0.0625,-0.0678,-0.1191,-0.1687,-0.1805,-0.1703,-0.1692,-0.1698,-0.1607,-0.1447,-0.1239,-0.103,-0.0812,-0.0518,-0.008,0.0454,0.1009,0.1495,0.1735,0.165,0.1383,0.1239,-0.047,-0.0422,-0.0326,-0.0267,-0.0304,-0.0448,-0.0678,-0.0817,0,-0.0011,-0.0064,-0.0598,-0.1004,-0.0961,-0.1116,-0.1345,-0.1596,-0.1853,-0.2082,-0.229,-0.2451,-0.2445,-0.2136,-0.1554,-0.094,-0.0582,-0.0657,-0.1057,-0.1426,-0.158,-0.1676,-0.1821,-0.1959,-0.1981,-0.1906,-0.189,-0.1778,-0.1548,-0.134,-0.11,-0.0817,-0.055,-0.0379,-0.0256,-0.0027,0.0464,-0.0208,-0.0278,-0.0262,-0.023,-0.0262,-0.031,-0.0299,-0.024,0.0203,0.0464,0.0315,0,-0.0235,-0.0667,-0.1014,-0.1297,-0.1548,-0.1773,-0.1965,-0.213,-0.228,-0.2381,-0.2317,-0.197,-0.1372,-0.078,-0.0502,-0.0635,-0.0988,-0.1329,-0.1639,-0.1965,-0.2317,-0.2584,-0.2718,-0.2819,-0.2899,-0.2947,-0.3011,-0.3017,-0.2856,-0.2589,-0.2216,-0.1725,-0.1014,-0.0096,0.0139,-0.0048,-0.0139,-0.0155,-0.0214,-0.0288,-0.031,-0.0283,-0.0171,-0.0139,-0.0411,-0.0192,0.008,-0.039,-0.1009,-0.1399,-0.1575,-0.1741,-0.1874,-0.1981,-0.2072,-0.2157,-0.2189,-0.2066,-0.1692,-0.1132,-0.0657,-0.0513,-0.0774,-0.1356,-0.1837,-0.22,-0.2659,-0.3086,-0.331,-0.3385,-0.3417,-0.3412,-0.3369,-0.3139,-0.2792,-0.236,-0.181,-0.1116,-0.0358,0.0294,0.0491,0.0304,0.0085,-0.0059,-0.0149,-0.023,-0.0256,-0.0272,-0.0278,-0.0294,-0.0347,-0.0384,-0.0459,-0.087,-0.1655,-0.1901,-0.1682,-0.1746,-0.1805,-0.1831,-0.1863,-0.1901,-0.1922,-0.1895,-0.1741,-0.1377,-0.0892,-0.0561,-0.0518,-0.0785,-0.1244,-0.1564,-0.1644,-0.1639,-0.1644,-0.1751,-0.1965,-0.2152,-0.2178,-0.1981,-0.1623,-0.1185,-0.071,-0.024,0.0176,0.0497,0.0539,0.0539,0.0267,0.0,-0.0053,-0.0091,-0.0187,-0.0278,-0.0368,-0.0432,-0.0497,-0.0523,-0.0422,-0.0326,0,-0.0785,-0.1591,-0.1639,-0.1682,-0.1655,-0.1639,-0.1623,-0.1612,-0.1596,-0.1548,-0.1377,-0.1025,-0.0614,-0.0379,-0.0358,-0.0486,-0.0662,-0.0721,-0.0683,-0.0689,-0.0758,-0.0796,-0.0737,-0.0619,-0.047,-0.0235,0.0032,0.0299,0.0577,0.086,0.1116,0.103,0.0844,0.04,0.0075,0.0267,0.0347,-0.0075,-0.0363,-0.0475,-0.0523,-0.0571,-0.0635,-0.0742,-0.078,-0.0747,0,-0.0726,-0.1458,-0.1474,-0.1426,-0.1383,-0.1345,-0.1297,-0.126,-0.1233,-0.118,-0.1009,-0.0705,-0.04,-0.0224,-0.0187,-0.0315,-0.0529,-0.0598,-0.055,-0.0534,-0.055,-0.0454,-0.016,0.0144,0.0363,0.0566,0.078,0.1004,0.1217,0.142,0,-0.0021,0.0112,0.0246,0.055,0.0486,-0.0187,-0.0502,-0.0523,-0.0518,-0.0518,-0.0523,-0.055,-0.0577,-0.0635,-0.0699,0,-0.0646,-0.1228,-0.1148,-0.1116,-0.1078,-0.102,-0.0961,-0.0918,-0.0892,-0.0849,-0.0721,-0.0475,-0.0235,-0.0096,-0.0101,-0.0347,-0.0603,-0.0667,-0.0641,-0.0529,-0.0363,-0.0069,0.0267,0.047,0.0614,0.0774,0.0961,0.1164,0.1351,0,-0.0352,0,0.0288,0.0577,0,-0.0133,-0.0352,-0.0427,-0.0416,-0.0395,-0.0352,-0.0347,-0.047,-0.0529,-0.0529,-0.0577,0,-0.0326,-0.0753,-0.0844,-0.0838,-0.0796,-0.0731,-0.0673,-0.0635,-0.0619,-0.0582,-0.0448,-0.0235,-0.0043,0.0075,0.0037,-0.023,-0.0464,-0.0464,-0.0304,-0.0096,0.0155,0.0427,0.0577,0.0641,0.0726,0.0865,0.1036,0.1201,0,0.0598,0.0699,0.0699,0,0.0166,0.0069,-0.0267,-0.0336,-0.0315,-0.0262,-0.016,0.0021,-0.0251,-0.0416,-0.0075,0.0048,0,-0.0411,-0.0758,-0.0657,-0.0625,-0.0603,-0.0566,-0.0513,-0.0464,-0.0432,-0.0395,-0.0315,-0.0166,0.0016,0.0176,0.0304,0.0358,0.0336,0.0331,0.0416,0.0523,0.0625,0.0705,0.0721,0.0705,0.0742,0.0849,0.0993,0.1111,0,0,0,0,0,-0.0032,-0.0171,-0.0304,-0.0326,-0.0294,-0.024,-0.0133,-0.0053,0,0.0133,0.0363,0.0464,0,0,-0.0096,-0.0262,-0.0363,-0.0411,-0.0422,-0.0406,-0.0368,-0.0326,-0.0272,-0.0203,-0.0085,0.008,0.0251,0.0416,0.0587,0.0753,0.0892,0.0982,0.0982,0.0924,0.0865,0.0817,0.078,0.0796,0.0881,0.0993,0.1068,0,0,0,0,0,0,-0.0091,-0.0262,-0.0347,-0.0326,-0.0326,-0.0384,-0.0486,-0.0053,0.0475,0.0699,0.0897,0,0,-0.0032,-0.0112,-0.0208,-0.0267,-0.0299,-0.031,-0.0299,-0.0272,-0.0219,-0.0144,-0.0043,0.0096,0.0267,0.0443,0.0619,0.0801,0.094,0.0998,0.0982,0.095,0.0924,0.0908,0.0902,0.0918,0.0966,0.1014,0.103,0,0,0,0,0,0,-0.0101,-0.0294,-0.0395,-0.0336,-0.0267,-0.0256,-0.0219,-0.0112,0.0043,0.0117,0,0,0,-0.0005,-0.0043,-0.0117,-0.0166,-0.0198,-0.0219,-0.0235,-0.023,-0.0192,-0.0123,-0.0021,0.0112,0.0256,0.0411,0.0577,0.0737,0.086,0.0897,0.0876,0.086,0.0886,0.095,0.102,0.1078,0.1105,0.1078,0.1014,0,0,0,0,0,0,-0.0144,-0.0363,-0.0459,-0.0352,-0.0208,-0.0198,-0.0235,-0.0315,-0.0486,-0.0865,-0.0833,-0.0545,0,0.0,-0.0021,-0.008,-0.0107,-0.0133,-0.0155,-0.0182,-0.0192,-0.0171,-0.0107,0.0,0.0128,0.0256,0.0374,0.0491,0.0598,0.0657,0.0662,0.0651,0.0678,0.0758,0.0876,0.102,0.1137,0.1175,0.1111,0.0982,0,0,0,0,0,0,0,-0.0267,-0.0502,-0.0299,-0.0059,-0.0005,-0.0032,-0.0085,-0.0155,-0.0224,-0.0139,-0.0021,0,-0.0011,-0.0043,-0.008,-0.0096,-0.0133,-0.0182,-0.023,-0.0256,-0.024,-0.0187,-0.0085,0.0037,0.0155,0.0251,0.0326,0.0363,0.0379,0.039,0.0422,0.0475,0.0555,0.0667,0.0812,0.094,0.0993,0.0945,0.0844,0,0,0,0.0144,0.0294,0,0,0,0.0064,0.0149,0.0214,0.024,0.0203,0.0182,0.0182,0.0203,0.0294,0.0363,0,-0.0032,-0.0085,-0.0112,-0.0144,-0.0214,-0.0304,-0.0395,-0.0443,-0.0443,-0.0395,-0.0299,-0.0166,-0.0032,0.0075,0.0128,0.0144,0.0155,0.0176,0.0208,0.024,0.0283,0.0347,0.0422,0.0497,0.0539,0.0545,0.0513,0,0,0.0582,0.1036,0.1201,0.2029,0.2563,0.2547,0.1959,0.1036,0.0593,0.0454,0.0384,0.0358,0.0363,0.0416,0.0662,0.0865,0,-0.0016,-0.0059,-0.0112,-0.0203,-0.0326,-0.0448,-0.0545,-0.0598,-0.0614,-0.0593,-0.0529,-0.0422,-0.0304,-0.0203,-0.0149,-0.0133,-0.0117,-0.0091,-0.0043,0.0005,0.0048,0.0069,0.0053,0.0005,-0.0032,-0.0037,0.0,0,0,0.071,0.1244,0.1148,0.1228,0,0,0.0214,0.0513,0.0577,0.0518,0.0459,0.0416,0.0347,0.0278,0.0246,0,0.0133,0.0251,0.0149,-0.0037,-0.024,-0.0416,-0.0555,-0.0651,-0.0715,-0.0753,-0.0769,-0.0758,-0.0721,-0.0667,-0.0614,-0.0561,-0.0523,-0.0481,-0.0411,-0.031,-0.0198,-0.0101,-0.0085,-0.016,-0.0326,-0.0502,-0.0614,-0.0614,0.0726,0.1821,0.2184,0,0,0,0,0,0.0187,0.0475,0.0587,0.0566,0.0502,0.0432,0.0288,0.0,-0.0464,-0.0481,0.0,0.0224,0.0166,-0.0043,-0.0278,-0.0486,-0.0646,-0.0753,-0.0828,-0.0897,-0.0961,-0.1004,-0.1009,-0.0977,-0.0924,-0.087,-0.0812,-0.0747,-0.0657,-0.0539,-0.0406,-0.0315,-0.0304,-0.039,-0.0555,-0.078,-0.0998,-0.1127,0.5045,0.3454,0.22,0.1458,0.1143,0,0,0,0.0203,0.0529,0.0683,0.0673,0.0587,0.0523,0.04,0.0149,-0.0069,-0.0043,0.0155,0.0283,0.0198,-0.0053,-0.0331,-0.0561,-0.0737,-0.0865,-0.094,-0.1004,-0.1111,-0.1207,-0.1239,-0.1159,-0.1004,-0.0881,-0.0812,-0.0763,-0.0699,-0.0641,-0.0625,-0.0689,-0.0822,-0.0966,-0.103,-0.1105,-0.1287,-0.1458,0,0.0513,0.1185,0.1276,0.126,0.1319,0,0,0.0358,0.0812,0.0913,0.0844,0.0726,0.0689,0.0582,0.0294,0.0053,0.0011,0.0117,0.0219,0.0133,-0.0139,-0.0411,-0.0619,-0.079,-0.094,-0.1041,-0.1084,-0.1164,-0.1276,-0.134,-0.1287,-0.1121,-0.094,-0.0817,-0.0769,-0.0721,-0.0721,-0.0854,-0.1127,-0.1447,-0.1639,-0.1655,-0.1612,-0.1639,-0.1735,0.5072,0.3219,0.1991,0.1532,0.1554,0.2061,0.244,0.2621,0.2499,0.1879,0.1393,0.1068,0.0844,0.0796,0.0598,0.0246,0.0059,-0.0032,-0.0048,-0.0107,-0.0219,-0.0422,-0.0582,-0.0662,-0.0731,-0.087,-0.1062,-0.1308,-0.1345,-0.1159,-0.1111,-0.1159,-0.1233,-0.1164,-0.1004,-0.0886,-0.0785,-0.0747,-0.0833,-0.1036,-0.1426,-0.1682,-0.1751,-0.1959,-0.1869,-0.1869,0.0838,0.1628,0.1506,0.1447,0.1612,0.1997,0.2285,0.2339,0.236,0.1997,0.1442,0.1105,0.0785,0.0625,0,0,-0.0075,-0.0144,-0.0171,-0.0598,-0.103,-0.0998,-0.0817,-0.0641,-0.0481,-0.0374,-0.0363,-0.0384,0,0,0,-0.04,-0.0982,-0.1345,-0.1164,-0.0448,-0.016,-0.047,-0.0406,-0.0059,0.0192,0,-0.1105,-0.2162,-0.2018,-0.1837,0,0.0785,0.1495,0.1458,0.1618,0.1911,0.2098,0.1986,0.1842,0,0,0,0.0256,0.0358,0.0288,0.0368,0,0.0059,0.0091,0.0059,0,0,0,0,0,0,0,-0.0171,-0.0272,-0.0262,-0.0491,-0.0513,-0.0219,-0.008,0,0,-0.0011,-0.0326,-0.0411,0.0278,0.1233,0.1025,0.0331,0,0,0,0,0,0.0747,0.15,0.1639,0.1911,0.2125,0.212,0.2034,0.1821,0.157,0.1596,0.1468,0.1078,0.0844,0.0886,0.1036,0.0924,0.0545,0.0059,-0.0064,0.0096,0.0048,0.0064,0.0352,0.0379,0.0176,0.0406,0.0518,0.0262,0.0059,0.0069,0.0091,-0.0021,-0.0005,0.008,0.0224,0.0368,0,0,0,0.0336,0.0913,0.1095,0.0897,0,0,0,0,0.0646,0.1634,0.2141,0.2397,0.2541,0.2306,0.1815,0.1527,0.1431,0.1383,0.1255,0.1121,0.1105,0.1121,0.1036,0.086,0.0785,0.0689,0.0539,0.0561,0.0587,0.0801,0.0726,0.0176,0.0149,0.0443,0.0518,0.0443,0.0432,0.0507,0.0646,0.0785,0.0796,0.0913,0.1474,0.1869,0.1821,0.1345,0.0897,0.0881,0.0715,0.0523,0,0,0,0,0,0,0,0,0,0.0555,0.1388,0.1719,0.1564,0.1313,0.1292,0.1297,0.1292,0.1255,0.1159,0.1004,0.0972,0.0908,0.078,0.0822,0.0982,0.1207,0.1335,0,0,0,0,0.0267,0.0678,0.0774,0.0678,0.0635,0,0,0,0,0,0.0347,0.0603,0.0411,0.0267,0.0256,0,0,0,0,0,0,0,0,0,0,0,0,0.0411,0.1057,0.1372,0.1458,0.1447,0.1388,0.1271,0.1062,0.0934,0,0,0,0,0,0,0,0,0,0,0,0,0.0278,0.0593,0.063,0,0,0,0,0,0.0427,0.0694,0.0336,0.0107,0.0053,0,0,0,0,0,0,0,0,0,0,0,0,0,0,0,0,0,0,0,0,0,0,0,0,0,0,0,0,0,0,0,0,0,0,0,0,0,0,0,0,0,0.0454,0.095,0.0694,0.032,0.0139,0,0,0,0,0,0,0,0,0,0,0,0,0,0,0,0,0,0,0,0,0,0,0,0,0,0,0,0,0,0,0,0,0,0,0,0,0,0,0,0,0,0.0406,0.1116,0.1191,0.0806,0.0416,0,0,0,0,0,0,0,0,0,0,0,0,0,0,0,0,0,0,0,0,0,0,0,0,0,0,0,0,0,0,0,0,0,0,0,0,0,0,0,0,0,0,0.1393,0.1522,0.1185,0.0491,0,0,0,0,0,0,0,0,0,0,0,0,0,0,0,0,0,0,0,0,0,0,0,0,0,0,0,0,0,0,0,0,0,0,0,0,0,0,0,0,0,0,0.0486,0.1319,0.1356,0.0598,0,0,0,0,0,0,0,0,0,0,0,0,0,0,0,0,0,0,0,0,0,0,0,0,0,0,0,0,0,0,0,0,0,0,0,0,0,0,0,0,0,0,0.0486,0.1671,0.2109,0.0897,0,0,0,0,0,0,0,0,0,0,0,0,0,0,0,0,0,0,0,0,0,0,0,0,0,0,0,0,0,0,0,0,0,0,0,0,0,0,0,0,0,0,0.0673,0.158,0.1906,0.1062,0]}],[{"header":{"parameterUnit":"kt","parameterCategory":2,"dx":1,"dy":1,"la1":29.46422004699707,"la2":30.564109802246094,"lo1":-89.4342041015625,"lo2":-87.934326171875,"nx":46,"ny":34,"refTime":"2022-09-27T00:00:00:Z","depth":"8","parameterNumber":3,"parameterNumberName":"V-component_of_CURRENTS"},"data":[0.0139,-0.0133,-0.0288,-0.04,-0.0545,-0.0731,-0.1046,0,-0.0224,-0.1169,-0.1404,-0.1111,-0.1538,-0.1757,-0.212,-0.2328,-0.2339,-0.2274,-0.2141,-0.1949,-0.165,-0.1164,-0.0448,0.0262,0.0454,-0.0037,-0.0806,-0.0625,-0.008,0.0475,0.0849,0.1148,0.1431,0.1612,0.1735,0.1767,0.1709,0.1676,0.1842,0.2007,0.2072,0.2007,0.1917,0.1863,0.1965,0.1901,0.0,-0.0288,-0.0438,-0.0539,-0.0662,-0.0817,-0.0966,-0.0358,0,-0.1233,-0.1495,-0.0865,-0.1527,-0.165,-0.1815,-0.2045,-0.2088,-0.2061,-0.1959,-0.1837,-0.1666,-0.1377,-0.0918,-0.0235,0.0427,0.0507,-0.0096,-0.0561,-0.0448,0.0059,0.0507,0.071,0.0876,0.0982,0.1127,0.1159,0.1084,0.1057,0.1239,0.1559,0.1911,0.221,0.2408,0.2472,0.244,0.2077,0.0048,-0.0342,-0.0529,-0.0619,-0.0699,-0.0774,-0.0838,-0.0769,-0.0288,-0.1041,-0.1383,0,-0.1356,-0.149,-0.1527,-0.1741,-0.1853,-0.1847,-0.1767,-0.166,-0.1516,-0.1329,-0.1073,-0.063,0.0005,0.0566,0.0603,0.0144,-0.0166,0.0123,0.0662,0.0822,0.0817,0.0742,0.0726,0.0651,0.0555,0.0667,0.0742,0.1078,0.1367,0.1751,0.1917,0.2034,0.1773,0.1479,0.0235,-0.024,-0.0529,-0.0651,-0.0731,-0.0817,-0.086,-0.0828,-0.0662,-0.0854,-0.1078,-0.0368,-0.0934,-0.1111,-0.1057,-0.1458,-0.1644,-0.1644,-0.1586,-0.1495,-0.1367,-0.1212,-0.1036,-0.078,-0.0347,0.0251,0.0753,0.0828,0.0587,0.0507,0.087,0.1041,0.0961,0.0699,0.0529,0.0384,0.0267,0.0411,0.0294,0.0657,0.079,0.1153,0.1169,0.1255,0.1014,0.086,0.0448,0.0005,-0.0363,-0.0598,-0.0721,-0.0812,-0.086,-0.0838,-0.0806,-0.0849,-0.0897,-0.0785,-0.0715,-0.0513,-0.0742,-0.1516,-0.1538,-0.1495,-0.1452,-0.1372,-0.1249,-0.1105,-0.095,-0.0774,-0.0507,-0.0059,0.0577,0.11,0.1244,0.1052,0.1121,0.1148,0.1009,0.0812,0.071,0.0646,0.0545,0.0481,0.0299,0.0438,0.0481,0.0667,0.0699,0.071,0.0646,0.0518,0.0481,0.0299,-0.0011,-0.0438,-0.0635,-0.071,-0.0822,-0.0849,-0.087,-0.0892,-0.0902,-0.0854,-0.0737,-0.0374,0,-0.1676,-0.1532,-0.1404,-0.1377,-0.1303,-0.118,-0.1036,-0.0876,-0.0715,-0.0529,-0.023,0.0315,0.1025,0.1452,0.1431,0.1329,0.1169,0.0876,0.0972,0.1057,0.1073,0.095,0.0785,0.0593,0.0507,0.0481,0.0513,0.0566,0.0561,0.0518,0.0432,0.0422,0.0651,0.0384,-0.0192,-0.0352,-0.0278,-0.071,-0.0849,-0.0897,-0.0908,-0.0886,-0.0838,-0.0774,-0.0619,-0.0374,0,-0.1506,-0.1361,-0.1383,-0.1281,-0.1148,-0.1004,-0.0838,-0.0667,-0.0491,-0.0278,0.0123,0.078,0.1367,0.1527,0.1431,0.1244,0.0763,0.0908,0.1105,0.1111,0.0966,0.0742,0.0507,0.047,0.0406,0.0422,0.0475,0.0486,0.0448,0.0432,0,0.0881,0.0566,0.0,0.0059,0.0064,-0.0753,-0.0929,-0.0934,-0.0913,-0.0876,-0.0812,-0.0721,-0.0657,-0.0683,-0.0352,0,-0.1345,-0.1511,-0.1292,-0.1143,-0.1009,-0.0849,-0.0662,-0.0464,-0.0256,0.0064,0.0593,0.1159,0.1442,0.1452,0.1335,0.0961,0.0892,0.1073,0.1036,0.0865,0.0464,0.0219,0.0283,0.024,0.0251,0.0315,0.0336,0.032,0.0347,0,0.0646,0,-0.0224,0.0262,0,-0.0902,-0.0977,-0.095,-0.0918,-0.0886,-0.0838,-0.0753,-0.0571,-0.0646,-0.0705,-0.0304,0,-0.1191,-0.1228,-0.1116,-0.1009,-0.0876,-0.0705,-0.0481,-0.024,0.0064,0.0507,0.0988,0.1308,0.141,0.1383,0.126,0.1105,0.11,0.094,0.0646,0.0203,-0.0016,0.0123,0.0112,0.0112,0.0144,0.0144,0.0128,0.0171,0,0.0395,0.0,-0.0507,0,0.008,-0.078,-0.0892,-0.0918,-0.0913,-0.0929,-0.0918,-0.087,-0.0475,-0.0849,-0.0801,-0.0715,0,-0.079,-0.1255,-0.1132,-0.1014,-0.0892,-0.0753,-0.0539,-0.0262,0.0043,0.0427,0.0854,0.1164,0.1313,0.1351,0.1351,0.1308,0.1159,0.0892,0.0491,0.0112,-0.0005,0.0112,0.0107,0.0069,0.0032,-0.0021,-0.0053,0.0,0,0,0,0,0,0.0166,-0.0587,-0.0785,-0.087,-0.0902,-0.0982,-0.1052,-0.1073,0,-0.1127,-0.0982,-0.0635,0,0,-0.1244,-0.1116,-0.0977,-0.0881,-0.0769,-0.0587,-0.0315,-0.0011,0.0326,0.071,0.1004,0.1169,0.1233,0.126,0.126,0.1132,0.0838,0.0459,0.0182,0.0128,0.0192,0.0187,0.0112,-0.0016,-0.0144,-0.0192,-0.0107,0,0,0,0,0,0,-0.0459,-0.0678,-0.0806,-0.0876,-0.0982,-0.1068,-0.1105,-0.0513,-0.1239,-0.1249,-0.0448,0,0,-0.1078,-0.103,-0.0913,-0.0838,-0.0758,-0.0614,-0.0368,-0.008,0.0219,0.0555,0.0838,0.1004,0.1073,0.1105,0.11,0.0993,0.0747,0.0443,0.023,0.0198,0.0256,0.0267,0.016,-0.0027,-0.0208,-0.0267,-0.016,0,0,0,0,0,0,-0.0235,-0.0539,-0.0731,-0.0844,-0.0945,-0.102,-0.1062,-0.1095,-0.1324,-0.15,0,0,0,-0.0998,-0.0977,-0.0876,-0.0806,-0.0742,-0.0619,-0.0411,-0.0139,0.0133,0.0422,0.0678,0.0833,0.0908,0.094,0.0934,0.0844,0.0651,0.0416,0.0251,0.0224,0.0283,0.0288,0.0176,-0.0021,-0.0208,-0.0267,-0.0149,0,0,0,0,0,0,-0.0112,-0.0432,-0.0673,-0.0844,-0.094,-0.102,-0.1062,-0.1121,-0.1249,-0.1303,-0.032,-0.0299,0,-0.094,-0.095,-0.0865,-0.0801,-0.0737,-0.0635,-0.0443,-0.0198,0.0053,0.0294,0.0507,0.0651,0.0742,0.0785,0.0785,0.0705,0.0545,0.0374,0.0272,0.0256,0.0272,0.0235,0.0112,-0.0032,-0.0155,-0.0182,-0.0064,0,0,0,0,0,0,0,-0.039,-0.0737,-0.0924,-0.0961,-0.102,-0.1041,-0.1062,-0.1068,-0.1004,-0.0731,-0.0705,0,-0.0865,-0.0924,-0.0886,-0.0812,-0.0742,-0.0646,-0.0481,-0.0267,-0.0043,0.0144,0.031,0.0443,0.0555,0.063,0.0641,0.0577,0.0459,0.0374,0.0336,0.0304,0.024,0.0128,-0.0005,-0.0091,-0.0123,-0.008,0.0064,0,0,0,-0.0182,0.0246,0,0,0,-0.0913,-0.1004,-0.0977,-0.1009,-0.1036,-0.1052,-0.1052,-0.1009,-0.0892,-0.0699,0,-0.0726,-0.0892,-0.0913,-0.0817,-0.0715,-0.0614,-0.047,-0.0304,-0.0139,-0.0011,0.0112,0.023,0.0368,0.0497,0.0555,0.0523,0.047,0.0459,0.0448,0.0374,0.0224,0.0043,-0.0117,-0.0187,-0.0149,-0.0043,0.0155,0,0,-0.0545,-0.0053,0.0475,-0.0443,0.0,0.0,-0.0427,-0.0646,-0.0844,-0.0945,-0.1014,-0.1057,-0.1105,-0.1137,-0.1185,-0.0582,0,-0.0561,-0.086,-0.0902,-0.078,-0.0635,-0.0518,-0.04,-0.0288,-0.0182,-0.0107,-0.0016,0.008,0.0235,0.0416,0.0545,0.0587,0.0593,0.0593,0.0561,0.0432,0.0235,0.0027,-0.0139,-0.0224,-0.0182,-0.0069,0.0155,0,0,-0.1773,0.0251,0.0454,-0.0886,0,0,-0.0107,-0.04,-0.0705,-0.0844,-0.0945,-0.1025,-0.1095,-0.1191,-0.134,0,0.0011,-0.0475,-0.079,-0.0801,-0.0646,-0.0475,-0.0368,-0.0299,-0.0224,-0.0149,-0.0101,-0.0032,0.0037,0.0182,0.0395,0.0598,0.071,0.0731,0.0694,0.0614,0.0438,0.023,0.0059,-0.0053,-0.0112,-0.0101,-0.0059,0.0112,-0.0603,-0.0043,-0.1116,0,0,0,0,0,-0.055,-0.0609,-0.0683,-0.0742,-0.0828,-0.0913,-0.094,-0.0972,-0.095,-0.0192,-0.0192,-0.0523,-0.0673,-0.0603,-0.0427,-0.0262,-0.0203,-0.0192,-0.0139,-0.0048,0.0005,0.0037,0.0075,0.0187,0.0406,0.0651,0.0812,0.0822,0.0726,0.0582,0.0363,0.0182,0.0101,0.0085,0.0085,0.0112,0.0064,0.0128,-0.1201,0.0822,0.0833,0.0614,0.0774,0,0,0,-0.0849,-0.0796,-0.0699,-0.0662,-0.0694,-0.0753,-0.0662,-0.0614,-0.0566,-0.0497,-0.0539,-0.0609,-0.0523,-0.0347,-0.016,-0.0027,-0.0021,-0.0075,-0.0037,0.0096,0.0176,0.0139,0.0117,0.0128,0.0363,0.0641,0.086,0.0849,0.0694,0.0518,0.0315,0.0214,0.023,0.024,0.0187,0.0336,0.0267,0.023,0,0.1463,0.157,0.1442,0.1586,0.0993,0,0,-0.1255,-0.0966,-0.0694,-0.0593,-0.063,-0.0737,-0.0256,-0.0219,-0.0406,-0.0619,-0.0715,-0.0662,-0.0326,-0.0021,0.0128,0.0208,0.0182,0.0085,0.0075,0.0208,0.0384,0.0262,0.0192,-0.0011,0.0251,0.0566,0.0881,0.0849,0.063,0.0513,0.0454,0.0497,0.0566,0.0443,0.0192,0.0432,0.0416,0.0347,0.1148,0.1639,0.1869,0.1794,0.1703,0.1751,0.0342,0.0101,-0.1175,-0.0641,-0.0374,-0.0374,-0.0598,-0.1014,-0.0011,0.0016,-0.0214,-0.0529,-0.0614,-0.0577,0.0043,0.032,0.0347,0.0379,0.0374,0.0294,0.0224,0.0395,0.0491,0.0336,0.0267,-0.0016,0.0272,0.0571,0.0913,0.0924,0.0651,0.071,0.0774,0.1004,0.1383,0.0667,0.0566,0.0432,0.047,0.0406,0.2296,0.2024,0.2018,0.1933,0.1767,0.1468,0.078,0.0315,-0.0849,-0.024,-0.008,-0.0187,-0.0379,-0.1004,0,0,-0.0112,-0.047,-0.0545,-0.0395,0.0358,0.0486,0.0432,0.0454,0.047,0.0411,0.032,0.0262,0,0,0,0.0561,0.0593,0.1009,0.1004,0.1111,0.11,0.11,0.0913,0.1175,0.1917,0,0.2077,0.0454,0.0491,0.0422,0,0.1959,0.1917,0.1837,0.1639,0.1303,0.086,0.0587,0.0251,0,0,0,-0.0299,-0.0566,0.0032,0.0262,0,-0.0555,-0.0651,-0.0603,0,0,0,0,0,0,0,0.0603,0.0166,0.0251,0.0358,0.1014,0.079,0.103,0,0,0.1292,0.1137,0.0715,0.1041,0.1975,0.1052,0.307,0,0,0,0,0,0.1853,0.1628,0.1276,0.0929,0.0678,0.0683,0.1297,0.0582,0.0545,0.0443,-0.0037,-0.0117,0.0133,0.0422,0.0043,-0.0438,-0.0641,-0.0689,-0.0096,0.0091,0.0267,0.0539,0.0689,0.0587,0.0769,0.1244,0.0598,0.0673,0.0828,0.0977,0.0812,0.0587,0.0027,0.0352,0.1078,0.1287,0,0,0,0.2045,0.2424,0.0545,0.0315,0,0,0,0,0.1516,0.1025,0.0673,0.0507,0.0619,0.1271,0.1036,0.0929,0.0918,0.0577,0.031,0.023,0.0262,0.0085,-0.0203,-0.0411,-0.0571,-0.0123,0.0198,0.0454,0.086,0.126,0.102,0.1532,0.126,0.0865,0.0844,0.0897,0.0956,0.0806,0.0347,-0.0235,0.071,0.0758,0.1303,0.0,0.0,0.1046,0.2146,0.1858,0.094,0.0566,0,0,0,0,0,0,0,0,0,0.134,0.0913,0.0763,0.0977,0.0774,0.0448,0.0246,0.0182,0.0091,-0.0075,-0.0251,-0.0747,-0.0053,0.0214,0.0379,0.0641,0.1137,0.086,0,0,0,0,0.0854,0.0908,0.0785,0.0368,-0.0432,0,0,0,0,0,0.2184,0.236,0.1575,0.0635,0.047,0,0,0,0,0,0,0,0,0,0,0,0,0.1004,0.0726,0.0406,0.0224,0.016,0.0096,-0.0016,-0.016,-0.0865,0,0,0,0,0,0,0,0,0,0,0,0,0.0801,0.0448,-0.0331,0,0,0,0,0,0.2264,0.2525,0.1212,0.0326,0.0374,0,0,0,0,0,0,0,0,0,0,0,0,0,0,0,0,0,0,0,0,0,0,0,0,0,0,0,0,0,0,0,0,0,0,0,0,0,0,0,0,0,0.2189,0.2803,0.0945,0.0005,0.0214,0,0,0,0,0,0,0,0,0,0,0,0,0,0,0,0,0,0,0,0,0,0,0,0,0,0,0,0,0,0,0,0,0,0,0,0,0,0,0,0,0,0.204,0.2477,0.0886,-0.0149,0.0037,0,0,0,0,0,0,0,0,0,0,0,0,0,0,0,0,0,0,0,0,0,0,0,0,0,0,0,0,0,0,0,0,0,0,0,0,0,0,0,0,0,0,0.2072,0.1458,0.0166,-0.0101,0,0,0,0,0,0,0,0,0,0,0,0,0,0,0,0,0,0,0,0,0,0,0,0,0,0,0,0,0,0,0,0,0,0,0,0,0,0,0,0,0,0,0.204,0.1831,0.0774,-0.0075,0,0,0,0,0,0,0,0,0,0,0,0,0,0,0,0,0,0,0,0,0,0,0,0,0,0,0,0,0,0,0,0,0,0,0,0,0,0,0,0,0,0,0.1714,0.157,0.134,0.0667,0,0,0,0,0,0,0,0,0,0,0,0,0,0,0,0,0,0,0,0,0,0,0,0,0,0,0,0,0,0,0,0,0,0,0,0,0,0,0,0,0,0,0.1516,0.2178,0.1543,0.1217,0]}]],[[{"header":{"parameterUnit":"kt","parameterCategory":2,"dx":1,"dy":1,"la1":29.46422004699707,"la2":30.564109802246094,"lo1":-89.4342041015625,"lo2":-87.934326171875,"nx":46,"ny":34,"refTime":"2022-09-27T00:00:00:Z","depth":"10","parameterNumber":2,"parameterNumberName":"U-component_of_CURRENTS"},"data":[-0.0603,-0.0459,-0.031,-0.0182,-0.0091,-0.0005,0.0048,0,-0.0096,-0.0112,0.0011,-0.016,-0.0443,-0.0662,-0.0956,-0.1239,-0.1543,-0.1853,-0.2109,-0.2274,-0.2258,-0.1991,-0.1474,-0.0929,-0.0566,-0.0635,-0.1153,-0.165,-0.1757,-0.1655,-0.1634,-0.1634,-0.1548,-0.1393,-0.1185,-0.0972,-0.0758,-0.0464,-0.0027,0.0513,0.1073,0.1559,0.1805,0.173,0.1474,0.134,-0.0448,-0.039,-0.0294,-0.023,-0.0267,-0.0416,-0.0641,-0.0774,0,0.0,-0.0059,-0.0566,-0.0929,-0.0892,-0.102,-0.1223,-0.1484,-0.1751,-0.1981,-0.2184,-0.2333,-0.2339,-0.2045,-0.1484,-0.0881,-0.0529,-0.0614,-0.102,-0.1383,-0.1532,-0.1623,-0.1757,-0.1895,-0.1911,-0.1847,-0.1842,-0.1725,-0.1495,-0.1281,-0.1046,-0.0758,-0.0486,-0.031,-0.0171,0.0069,0.0561,-0.0192,-0.0256,-0.023,-0.0192,-0.023,-0.0283,-0.0278,-0.0224,0.0203,0.0454,0.031,0,-0.0219,-0.0625,-0.0956,-0.1159,-0.1404,-0.165,-0.1853,-0.2018,-0.2162,-0.2258,-0.221,-0.189,-0.1308,-0.0726,-0.0459,-0.0598,-0.095,-0.1287,-0.158,-0.1901,-0.2248,-0.2509,-0.2643,-0.2744,-0.2819,-0.2867,-0.2931,-0.2936,-0.2776,-0.2504,-0.213,-0.1628,-0.0924,-0.0021,0.0155,-0.0027,-0.0112,-0.0117,-0.0176,-0.0262,-0.0283,-0.0256,-0.0149,-0.0117,-0.039,-0.0182,0.008,-0.0374,-0.0961,-0.1292,-0.1377,-0.1586,-0.1757,-0.1869,-0.1959,-0.204,-0.2072,-0.197,-0.1623,-0.1078,-0.0614,-0.047,-0.0737,-0.1313,-0.1778,-0.2125,-0.2568,-0.2985,-0.3203,-0.3273,-0.3305,-0.3294,-0.3246,-0.3027,-0.2691,-0.2264,-0.1714,-0.103,-0.0283,0.0358,0.0481,0.031,0.0107,-0.0027,-0.0112,-0.0198,-0.023,-0.0246,-0.0256,-0.0272,-0.0331,-0.0374,-0.0443,-0.0833,-0.1554,-0.1741,-0.1516,-0.1527,-0.1666,-0.1725,-0.1762,-0.1794,-0.1815,-0.1794,-0.166,-0.1319,-0.0844,-0.0518,-0.0481,-0.0747,-0.1185,-0.149,-0.1559,-0.1548,-0.1554,-0.1666,-0.1874,-0.2056,-0.2082,-0.189,-0.1538,-0.11,-0.063,-0.0166,0.0246,0.055,0.0529,0.0539,0.0283,0.0021,-0.0016,-0.0053,-0.0155,-0.0251,-0.0347,-0.0411,-0.0475,-0.0502,-0.0406,-0.0315,0,-0.0715,-0.1442,-0.1458,-0.1506,-0.1548,-0.1543,-0.1532,-0.1516,-0.15,-0.1463,-0.1308,-0.0972,-0.0571,-0.0336,-0.0315,-0.0432,-0.0593,-0.0651,-0.0609,-0.0614,-0.0689,-0.0726,-0.0667,-0.055,-0.04,-0.0171,0.0096,0.0363,0.0641,0.0918,0.1169,0.0993,0.0812,0.039,0.008,0.0299,0.04,-0.0027,-0.0336,-0.0454,-0.0502,-0.0545,-0.0603,-0.0705,-0.0737,-0.0705,0,-0.0662,-0.1329,-0.1292,-0.1324,-0.1303,-0.1265,-0.1217,-0.118,-0.1153,-0.1111,-0.0956,-0.0657,-0.0352,-0.0176,-0.0133,-0.0251,-0.0459,-0.0529,-0.0481,-0.047,-0.0486,-0.039,-0.0096,0.0203,0.0416,0.0619,0.0833,0.1052,0.1271,0.1468,0,-0.0021,0.0107,0.0246,0.0561,0.0523,-0.0133,-0.0475,-0.0513,-0.0502,-0.0497,-0.0491,-0.0518,-0.0545,-0.0598,-0.0651,0,-0.0593,-0.11,-0.1046,-0.1052,-0.1014,-0.0956,-0.0892,-0.0844,-0.0828,-0.079,-0.0667,-0.0422,-0.0182,-0.0037,-0.0037,-0.0272,-0.0529,-0.0598,-0.0571,-0.0459,-0.0294,0.0,0.0326,0.0523,0.0667,0.0828,0.1014,0.1212,0.1399,0,-0.0331,0,0.0288,0.0571,0,-0.0128,-0.0342,-0.0422,-0.0406,-0.0374,-0.0326,-0.0315,-0.0448,-0.0497,-0.0486,-0.0534,0,-0.0299,-0.0673,-0.0785,-0.0785,-0.0742,-0.0673,-0.0609,-0.0571,-0.0561,-0.0523,-0.039,-0.0182,0.0011,0.0133,0.0096,-0.0166,-0.0395,-0.0395,-0.0235,-0.0027,0.0219,0.0486,0.063,0.0689,0.0774,0.0913,0.1089,0.1249,0,0.0587,0.0683,0.0689,0,0.0176,0.008,-0.0272,-0.0336,-0.0304,-0.0246,-0.0139,0.0043,-0.0235,-0.04,-0.0043,0.0085,0,-0.0384,-0.0689,-0.0598,-0.0577,-0.0561,-0.0518,-0.0459,-0.0411,-0.0379,-0.0342,-0.0256,-0.0107,0.0069,0.0235,0.0363,0.0416,0.0395,0.0395,0.0475,0.0593,0.0689,0.0758,0.0769,0.0758,0.0796,0.0902,0.1046,0.1159,0,0,0,0,0,-0.0027,-0.0166,-0.0315,-0.0331,-0.0283,-0.0224,-0.0112,-0.0037,0,0.0133,0.0374,0.0475,0,0,-0.0085,-0.0214,-0.032,-0.0374,-0.0379,-0.0358,-0.032,-0.0278,-0.0219,-0.0144,-0.0021,0.0139,0.031,0.047,0.0641,0.0801,0.0945,0.1041,0.1041,0.0982,0.0918,0.0865,0.0833,0.0849,0.0934,0.1041,0.1121,0,0,0,0,0,0,-0.0091,-0.0272,-0.0352,-0.0315,-0.0304,-0.0352,-0.0448,-0.0037,0.0464,0.0694,0.0886,0,0,-0.0027,-0.0075,-0.0166,-0.0224,-0.0256,-0.0262,-0.0251,-0.0219,-0.0171,-0.0091,0.0016,0.0155,0.032,0.0491,0.0673,0.0849,0.0993,0.1057,0.1046,0.1014,0.0982,0.0961,0.095,0.0966,0.1014,0.1062,0.1084,0,0,0,0,0,0,-0.0107,-0.0304,-0.0406,-0.0331,-0.0251,-0.0235,-0.0198,-0.0091,0.0069,0.0144,0,0,0,0.0005,-0.0005,-0.0075,-0.0128,-0.016,-0.0176,-0.0187,-0.0176,-0.0144,-0.0075,0.0032,0.0166,0.031,0.0459,0.0625,0.079,0.0918,0.0961,0.0945,0.0929,0.0945,0.0998,0.1062,0.1121,0.1148,0.1121,0.1062,0,0,0,0,0,0,-0.0144,-0.0363,-0.047,-0.0352,-0.0187,-0.0171,-0.0208,-0.0288,-0.0438,-0.0785,-0.0769,-0.0513,0,0.0011,0.0016,-0.0037,-0.0064,-0.0085,-0.0112,-0.0133,-0.0139,-0.0117,-0.0059,0.0048,0.0182,0.031,0.0427,0.0545,0.0657,0.0726,0.0742,0.0731,0.0747,0.0812,0.0918,0.1062,0.118,0.1217,0.1153,0.103,0,0,0,0,0,0,0,-0.0262,-0.0502,-0.0304,-0.0053,0.0011,-0.0021,-0.0069,-0.0133,-0.0198,-0.0107,0.0011,0,0.0,0.0,-0.0032,-0.0043,-0.008,-0.0128,-0.0176,-0.0198,-0.0187,-0.0128,-0.0032,0.0096,0.0219,0.032,0.0395,0.0443,0.0464,0.0481,0.0502,0.0534,0.0598,0.071,0.0854,0.0977,0.1036,0.0993,0.0892,0,0,0,0.0128,0.0262,0,0,0,0.0048,0.0117,0.0203,0.024,0.0203,0.0182,0.0187,0.0208,0.0304,0.0379,0,-0.0021,-0.0032,-0.0053,-0.008,-0.0144,-0.024,-0.0326,-0.0379,-0.0379,-0.0331,-0.0235,-0.0101,0.0037,0.0149,0.0214,0.024,0.0251,0.0267,0.0283,0.0299,0.0331,0.039,0.047,0.0545,0.0587,0.0593,0.0561,0,0,0.0539,0.095,0.1095,0.1821,0.2274,0.2253,0.1741,0.094,0.0555,0.0432,0.0374,0.0352,0.0358,0.0411,0.0651,0.0849,0,-0.0005,-0.0005,-0.0043,-0.0128,-0.0251,-0.0379,-0.0481,-0.0534,-0.055,-0.0523,-0.0459,-0.0352,-0.023,-0.0123,-0.0053,-0.0032,-0.0016,0.0,0.0027,0.0064,0.0101,0.0117,0.0101,0.0059,0.0016,0.0016,0.0053,0,0,0.0651,0.1143,0.1068,0.1153,0,0,0.0203,0.0486,0.055,0.0497,0.0443,0.0406,0.0342,0.0272,0.0251,0,0.0144,0.0272,0.0198,0.0032,-0.0166,-0.0347,-0.0491,-0.0593,-0.0646,-0.0683,-0.0694,-0.0683,-0.0646,-0.0593,-0.0523,-0.0459,-0.0416,-0.0384,-0.0326,-0.024,-0.0133,-0.0053,-0.0032,-0.0112,-0.0272,-0.0443,-0.0555,-0.0555,0.0662,0.1634,0.1943,0,0,0,0,0,0.0176,0.0459,0.0566,0.0539,0.0481,0.0422,0.0288,0.0011,-0.0438,-0.0448,0.0016,0.0256,0.0219,0.0021,-0.0214,-0.0427,-0.0593,-0.0689,-0.0753,-0.0812,-0.0881,-0.0929,-0.0934,-0.0897,-0.0833,-0.0763,-0.0705,-0.0651,-0.0582,-0.0475,-0.0358,-0.0262,-0.0246,-0.0336,-0.0497,-0.0715,-0.0934,-0.1062,0.4234,0.2926,0.1922,0.1324,0.1057,0,0,0,0.0198,0.0507,0.0651,0.0641,0.0561,0.0497,0.039,0.016,-0.0053,-0.0027,0.0182,0.032,0.0251,0.0005,-0.0272,-0.0507,-0.0683,-0.0785,-0.0844,-0.0913,-0.103,-0.1132,-0.1159,-0.1073,-0.0918,-0.079,-0.0715,-0.0683,-0.0641,-0.0587,-0.0571,-0.0625,-0.0753,-0.0897,-0.0961,-0.1036,-0.1217,-0.1383,0,0.0358,0.0924,0.1084,0.11,0.1164,0,0,0.0331,0.0758,0.086,0.0806,0.0689,0.0641,0.055,0.0299,0.0069,0.0032,0.016,0.0288,0.0214,-0.0069,-0.0358,-0.0561,-0.0721,-0.0844,-0.0924,-0.0993,-0.1095,-0.1201,-0.1249,-0.1185,-0.102,-0.0838,-0.071,-0.0651,-0.0603,-0.0603,-0.0726,-0.0993,-0.1297,-0.1468,-0.1516,-0.1511,-0.1538,-0.1628,0.4229,0.2659,0.1612,0.1244,0.1303,0.1783,0.2146,0.2322,0.2216,0.1692,0.1281,0.1009,0.0806,0.0747,0.055,0.024,0.008,0.0005,0.0011,-0.0021,-0.0155,-0.0352,-0.0523,-0.0598,-0.0657,-0.0774,-0.095,-0.1207,-0.1287,-0.1111,-0.1036,-0.1041,-0.1105,-0.1041,-0.0844,-0.0635,-0.0518,-0.0513,-0.0614,-0.0817,-0.1127,-0.1345,-0.1468,-0.1778,-0.1714,-0.1714,0.0726,0.1388,0.1244,0.1185,0.1351,0.1719,0.2013,0.2088,0.2109,0.1778,0.1313,0.1041,0.0758,0.0609,0,0,-0.0043,-0.0069,-0.008,-0.0534,-0.0993,-0.094,-0.0763,-0.0598,-0.0438,-0.0336,-0.0336,-0.0363,0,0,0,-0.0368,-0.0902,-0.1233,-0.0972,-0.0144,0.0117,-0.0294,-0.0331,-0.0027,0.0214,0,-0.0988,-0.1911,-0.1757,-0.1618,0,0.0694,0.1308,0.1244,0.1388,0.1666,0.1847,0.1767,0.1644,0,0,0,0.0251,0.0358,0.0294,0.0374,0,0.0085,0.0133,0.0096,0,0,0,0,0,0,0,-0.016,-0.0256,-0.0251,-0.047,-0.0475,-0.0176,-0.0037,0,0,0.0011,-0.0288,-0.0374,0.031,0.1132,0.0924,0.0352,0,0,0,0,0,0.0678,0.1345,0.1458,0.1698,0.1885,0.1874,0.1778,0.1586,0.1383,0.1431,0.1345,0.102,0.0817,0.0854,0.0998,0.0897,0.055,0.0069,-0.0064,0.0096,0.0053,0.0069,0.0347,0.0363,0.016,0.0379,0.0497,0.0256,0.0064,0.0085,0.0123,0.0011,0.0005,0.0091,0.024,0.0374,0,0,0,0.032,0.0849,0.1036,0.0886,0,0,0,0,0.0603,0.1506,0.1938,0.2146,0.2253,0.2024,0.1575,0.1303,0.1228,0.1239,0.1169,0.1068,0.1046,0.1068,0.0993,0.0838,0.0763,0.0667,0.0523,0.055,0.0561,0.0678,0.0539,0.0085,0.0139,0.0432,0.0507,0.0427,0.0422,0.0507,0.0657,0.0785,0.0769,0.0876,0.1383,0.1735,0.1692,0.1265,0.087,0.0817,0.0651,0.0513,0,0,0,0,0,0,0,0,0,0.0518,0.1276,0.1538,0.1383,0.118,0.1191,0.1217,0.1212,0.1185,0.11,0.0966,0.0934,0.0876,0.0753,0.0796,0.0934,0.1046,0.1078,0,0,0,0,0.0262,0.0662,0.0753,0.0678,0.0651,0,0,0,0,0,0.0374,0.0897,0.0908,0.0497,0.0251,0,0,0,0,0,0,0,0,0,0,0,0,0.0395,0.1004,0.1287,0.1361,0.1345,0.1297,0.1196,0.1014,0.0902,0,0,0,0,0,0,0,0,0,0,0,0,0.0278,0.0593,0.0635,0,0,0,0,0,0.0411,0.094,0.0977,0.0582,0.0139,0,0,0,0,0,0,0,0,0,0,0,0,0,0,0,0,0,0,0,0,0,0,0,0,0,0,0,0,0,0,0,0,0,0,0,0,0,0,0,0,0,0.0422,0.0945,0.1036,0.0844,0.0315,0,0,0,0,0,0,0,0,0,0,0,0,0,0,0,0,0,0,0,0,0,0,0,0,0,0,0,0,0,0,0,0,0,0,0,0,0,0,0,0,0,0.0379,0.0854,0.1025,0.1036,0.0555,0,0,0,0,0,0,0,0,0,0,0,0,0,0,0,0,0,0,0,0,0,0,0,0,0,0,0,0,0,0,0,0,0,0,0,0,0,0,0,0,0,0,0.1127,0.1095,0.1116,0.0635,0,0,0,0,0,0,0,0,0,0,0,0,0,0,0,0,0,0,0,0,0,0,0,0,0,0,0,0,0,0,0,0,0,0,0,0,0,0,0,0,0,0,0.0363,0.0828,0.0982,0.0587,0,0,0,0,0,0,0,0,0,0,0,0,0,0,0,0,0,0,0,0,0,0,0,0,0,0,0,0,0,0,0,0,0,0,0,0,0,0,0,0,0,0,0.047,0.0854,0.0833,0.0427,0,0,0,0,0,0,0,0,0,0,0,0,0,0,0,0,0,0,0,0,0,0,0,0,0,0,0,0,0,0,0,0,0,0,0,0,0,0,0,0,0,0,0.0641,0.1244,0.1105,0.0587,0]}],[{"header":{"parameterUnit":"kt","parameterCategory":2,"dx":1,"dy":1,"la1":29.46422004699707,"la2":30.564109802246094,"lo1":-89.4342041015625,"lo2":-87.934326171875,"nx":46,"ny":34,"refTime":"2022-09-27T00:00:00:Z","depth":"10","parameterNumber":3,"parameterNumberName":"V-component_of_CURRENTS"},"data":[0.0166,-0.0101,-0.0246,-0.0352,-0.0481,-0.0657,-0.0956,0,-0.0208,-0.1062,-0.1265,-0.1014,-0.1372,-0.1554,-0.181,-0.2104,-0.2152,-0.2114,-0.2007,-0.1831,-0.1543,-0.1062,-0.0358,0.0347,0.0545,0.0075,-0.0694,-0.0523,0.0005,0.0561,0.094,0.1233,0.1511,0.1692,0.181,0.1847,0.1789,0.1762,0.1927,0.2098,0.2162,0.2104,0.2018,0.197,0.2082,0.2029,0.0027,-0.0256,-0.0395,-0.0486,-0.0598,-0.0742,-0.0881,-0.0326,0,-0.1111,-0.134,-0.0796,-0.1361,-0.1463,-0.1548,-0.1778,-0.1885,-0.1885,-0.1815,-0.1709,-0.1543,-0.1265,-0.0817,-0.0144,0.0518,0.0603,0.0011,-0.0454,-0.0358,0.0144,0.0593,0.0796,0.0956,0.1068,0.1207,0.1233,0.1164,0.1132,0.1313,0.165,0.2007,0.2312,0.2515,0.2589,0.2563,0.2205,0.0075,-0.0304,-0.0486,-0.0566,-0.0641,-0.0705,-0.0758,-0.0699,-0.0256,-0.0934,-0.1244,0,-0.1212,-0.1324,-0.1351,-0.1468,-0.1623,-0.166,-0.1612,-0.1522,-0.1393,-0.1217,-0.0966,-0.0534,0.0096,0.0651,0.0694,0.024,-0.0069,0.0214,0.0753,0.0913,0.0908,0.0844,0.0822,0.0747,0.0657,0.0758,0.0844,0.118,0.1468,0.1858,0.2034,0.2146,0.189,0.1586,0.0262,-0.0208,-0.0491,-0.0603,-0.0678,-0.0747,-0.078,-0.0747,-0.0593,-0.0774,-0.0977,-0.0336,-0.0849,-0.1009,-0.094,-0.1297,-0.1383,-0.1442,-0.1426,-0.1356,-0.1244,-0.11,-0.0929,-0.0683,-0.0256,0.0331,0.0833,0.0913,0.0678,0.0598,0.0966,0.1137,0.1062,0.0817,0.0646,0.0507,0.0395,0.0534,0.0427,0.078,0.0913,0.1271,0.1297,0.1367,0.1132,0.0961,0.047,0.0032,-0.0326,-0.0555,-0.0673,-0.0747,-0.078,-0.0758,-0.0726,-0.0769,-0.0822,-0.0721,-0.0657,-0.0459,-0.0662,-0.1361,-0.1361,-0.1255,-0.1281,-0.1228,-0.1127,-0.0993,-0.0844,-0.0678,-0.0416,0.0032,0.0657,0.118,0.1324,0.1148,0.1212,0.1244,0.1111,0.0918,0.0822,0.0758,0.0657,0.0593,0.0427,0.0555,0.0598,0.078,0.0817,0.0822,0.0747,0.0614,0.0502,0.0331,0.0027,-0.0395,-0.0593,-0.0646,-0.0742,-0.0774,-0.0801,-0.0828,-0.0838,-0.079,-0.0673,-0.0326,0,-0.1511,-0.1367,-0.1223,-0.118,-0.1153,-0.1052,-0.0918,-0.0774,-0.0619,-0.0443,-0.0149,0.0395,0.1105,0.1532,0.1522,0.142,0.1265,0.0972,0.1062,0.1148,0.1159,0.1036,0.087,0.0683,0.0598,0.0577,0.0609,0.0662,0.0651,0.0614,0.0529,0.0448,0.0662,0.0406,-0.016,-0.032,-0.0235,-0.063,-0.0785,-0.0833,-0.0844,-0.0828,-0.0774,-0.0705,-0.0561,-0.0342,0,-0.1356,-0.1217,-0.1169,-0.1127,-0.102,-0.0892,-0.0737,-0.0571,-0.0406,-0.0203,0.0203,0.086,0.1447,0.1612,0.1527,0.134,0.086,0.0998,0.1191,0.1191,0.1052,0.0822,0.0587,0.0545,0.0481,0.0497,0.055,0.0561,0.0523,0.0518,0,0.087,0.0571,0.0027,0.0096,0.0091,-0.0673,-0.087,-0.0876,-0.086,-0.0822,-0.0758,-0.0662,-0.0593,-0.0625,-0.0326,0,-0.1212,-0.1319,-0.1132,-0.102,-0.0892,-0.0742,-0.0571,-0.0379,-0.0182,0.0133,0.0662,0.1239,0.1527,0.1543,0.1431,0.1062,0.0988,0.1164,0.1121,0.0956,0.055,0.0304,0.0358,0.031,0.032,0.0379,0.0406,0.039,0.0422,0,0.0646,0,-0.0192,0.0294,0,-0.0822,-0.0918,-0.0892,-0.0865,-0.0838,-0.079,-0.0705,-0.0518,-0.0598,-0.0657,-0.0283,0,-0.1078,-0.1062,-0.1004,-0.0908,-0.0774,-0.0614,-0.04,-0.0166,0.0133,0.0571,0.1057,0.1383,0.1495,0.1474,0.1351,0.1196,0.1185,0.1025,0.0726,0.0283,0.0064,0.0198,0.0187,0.0182,0.0214,0.0214,0.0198,0.024,0,0.0406,0.0,-0.047,0,0.0101,-0.0715,-0.0833,-0.0865,-0.086,-0.0876,-0.0865,-0.0817,-0.0432,-0.079,-0.0753,-0.0667,0,-0.0726,-0.1105,-0.1014,-0.0913,-0.0801,-0.0662,-0.0454,-0.0187,0.0112,0.0497,0.0913,0.1228,0.1383,0.1426,0.1426,0.1383,0.1239,0.0966,0.0566,0.0187,0.0069,0.0182,0.0176,0.0144,0.0107,0.0053,0.0021,0.0075,0,0,0,0,0,0.0198,-0.0545,-0.0731,-0.0812,-0.0849,-0.0918,-0.0982,-0.0998,0,-0.1041,-0.0908,-0.0587,0,0,-0.1127,-0.0993,-0.0892,-0.0796,-0.0683,-0.0507,-0.024,0.0059,0.039,0.0769,0.1068,0.1228,0.1297,0.1324,0.1324,0.1201,0.0908,0.0523,0.0251,0.0198,0.0262,0.0256,0.0182,0.0053,-0.0069,-0.0117,-0.0032,0,0,0,0,0,0,-0.0422,-0.0625,-0.0742,-0.0817,-0.0913,-0.0993,-0.1025,-0.0481,-0.1143,-0.1143,-0.0406,0,0,-0.0993,-0.0913,-0.0833,-0.0758,-0.0678,-0.0539,-0.0299,-0.0011,0.0288,0.0619,0.0902,0.1062,0.1132,0.1164,0.1159,0.1057,0.0812,0.0513,0.0304,0.0272,0.0326,0.0331,0.023,0.0037,-0.0139,-0.0198,-0.0085,0,0,0,0,0,0,-0.0203,-0.0491,-0.0662,-0.078,-0.0881,-0.094,-0.0982,-0.102,-0.1217,-0.1367,0,0,0,-0.0918,-0.086,-0.079,-0.0726,-0.0662,-0.0545,-0.0336,-0.0069,0.0203,0.0486,0.0737,0.0892,0.0966,0.0998,0.0993,0.0908,0.0721,0.0491,0.0331,0.0304,0.0352,0.0352,0.0235,0.0043,-0.0144,-0.0198,-0.0085,0,0,0,0,0,0,-0.008,-0.039,-0.0598,-0.0763,-0.0865,-0.094,-0.0982,-0.103,-0.1148,-0.1196,-0.0304,-0.0278,0,-0.0865,-0.0833,-0.078,-0.0715,-0.0651,-0.055,-0.0363,-0.0117,0.0128,0.0363,0.0571,0.0715,0.0801,0.0849,0.0849,0.0774,0.0625,0.0464,0.0358,0.0331,0.0336,0.0294,0.0171,0.0027,-0.0096,-0.0123,0.0,0,0,0,0,0,0,0,-0.0352,-0.0651,-0.0822,-0.0876,-0.094,-0.0961,-0.0977,-0.0982,-0.0929,-0.0689,-0.0662,0,-0.079,-0.0801,-0.0785,-0.071,-0.0635,-0.0539,-0.0374,-0.0166,0.0048,0.023,0.039,0.0518,0.063,0.0705,0.0721,0.0662,0.0555,0.047,0.0422,0.0384,0.0304,0.0187,0.0053,-0.0037,-0.0064,-0.0021,0.0123,0,0,0,-0.0182,0.023,0,0,0,-0.0806,-0.0886,-0.0881,-0.0924,-0.095,-0.0966,-0.0966,-0.0929,-0.0822,-0.0646,0,-0.0662,-0.0763,-0.0796,-0.0694,-0.0593,-0.0486,-0.0347,-0.0187,-0.0027,0.0096,0.0214,0.0326,0.0464,0.0593,0.0651,0.063,0.0577,0.0561,0.0539,0.0454,0.0294,0.0112,-0.0048,-0.0123,-0.0091,0.0021,0.0214,0,0,-0.0497,-0.0048,0.0459,-0.039,0.0,0.0,-0.0358,-0.0566,-0.0758,-0.086,-0.0929,-0.0966,-0.1009,-0.1041,-0.1084,-0.0529,0,-0.0497,-0.0737,-0.0774,-0.0641,-0.0497,-0.0384,-0.0267,-0.0155,-0.0053,0.0016,0.0101,0.0192,0.0336,0.0518,0.0651,0.0699,0.0699,0.0694,0.0651,0.0518,0.0315,0.0107,-0.0064,-0.0149,-0.0112,0.0,0.0219,0,0,-0.1564,0.0272,0.047,-0.078,0,0,-0.0085,-0.0358,-0.063,-0.0763,-0.086,-0.0929,-0.0998,-0.1089,-0.1228,0,0.0037,-0.04,-0.0667,-0.0673,-0.0513,-0.0342,-0.024,-0.0166,-0.0085,-0.0005,0.0037,0.0096,0.0155,0.0294,0.0502,0.071,0.0828,0.0844,0.0801,0.0705,0.0518,0.031,0.0139,0.0027,-0.0027,-0.0021,0.0021,0.0187,-0.0507,-0.0005,-0.0945,0,0,0,0,0,-0.0507,-0.055,-0.0609,-0.0657,-0.0731,-0.0812,-0.0849,-0.0886,-0.0865,-0.0166,-0.0133,-0.04,-0.0545,-0.0486,-0.031,-0.0149,-0.0085,-0.0059,0.0011,0.0107,0.0144,0.0166,0.0198,0.0304,0.0518,0.0763,0.0918,0.0924,0.0817,0.0662,0.0438,0.0256,0.0182,0.0166,0.0171,0.0198,0.0149,0.0208,-0.1009,0.0694,0.0758,0.0561,0.071,0,0,0,-0.0774,-0.071,-0.0619,-0.0571,-0.0593,-0.0646,-0.0577,-0.055,-0.0497,-0.0427,-0.0406,-0.0443,-0.0379,-0.0235,-0.0059,0.0075,0.0091,0.0064,0.0128,0.0267,0.0315,0.0251,0.023,0.0251,0.0481,0.0747,0.0956,0.094,0.078,0.0593,0.0395,0.0299,0.032,0.0336,0.0283,0.0416,0.0347,0.031,0,0.1265,0.1388,0.1303,0.1436,0.0886,0,0,-0.1105,-0.0844,-0.0598,-0.0513,-0.0534,-0.0614,-0.0182,-0.016,-0.0342,-0.0529,-0.0497,-0.0363,-0.0085,0.0107,0.0224,0.031,0.0294,0.0224,0.0235,0.0358,0.0481,0.0347,0.0288,0.0117,0.0379,0.0689,0.0988,0.0972,0.0785,0.0667,0.0598,0.0625,0.0683,0.0598,0.0336,0.0513,0.0491,0.0427,0.1004,0.1463,0.1639,0.1591,0.1516,0.157,0.0326,0.0117,-0.0998,-0.0529,-0.0294,-0.031,-0.0523,-0.0886,0.0059,0.0069,-0.0149,-0.0416,-0.0448,-0.0182,0.0342,0.0438,0.0443,0.0475,0.0475,0.04,0.032,0.047,0.0555,0.0406,0.0347,0.0085,0.0395,0.071,0.1052,0.1153,0.094,0.0993,0.0988,0.1137,0.1361,0.0817,0.0726,0.0507,0.0545,0.0486,0.2002,0.1762,0.1757,0.1709,0.158,0.1335,0.0742,0.0331,-0.0715,-0.0166,-0.0027,-0.0139,-0.0331,-0.0908,0,0,-0.0048,-0.0336,-0.0368,-0.0198,0.0587,0.0577,0.0523,0.0545,0.0555,0.0486,0.0358,0.0288,0,0,0,0.0571,0.0614,0.1004,0.1121,0.1393,0.1212,0.1164,0.094,0.1164,0.1773,0,0.1911,0.0486,0.0545,0.0497,0,0.1735,0.1709,0.1639,0.1484,0.1201,0.0817,0.0582,0.0267,0,0,0,-0.0246,-0.0502,0.0053,0.0272,0,-0.0443,-0.0518,-0.0481,0,0,0,0,0,0,0,0.0614,0.0182,0.0267,0.0363,0.1004,0.0801,0.1025,0,0,0.1249,0.1137,0.0737,0.1036,0.1805,0.0886,0.2696,0,0,0,0,0,0.1671,0.1479,0.1169,0.0865,0.0646,0.0657,0.1207,0.0545,0.0518,0.0427,0.0005,-0.0069,0.0171,0.0443,0.0064,-0.0363,-0.0561,-0.0609,-0.0075,0.0112,0.0278,0.0534,0.0646,0.0566,0.071,0.1217,0.0614,0.0689,0.0833,0.0972,0.0817,0.0603,0.0053,0.0368,0.1068,0.126,0,0,0,0.1741,0.2077,0.0555,0.0363,0,0,0,0,0.1399,0.0945,0.063,0.0486,0.0587,0.1164,0.0961,0.0876,0.0876,0.0577,0.0331,0.0262,0.0294,0.0128,-0.0149,-0.0358,-0.0513,-0.0085,0.023,0.0481,0.0854,0.1164,0.1009,0.1426,0.1228,0.087,0.0849,0.0892,0.095,0.0806,0.0358,-0.0187,0.0737,0.0774,0.126,0.0,0.0,0.087,0.1554,0.1404,0.1185,0.0763,0,0,0,0,0,0,0,0,0,0.1223,0.0833,0.0715,0.0924,0.0753,0.0459,0.0267,0.0214,0.0128,-0.0032,-0.0208,-0.0678,-0.0016,0.024,0.04,0.0641,0.1036,0.0881,0,0,0,0,0.0849,0.0902,0.0785,0.0384,-0.039,0,0,0,0,0,0.1805,0.1207,0.1057,0.1207,0.086,0,0,0,0,0,0,0,0,0,0,0,0,0.0945,0.0699,0.0411,0.0251,0.0192,0.0128,0.0021,-0.0123,-0.079,0,0,0,0,0,0,0,0,0,0,0,0,0.0796,0.0459,-0.0304,0,0,0,0,0,0.1943,0.0945,0.0844,0.1078,0.0945,0,0,0,0,0,0,0,0,0,0,0,0,0,0,0,0,0,0,0,0,0,0,0,0,0,0,0,0,0,0,0,0,0,0,0,0,0,0,0,0,0,0.197,0.0913,0.0689,0.0854,0.0828,0,0,0,0,0,0,0,0,0,0,0,0,0,0,0,0,0,0,0,0,0,0,0,0,0,0,0,0,0,0,0,0,0,0,0,0,0,0,0,0,0,0.1874,0.1185,0.0619,0.0651,0.0598,0,0,0,0,0,0,0,0,0,0,0,0,0,0,0,0,0,0,0,0,0,0,0,0,0,0,0,0,0,0,0,0,0,0,0,0,0,0,0,0,0,0,0.1538,0.0796,0.0657,0.0614,0,0,0,0,0,0,0,0,0,0,0,0,0,0,0,0,0,0,0,0,0,0,0,0,0,0,0,0,0,0,0,0,0,0,0,0,0,0,0,0,0,0,0.1666,0.0977,0.0758,0.078,0,0,0,0,0,0,0,0,0,0,0,0,0,0,0,0,0,0,0,0,0,0,0,0,0,0,0,0,0,0,0,0,0,0,0,0,0,0,0,0,0,0,0.157,0.0993,0.0854,0.0849,0,0,0,0,0,0,0,0,0,0,0,0,0,0,0,0,0,0,0,0,0,0,0,0,0,0,0,0,0,0,0,0,0,0,0,0,0,0,0,0,0,0,0.1447,0.1303,0.0982,0.0886,0]}]],[[{"header":{"parameterUnit":"kt","parameterCategory":2,"dx":1,"dy":1,"la1":29.46422004699707,"la2":30.564109802246094,"lo1":-89.4342041015625,"lo2":-87.934326171875,"nx":46,"ny":34,"refTime":"2022-09-27T00:00:00:Z","depth":"12","parameterNumber":2,"parameterNumberName":"U-component_of_CURRENTS"},"data":[0,0,0,0,0,0,0,0,0,0,0,0,0,0,0,-0.11,-0.1426,-0.1751,-0.2013,-0.2178,-0.2168,-0.1911,-0.1404,-0.087,-0.0523,-0.0609,-0.1127,-0.1618,-0.1719,-0.1612,-0.1591,-0.1586,-0.1506,-0.1351,-0.1143,-0.0929,-0.0715,-0.0422,0.0016,0.0561,0.1121,0.1612,0.1863,0.1794,0.1548,0.1426,0,0,0,0,0,0,0,0,0,0,0,0,0,0,0,0,-0.1303,-0.1607,-0.1863,-0.2066,-0.2221,-0.2232,-0.1965,-0.142,-0.0828,-0.0491,-0.0587,-0.0993,-0.1351,-0.149,-0.1575,-0.1709,-0.1842,-0.1853,-0.1799,-0.1799,-0.1676,-0.1447,-0.1239,-0.0998,-0.071,-0.0438,-0.0251,-0.0101,0.0155,0.0641,0,0,0,0,0,0,0,0,0,0,0,0,0,0,0,0,-0.1303,-0.1463,-0.1692,-0.189,-0.2029,-0.2136,-0.2109,-0.1815,-0.1255,-0.0689,-0.0422,-0.0566,-0.0924,-0.1249,-0.1538,-0.1847,-0.2189,-0.2451,-0.2584,-0.268,-0.275,-0.2798,-0.2862,-0.2862,-0.2702,-0.2429,-0.205,-0.1548,-0.0844,0.0043,0,0,0,0,0,0,0,0,0,0,0,0,0,0,0,0,0,-0.1468,-0.1564,-0.1719,-0.1831,-0.1911,-0.1954,-0.1879,-0.1559,-0.1036,-0.0577,-0.0443,-0.071,-0.1281,-0.173,-0.2061,-0.2488,-0.2888,-0.3097,-0.3161,-0.3193,-0.3177,-0.3123,-0.292,-0.2595,-0.2173,-0.1628,-0.0956,-0.0219,0.0406,0,0,0,0,0,0,0,0,0,0,0,0,0,0,0,0,0,0,-0.1522,-0.1554,-0.1639,-0.1676,-0.1703,-0.1698,-0.158,-0.1265,-0.0806,-0.0486,-0.0454,-0.071,-0.1137,-0.1426,-0.1484,-0.1463,-0.1468,-0.158,-0.1783,-0.1965,-0.1991,-0.1799,-0.1458,-0.1025,-0.0566,-0.0101,0.0299,0.0598,0,0,0,0,0,0,0,0,0,0,0,0,0,0,0,0,0,0,0,-0.1393,-0.1426,-0.1436,-0.1426,-0.1415,-0.1383,-0.1249,-0.0929,-0.0539,-0.0304,-0.0283,-0.0395,-0.0539,-0.0587,-0.0539,-0.0555,-0.063,-0.0667,-0.0603,-0.0491,-0.0336,-0.0112,0.0149,0.0416,0.0689,0.0966,0.1212,0,0,0,0,0,0,0,0,0,0,0,0,0,0,0,0,0,0,0,-0.1217,-0.1196,-0.1191,-0.1148,-0.1105,-0.1084,-0.1046,-0.0908,-0.0619,-0.0315,-0.0139,-0.0096,-0.0198,-0.0395,-0.0464,-0.0422,-0.0411,-0.0427,-0.0331,-0.0043,0.0251,0.0464,0.0662,0.0876,0.1095,0.1308,0.1506,0,0,0,0,0,0,0,0,0,0,0,0,0,0,0,0,0,0,0,0,-0.0961,-0.0956,-0.0902,-0.0828,-0.0785,-0.0769,-0.0737,-0.0619,-0.0379,-0.0139,0.0005,0.0016,-0.0214,-0.0464,-0.0534,-0.0513,-0.0406,-0.024,0.0053,0.0368,0.0566,0.071,0.087,0.1052,0.1249,0.1436,0,0,0,0,0,0,0,0,0,0,0,0,0,0,0,0,0,0,0,0,-0.0721,-0.0731,-0.0699,-0.0625,-0.0555,-0.0523,-0.0513,-0.0475,-0.0342,-0.0133,0.0059,0.0182,0.0149,-0.0107,-0.0336,-0.0342,-0.0182,0.0027,0.0272,0.0529,0.0667,0.0731,0.0817,0.0956,0.1127,0.1292,0,0,0,0,0,0,0,0,0,0,0,0,0,0,0,0,0,0,0,0,-0.0561,-0.0523,-0.0523,-0.0475,-0.0411,-0.0363,-0.0336,-0.0294,-0.0203,-0.0059,0.0117,0.0278,0.0406,0.0464,0.0443,0.0443,0.0529,0.0646,0.0742,0.0806,0.0812,0.0796,0.0833,0.0945,0.1084,0.1201,0,0,0,0,0,0,0,0,0,0,0,0,0,0,0,0,0,0,0,0,0,-0.0278,-0.0336,-0.0342,-0.0315,-0.0278,-0.0235,-0.0176,-0.0091,0.0027,0.0187,0.0352,0.0513,0.0678,0.0838,0.0988,0.1084,0.1089,0.103,0.0966,0.0908,0.087,0.0886,0.0972,0.1084,0.1159,0,0,0,0,0,0,0,0,0,0,0,0,0,0,0,0,0,0,0,0,0,-0.0128,-0.0192,-0.0224,-0.023,-0.0208,-0.0176,-0.0128,-0.0048,0.0064,0.0203,0.0368,0.0534,0.071,0.0886,0.103,0.1105,0.11,0.1068,0.103,0.1004,0.0988,0.1004,0.1052,0.11,0.1121,0,0,0,0,0,0,0,0,0,0,0,0,0,0,0,0,0,0,0,0,0,-0.0037,-0.0096,-0.0123,-0.0144,-0.0144,-0.0133,-0.0101,-0.0032,0.0075,0.0208,0.0352,0.0502,0.0667,0.0833,0.0961,0.102,0.1009,0.0988,0.0993,0.1036,0.1095,0.1153,0.1185,0.1159,0.11,0,0,0,0,0,0,0,0,0,0,0,0,0,0,0,0,0,0,0,0,0,0.0,-0.0032,-0.0053,-0.0075,-0.0091,-0.0096,-0.0075,-0.0016,0.0091,0.0224,0.0352,0.0475,0.0593,0.071,0.0785,0.0812,0.0801,0.0806,0.0854,0.0956,0.1095,0.1212,0.1249,0.1185,0.1068,0,0,0,0,0,0,0,0,0,0,0,0,0,0,0,0,0,0,0,0,0,0.0011,0.0,-0.0032,-0.008,-0.0128,-0.0149,-0.0139,-0.0085,0.0016,0.0144,0.0272,0.0374,0.0459,0.0513,0.0545,0.0561,0.0571,0.0587,0.0635,0.0742,0.0881,0.1009,0.1068,0.103,0.0929,0,0,0,0,0,0,0,0,0,0,0,0,0,0,0,0,0,0,0,0,0,-0.0005,-0.0021,-0.0085,-0.0182,-0.0267,-0.0326,-0.0326,-0.0272,-0.0176,-0.0043,0.0101,0.0219,0.0294,0.0326,0.0342,0.0347,0.0347,0.0347,0.0374,0.0427,0.0502,0.0577,0.0625,0.063,0.0603,0,0,0,0,0,0,0,0,0,0,0,0,0,0,0,0,0,0,0,0,0.0016,0.0011,-0.0064,-0.0182,-0.0315,-0.0422,-0.0481,-0.0491,-0.0459,-0.039,-0.0288,-0.016,-0.0043,0.0037,0.0069,0.0075,0.008,0.0096,0.0117,0.0144,0.016,0.0144,0.0096,0.0059,0.0064,0.0096,0,0,0,0,0,0,0,0,0,0,0,0,0,0,0,0,0,0,0,0,0.023,0.0091,-0.0096,-0.0283,-0.0438,-0.0539,-0.0587,-0.0619,-0.063,-0.0619,-0.0582,-0.0518,-0.0438,-0.0358,-0.0315,-0.0283,-0.0246,-0.0176,-0.0085,-0.0005,0.0011,-0.0064,-0.0224,-0.0395,-0.0502,-0.0507,0,0,0,0,0,0,0,0,0,0,0,0,0,0,0,0,0,0,0,0,0.0256,0.0075,-0.016,-0.0379,-0.0545,-0.0635,-0.0683,-0.0742,-0.0817,-0.0865,-0.087,-0.0828,-0.0747,-0.0662,-0.0603,-0.0561,-0.0513,-0.0427,-0.0315,-0.0219,-0.0203,-0.0288,-0.0448,-0.0662,-0.0876,-0.0998,0,0,0,0,0,0,0,0,0,0,0,0,0,0,0,0,0,0,0,0.0331,0.0288,0.0053,-0.0224,-0.0464,-0.0635,-0.0721,-0.0763,-0.0838,-0.0966,-0.1068,-0.1084,-0.0998,-0.0838,-0.0699,-0.063,-0.0614,-0.0587,-0.055,-0.0523,-0.0566,-0.0683,-0.0828,-0.0892,-0.0972,-0.1143,-0.1297,0,0,0,0,0,0,0,0,0,0,0,0,0,0,0,0,0,0,0,0.0304,0.0256,-0.0016,-0.031,-0.0518,-0.0662,-0.0769,-0.0833,-0.0918,-0.103,-0.1127,-0.1164,-0.1095,-0.0934,-0.0753,-0.0614,-0.0539,-0.0491,-0.0486,-0.0598,-0.0865,-0.1137,-0.1287,-0.1351,-0.1383,-0.1415,-0.1484,0,0,0,0,0,0,0,0,0,0,0,0,0,0,0,0,0,0,0,0,-0.0128,-0.0299,-0.047,-0.0545,-0.0598,-0.071,-0.0902,0,-0.1223,-0.1046,-0.0956,-0.0977,-0.102,-0.0934,-0.071,-0.0406,-0.0283,-0.0304,-0.0422,-0.0721,0,-0.1207,0,-0.1634,-0.1522,-0.1522,0,0,0,0,0,0,0,0,0,0,0,0,0,0,0,0,0,0,0,0,0,-0.0908,-0.0726,-0.0571,-0.0422,0,0,0,0,0,0,0,0,0,-0.0876,0.0037,0,0,0,0,0,0,0,0,0,0,0,0,0,0,0,0,0,0,0,0,0,0,0,0,0,0,0,0,0,0,0,0,0,0,0,0,0,0,0,0,0,0,0,0,0,0,0,0,0,0,0,0,0,0,0,0,0,0,0,0,0,0,0,0,0,0,0,0,0,0,0,0,0,0,0,0,0,0,0,0,0,0,0,0,0,0,0,0,0,0,0,0,0,0,0,0,0,0,0,0,0,0,0,0,0,0,0,0,0,0,0,0,0,0,0,0,0,0,0,0,0,0,0,0,0,0,0,0,0,0,0,0,0,0,0,0,0,0,0,0,0,0,0,0,0,0,0,0,0,0,0,0,0,0,0,0,0,0,0,0,0,0,0,0,0,0,0,0,0,0,0,0,0,0,0,0,0,0,0,0,0,0,0,0,0,0,0,0,0,0,0,0,0,0,0,0,0,0,0,0,0,0,0,0,0,0,0,0,0,0,0,0,0,0,0,0,0,0,0,0,0,0,0,0,0,0,0,0,0,0,0,0,0,0,0,0,0,0,0,0,0,0,0,0,0,0,0,0,0,0,0,0,0,0,0,0,0,0,0,0,0,0,0,0,0,0,0,0,0,0,0,0,0,0,0,0,0,0,0,0,0,0,0,0,0,0,0,0,0,0,0,0,0,0,0,0,0,0,0,0,0,0,0,0,0,0,0,0,0,0,0,0,0,0,0,0,0,0,0,0,0,0,0,0,0,0,0,0,0,0,0,0,0,0,0,0,0,0,0,0,0,0,0,0,0,0,0,0,0,0,0,0,0,0,0,0,0,0,0,0,0,0,0,0,0,0,0,0,0,0,0,0,0,0,0,0,0,0,0,0,0,0,0,0,0,0,0,0,0,0,0,0,0,0,0,0,0,0,0,0,0,0,0,0,0,0,0,0,0,0,0,0,0,0,0,0,0,0,0,0,0,0,0,0,0,0,0,0,0,0,0,0,0,0,0,0,0,0,0,0,0,0,0,0,0,0,0,0,0,0,0,0,0,0,0,0,0,0,0,0,0,0,0,0,0,0,0,0,0,0,0,0,0,0,0,0,0,0,0,0,0,0,0,0,0,0,0,0,0,0,0,0,0,0,0,0,0,0,0,0,0,0,0,0,0,0,0,0,0,0,0,0,0,0,0,0]}],[{"header":{"parameterUnit":"kt","parameterCategory":2,"dx":1,"dy":1,"la1":29.46422004699707,"la2":30.564109802246094,"lo1":-89.4342041015625,"lo2":-87.934326171875,"nx":46,"ny":34,"refTime":"2022-09-27T00:00:00:Z","depth":"12","parameterNumber":3,"parameterNumberName":"V-component_of_CURRENTS"},"data":[0,0,0,0,0,0,0,0,0,0,0,0,0,0,0,-0.1805,-0.1949,-0.1954,-0.1879,-0.173,-0.1452,-0.0982,-0.0283,0.0416,0.0619,0.0171,-0.0603,-0.0443,0.0075,0.0625,0.1004,0.1303,0.1575,0.1757,0.1869,0.1906,0.1853,0.1826,0.1997,0.2173,0.2237,0.2184,0.2098,0.2061,0.2173,0.2136,0,0,0,0,0,0,0,0,0,0,0,0,0,0,0,0,-0.1618,-0.1682,-0.1666,-0.1586,-0.1442,-0.1169,-0.0731,-0.0069,0.0587,0.0678,0.0101,-0.0368,-0.0283,0.0208,0.0657,0.086,0.1025,0.1137,0.1265,0.1292,0.1228,0.1185,0.1377,0.1714,0.2082,0.2392,0.2605,0.2686,0.267,0.2312,0,0,0,0,0,0,0,0,0,0,0,0,0,0,0,0,-0.1484,-0.1426,-0.142,-0.1388,-0.1281,-0.1121,-0.0876,-0.0454,0.0166,0.0715,0.0769,0.0326,0.0011,0.0283,0.0822,0.0988,0.0988,0.0929,0.0902,0.0828,0.0742,0.0838,0.0929,0.126,0.1559,0.1949,0.2136,0.2242,0.1997,0.1671,0,0,0,0,0,0,0,0,0,0,0,0,0,0,0,0,0,-0.1308,-0.1217,-0.1201,-0.1121,-0.0993,-0.0838,-0.0598,-0.0182,0.04,0.0902,0.0982,0.0758,0.0678,0.1041,0.1223,0.1153,0.0918,0.0758,0.0619,0.0507,0.0641,0.0555,0.0886,0.1025,0.1372,0.141,0.1468,0.1233,0.1041,0,0,0,0,0,0,0,0,0,0,0,0,0,0,0,0,0,0,-0.1132,-0.1057,-0.0998,-0.0886,-0.0758,-0.0598,-0.0347,0.0101,0.0726,0.1244,0.1393,0.1228,0.1292,0.1324,0.1196,0.1009,0.0918,0.0854,0.0758,0.0699,0.0545,0.0662,0.071,0.0881,0.0918,0.0913,0.0838,0.0699,0,0,0,0,0,0,0,0,0,0,0,0,0,0,0,0,0,0,0,-0.0988,-0.0918,-0.0817,-0.0683,-0.0545,-0.0374,-0.008,0.0464,0.1169,0.1596,0.1596,0.15,0.134,0.1052,0.1132,0.1217,0.1233,0.1111,0.0945,0.0763,0.0673,0.0651,0.0683,0.0742,0.0726,0.0689,0.0609,0,0,0,0,0,0,0,0,0,0,0,0,0,0,0,0,0,0,0,-0.1004,-0.0886,-0.079,-0.0651,-0.0497,-0.0336,-0.0139,0.0262,0.0924,0.1511,0.1682,0.1607,0.142,0.0945,0.1073,0.126,0.126,0.1116,0.0892,0.0657,0.0609,0.0539,0.0555,0.0609,0.0619,0.0587,0.0582,0,0,0,0,0,0,0,0,0,0,0,0,0,0,0,0,0,0,0,0,-0.0886,-0.0796,-0.0657,-0.0491,-0.031,-0.0123,0.0192,0.0721,0.1303,0.1596,0.1618,0.1511,0.1148,0.1068,0.1239,0.1196,0.1025,0.0619,0.0368,0.0416,0.0363,0.0374,0.0427,0.0454,0.0438,0.0475,0,0,0,0,0,0,0,0,0,0,0,0,0,0,0,0,0,0,0,0,-0.0897,-0.0806,-0.0689,-0.0534,-0.0331,-0.0107,0.0187,0.0619,0.1111,0.1442,0.1559,0.1543,0.1426,0.1271,0.126,0.1095,0.0796,0.0352,0.0133,0.0256,0.0246,0.024,0.0267,0.0267,0.0251,0.0294,0,0,0,0,0,0,0,0,0,0,0,0,0,0,0,0,0,0,0,0,-0.0945,-0.0817,-0.0721,-0.0587,-0.039,-0.0128,0.0166,0.0545,0.0961,0.1276,0.1436,0.1484,0.149,0.1447,0.1303,0.1025,0.0625,0.0246,0.0128,0.0235,0.0235,0.0203,0.0166,0.0112,0.008,0.0133,0,0,0,0,0,0,0,0,0,0,0,0,0,0,0,0,0,0,0,0,0,-0.0801,-0.0721,-0.0619,-0.0443,-0.0182,0.0112,0.0443,0.0817,0.1111,0.1276,0.1345,0.1377,0.1377,0.1255,0.0961,0.0582,0.0304,0.0251,0.0315,0.031,0.0235,0.0112,-0.0011,-0.0059,0.0027,0,0,0,0,0,0,0,0,0,0,0,0,0,0,0,0,0,0,0,0,0,-0.0747,-0.0694,-0.0614,-0.0475,-0.024,0.0048,0.0342,0.0673,0.0945,0.1105,0.1175,0.1212,0.1207,0.1105,0.0865,0.0566,0.0363,0.0331,0.0384,0.0384,0.0283,0.0091,-0.0085,-0.0144,-0.0032,0,0,0,0,0,0,0,0,0,0,0,0,0,0,0,0,0,0,0,0,0,-0.071,-0.0662,-0.0598,-0.0486,-0.0278,-0.0011,0.0256,0.0539,0.0785,0.0934,0.1009,0.1041,0.1041,0.0956,0.0774,0.0555,0.0395,0.0368,0.0411,0.0406,0.0283,0.0091,-0.0091,-0.0149,-0.0032,0,0,0,0,0,0,0,0,0,0,0,0,0,0,0,0,0,0,0,0,0,-0.0694,-0.0646,-0.0582,-0.0475,-0.0294,-0.0053,0.0187,0.0422,0.0625,0.0763,0.0849,0.0897,0.0897,0.0828,0.0694,0.0539,0.0432,0.04,0.039,0.0342,0.0219,0.0069,-0.0048,-0.0075,0.0048,0,0,0,0,0,0,0,0,0,0,0,0,0,0,0,0,0,0,0,0,0,-0.0694,-0.0625,-0.0545,-0.0443,-0.0283,-0.008,0.0123,0.0299,0.0454,0.0582,0.0689,0.0769,0.079,0.0737,0.0641,0.0555,0.0502,0.0448,0.0358,0.0235,0.0101,0.0011,-0.0021,0.0021,0.0171,0,0,0,0,0,0,0,0,0,0,0,0,0,0,0,0,0,0,0,0,0,-0.0694,-0.0593,-0.0481,-0.0374,-0.0235,-0.0075,0.0075,0.0192,0.0304,0.0411,0.0545,0.0673,0.0737,0.0721,0.0673,0.0651,0.0614,0.0518,0.0352,0.0166,0.0005,-0.0075,-0.0037,0.0069,0.0262,0,0,0,0,0,0,0,0,0,0,0,0,0,0,0,0,0,0,0,0,-0.0683,-0.0667,-0.0523,-0.0374,-0.0262,-0.0149,-0.0032,0.0069,0.0133,0.0214,0.0288,0.0432,0.0614,0.0753,0.0806,0.0806,0.079,0.0731,0.0587,0.0379,0.0171,0.0,-0.0085,-0.0048,0.0059,0.0272,0,0,0,0,0,0,0,0,0,0,0,0,0,0,0,0,0,0,0,0,-0.0571,-0.0561,-0.0395,-0.0224,-0.0128,-0.0053,0.0037,0.0123,0.0166,0.0214,0.0267,0.0395,0.0603,0.0817,0.0934,0.095,0.0892,0.0785,0.0587,0.0379,0.0208,0.0096,0.0043,0.0048,0.0085,0.0251,0,0,0,0,0,0,0,0,0,0,0,0,0,0,0,0,0,0,0,0,-0.0438,-0.0384,-0.0208,-0.0053,0.0011,0.0048,0.0139,0.024,0.0267,0.0272,0.0299,0.0411,0.0619,0.086,0.1014,0.1014,0.0897,0.0726,0.0497,0.032,0.0251,0.024,0.0246,0.0267,0.0219,0.0283,0,0,0,0,0,0,0,0,0,0,0,0,0,0,0,0,0,0,0,-0.0368,-0.0256,-0.0139,0.0027,0.0155,0.0176,0.0171,0.0256,0.0395,0.0406,0.0331,0.0315,0.0347,0.0577,0.0838,0.1036,0.1014,0.0849,0.0657,0.0464,0.0374,0.04,0.0422,0.0363,0.0486,0.0416,0.0384,0,0,0,0,0,0,0,0,0,0,0,0,0,0,0,0,0,0,0,-0.024,0.0069,0.0198,0.0299,0.0379,0.0368,0.0315,0.0331,0.0438,0.0534,0.04,0.0352,0.0208,0.0475,0.078,0.1062,0.1068,0.0913,0.0801,0.0726,0.0731,0.0763,0.0694,0.0448,0.0577,0.055,0.0491,0,0,0,0,0,0,0,0,0,0,0,0,0,0,0,0,0,0,0,0,0.0432,0.0502,0.0507,0.0539,0.0529,0.0443,0.0347,0,0.0577,0.0448,0.039,0.0123,0.0432,0.0763,0.1111,0.1303,0.1153,0.1169,0.1078,0.1143,0,0.0833,0,0.0523,0.0566,0.0518,0,0,0,0,0,0,0,0,0,0,0,0,0,0,0,0,0,0,0,0,0,0.0598,0.0555,0.0577,0.0582,0,0,0,0,0,0,0,0,0,0.1111,0.1388,0,0,0,0,0,0,0,0,0,0,0,0,0,0,0,0,0,0,0,0,0,0,0,0,0,0,0,0,0,0,0,0,0,0,0,0,0,0,0,0,0,0,0,0,0,0,0,0,0,0,0,0,0,0,0,0,0,0,0,0,0,0,0,0,0,0,0,0,0,0,0,0,0,0,0,0,0,0,0,0,0,0,0,0,0,0,0,0,0,0,0,0,0,0,0,0,0,0,0,0,0,0,0,0,0,0,0,0,0,0,0,0,0,0,0,0,0,0,0,0,0,0,0,0,0,0,0,0,0,0,0,0,0,0,0,0,0,0,0,0,0,0,0,0,0,0,0,0,0,0,0,0,0,0,0,0,0,0,0,0,0,0,0,0,0,0,0,0,0,0,0,0,0,0,0,0,0,0,0,0,0,0,0,0,0,0,0,0,0,0,0,0,0,0,0,0,0,0,0,0,0,0,0,0,0,0,0,0,0,0,0,0,0,0,0,0,0,0,0,0,0,0,0,0,0,0,0,0,0,0,0,0,0,0,0,0,0,0,0,0,0,0,0,0,0,0,0,0,0,0,0,0,0,0,0,0,0,0,0,0,0,0,0,0,0,0,0,0,0,0,0,0,0,0,0,0,0,0,0,0,0,0,0,0,0,0,0,0,0,0,0,0,0,0,0,0,0,0,0,0,0,0,0,0,0,0,0,0,0,0,0,0,0,0,0,0,0,0,0,0,0,0,0,0,0,0,0,0,0,0,0,0,0,0,0,0,0,0,0,0,0,0,0,0,0,0,0,0,0,0,0,0,0,0,0,0,0,0,0,0,0,0,0,0,0,0,0,0,0,0,0,0,0,0,0,0,0,0,0,0,0,0,0,0,0,0,0,0,0,0,0,0,0,0,0,0,0,0,0,0,0,0,0,0,0,0,0,0,0,0,0,0,0,0,0,0,0,0,0,0,0,0,0,0,0,0,0,0,0,0,0,0,0,0,0,0,0,0,0,0,0,0,0,0,0,0,0,0,0,0,0,0,0,0,0,0,0,0,0,0,0,0,0,0,0,0,0,0,0,0,0,0,0,0,0,0,0,0,0,0,0,0,0,0,0,0,0,0,0,0,0,0,0,0,0,0,0,0,0,0,0,0,0,0,0,0,0,0,0,0,0,0,0,0,0,0]}]],[[{"header":{"parameterUnit":"kt","parameterCategory":2,"dx":1,"dy":1,"la1":29.46422004699707,"la2":30.564109802246094,"lo1":-89.4342041015625,"lo2":-87.934326171875,"nx":46,"ny":34,"refTime":"2022-09-27T00:00:00:Z","depth":"15","parameterNumber":2,"parameterNumberName":"U-component_of_CURRENTS"},"data":[0,0,0,0,0,0,0,0,0,0,0,0,0,0,0,0,0,-0.1522,-0.181,-0.2029,-0.204,-0.1799,-0.1308,-0.079,-0.0464,-0.0571,-0.11,-0.1586,-0.1676,-0.1564,-0.1532,-0.1527,-0.1452,-0.1303,-0.1095,-0.0881,-0.0662,-0.0374,0.0064,0.0609,0.118,0.1676,0.1933,0.1879,0.1655,0.1554,0,0,0,0,0,0,0,0,0,0,0,0,0,0,0,0,0,0,-0.1644,-0.1794,-0.2018,-0.2072,-0.1847,-0.1329,-0.0763,-0.0443,-0.055,-0.0961,-0.1319,-0.1447,-0.1516,-0.1639,-0.1762,-0.1773,-0.1735,-0.1751,-0.1628,-0.1393,-0.1185,-0.0945,-0.0651,-0.0374,-0.0176,-0.0011,0.0267,0.0753,0,0,0,0,0,0,0,0,0,0,0,0,0,0,0,0,0,0,0,-0.1682,-0.1746,-0.1885,-0.1949,-0.1709,-0.1185,-0.0635,-0.0384,-0.0534,-0.0892,-0.1207,-0.1479,-0.1783,-0.2114,-0.2365,-0.2493,-0.2584,-0.2648,-0.2696,-0.276,-0.2755,-0.2595,-0.2317,-0.1933,-0.1426,-0.0726,0.0128,0,0,0,0,0,0,0,0,0,0,0,0,0,0,0,0,0,0,0,0,-0.1634,-0.1655,-0.1714,-0.1735,-0.1474,-0.0982,-0.0534,-0.0406,-0.0683,-0.1244,-0.1666,-0.197,-0.2365,-0.2739,-0.2931,-0.2985,-0.3006,-0.2974,-0.2915,-0.2734,-0.244,-0.2034,-0.1506,-0.0844,-0.0128,0.047,0,0,0,0,0,0,0,0,0,0,0,0,0,0,0,0,0,0,0,0,0,-0.149,-0.1474,-0.1522,-0.1468,-0.1196,-0.0763,-0.0448,-0.0422,-0.0673,-0.1078,-0.1335,-0.1367,-0.1335,-0.1335,-0.1442,-0.1639,-0.181,-0.1837,-0.166,-0.1335,-0.0918,-0.047,-0.0021,0.0368,0.0651,0,0,0,0,0,0,0,0,0,0,0,0,0,0,0,0,0,0,0,0,0,-0.1303,-0.1249,-0.1255,-0.1265,-0.1164,-0.0876,-0.0497,-0.0267,-0.0246,-0.0342,-0.047,-0.0502,-0.0454,-0.047,-0.0555,-0.0582,-0.0523,-0.0406,-0.0262,-0.0037,0.0219,0.0481,0.0753,0.1025,0.126,0,0,0,0,0,0,0,0,0,0,0,0,0,0,0,0,0,0,0,0,0,-0.11,-0.102,-0.0988,-0.0982,-0.0961,-0.0844,-0.0571,-0.0272,-0.0091,-0.0043,-0.0128,-0.031,-0.0379,-0.0347,-0.0336,-0.0358,-0.0262,0.0027,0.0315,0.0518,0.0715,0.0924,0.1143,0.1356,0.1548,0,0,0,0,0,0,0,0,0,0,0,0,0,0,0,0,0,0,0,0,0,0,-0.0812,-0.0742,-0.0705,-0.0694,-0.0673,-0.0561,-0.0331,-0.0085,0.0064,0.008,-0.0128,-0.0379,-0.0454,-0.0432,-0.0331,-0.0166,0.0123,0.0427,0.0614,0.0758,0.0913,0.11,0.1297,0.1479,0,0,0,0,0,0,0,0,0,0,0,0,0,0,0,0,0,0,0,0,0,0,-0.063,-0.0555,-0.0486,-0.0454,-0.0454,-0.0411,-0.0283,-0.0075,0.0117,0.024,0.0219,-0.0032,-0.0262,-0.0267,-0.0107,0.0101,0.0342,0.0587,0.0715,0.0774,0.0865,0.1004,0.1175,0.1335,0,0,0,0,0,0,0,0,0,0,0,0,0,0,0,0,0,0,0,0,0,0,-0.047,-0.0422,-0.0358,-0.0304,-0.0278,-0.0235,-0.0139,0.0005,0.0176,0.0336,0.0464,0.0518,0.0507,0.0507,0.0598,0.0715,0.0806,0.086,0.0854,0.0844,0.0881,0.0993,0.1132,0.1244,0,0,0,0,0,0,0,0,0,0,0,0,0,0,0,0,0,0,0,0,0,0,-0.0299,-0.0294,-0.0267,-0.0224,-0.0182,-0.0123,-0.0032,0.0091,0.0246,0.0406,0.0566,0.0726,0.0886,0.1036,0.1132,0.1148,0.1089,0.102,0.0956,0.0913,0.0934,0.102,0.1127,0.1207,0,0,0,0,0,0,0,0,0,0,0,0,0,0,0,0,0,0,0,0,0,0,-0.0155,-0.0182,-0.0187,-0.016,-0.0123,-0.0075,0.0011,0.0128,0.0262,0.0422,0.0582,0.0758,0.0934,0.1084,0.1159,0.1164,0.1132,0.1089,0.1052,0.103,0.1046,0.1095,0.1143,0.1164,0,0,0,0,0,0,0,0,0,0,0,0,0,0,0,0,0,0,0,0,0,0,-0.0059,-0.0085,-0.0101,-0.0101,-0.008,-0.0048,0.0021,0.0133,0.0267,0.0406,0.0555,0.0715,0.0881,0.102,0.1089,0.1089,0.1062,0.1052,0.1078,0.1132,0.1196,0.1223,0.1201,0.1148,0,0,0,0,0,0,0,0,0,0,0,0,0,0,0,0,0,0,0,0,0,0,0.0011,-0.0011,-0.0032,-0.0043,-0.0043,-0.0021,0.0032,0.0139,0.0272,0.0406,0.0529,0.0651,0.0774,0.0865,0.0902,0.0897,0.0881,0.0908,0.0993,0.1127,0.1249,0.1287,0.1228,0.1116,0,0,0,0,0,0,0,0,0,0,0,0,0,0,0,0,0,0,0,0,0,0,0.0048,0.0021,-0.0027,-0.0064,-0.0085,-0.0075,-0.0021,0.0075,0.0208,0.0342,0.0454,0.0539,0.0614,0.0657,0.0678,0.0667,0.0657,0.0683,0.078,0.0918,0.1046,0.1105,0.1073,0.0977,0,0,0,0,0,0,0,0,0,0,0,0,0,0,0,0,0,0,0,0,0,0,0.0043,-0.0016,-0.0107,-0.0192,-0.0251,-0.0251,-0.0198,-0.0096,0.0043,0.0192,0.0315,0.0406,0.0454,0.0475,0.0464,0.0438,0.0411,0.0416,0.047,0.0545,0.0619,0.0667,0.0678,0.0651,0,0,0,0,0,0,0,0,0,0,0,0,0,0,0,0,0,0,0,0,0,0,0.0016,-0.0101,-0.0235,-0.0347,-0.0406,-0.0411,-0.0374,-0.0304,-0.0198,-0.0064,0.0069,0.0171,0.0214,0.0219,0.0198,0.0182,0.0187,0.0203,0.0214,0.0192,0.0149,0.0117,0.0123,0.016,0,0,0,0,0,0,0,0,0,0,0,0,0,0,0,0,0,0,0,0,0,0.0133,-0.0016,-0.0208,-0.0374,-0.047,-0.0518,-0.0539,-0.0545,-0.0534,-0.0502,-0.0427,-0.0315,-0.0214,-0.0155,-0.0139,-0.0128,-0.0085,-0.0016,0.0048,0.0064,-0.0011,-0.016,-0.0331,-0.0432,-0.0432,0,0,0,0,0,0,0,0,0,0,0,0,0,0,0,0,0,0,0,0,0,0.0117,-0.0085,-0.0315,-0.0486,-0.0571,-0.0609,-0.0662,-0.0737,-0.0785,-0.0785,-0.0731,-0.063,-0.0523,-0.0454,-0.0427,-0.0406,-0.0352,-0.0256,-0.016,-0.0139,-0.0219,-0.0374,-0.0582,-0.0774,-0.0886,0,0,0,0,0,0,0,0,0,0,0,0,0,0,0,0,0,0,0,0,0,0,-0.0171,-0.0406,-0.0571,-0.0646,-0.0673,-0.0753,-0.0881,-0.0977,-0.0977,-0.0886,-0.0731,-0.0587,-0.0518,-0.0513,-0.0518,-0.0491,-0.0454,-0.0475,-0.0577,-0.0705,-0.0774,-0.0844,-0.0998,-0.1148,0,0,0,0,0,0,0,0,0,0,0,0,0,0,0,0,0,0,0,0,0,0,0,-0.0475,-0.0614,0,0,0,0,0,0,-0.1014,-0.0849,-0.0651,-0.0507,-0.0411,-0.0368,-0.0368,-0.0475,-0.0753,0,0,0,0,0,0,0,0,0,0,0,0,0,0,0,0,0,0,0,0,0,0,0,0,0,0,0,0,0,0,0,0,0,0,0,0,0,0,0,0,0,-0.0262,-0.0123,0,0,0,0,0,0,0,0,0,0,0,0,0,0,0,0,0,0,0,0,0,0,0,0,0,0,0,0,0,0,0,0,0,0,0,0,0,0,0,0,0,0,0,0,0,0,0,0,0,0,0,0,0,0,0,0,0,0,0,0,0,0,0,0,0,0,0,0,0,0,0,0,0,0,0,0,0,0,0,0,0,0,0,0,0,0,0,0,0,0,0,0,0,0,0,0,0,0,0,0,0,0,0,0,0,0,0,0,0,0,0,0,0,0,0,0,0,0,0,0,0,0,0,0,0,0,0,0,0,0,0,0,0,0,0,0,0,0,0,0,0,0,0,0,0,0,0,0,0,0,0,0,0,0,0,0,0,0,0,0,0,0,0,0,0,0,0,0,0,0,0,0,0,0,0,0,0,0,0,0,0,0,0,0,0,0,0,0,0,0,0,0,0,0,0,0,0,0,0,0,0,0,0,0,0,0,0,0,0,0,0,0,0,0,0,0,0,0,0,0,0,0,0,0,0,0,0,0,0,0,0,0,0,0,0,0,0,0,0,0,0,0,0,0,0,0,0,0,0,0,0,0,0,0,0,0,0,0,0,0,0,0,0,0,0,0,0,0,0,0,0,0,0,0,0,0,0,0,0,0,0,0,0,0,0,0,0,0,0,0,0,0,0,0,0,0,0,0,0,0,0,0,0,0,0,0,0,0,0,0,0,0,0,0,0,0,0,0,0,0,0,0,0,0,0,0,0,0,0,0,0,0,0,0,0,0,0,0,0,0,0,0,0,0,0,0,0,0,0,0,0,0,0,0,0,0,0,0,0,0,0,0,0,0,0,0,0,0,0,0,0,0,0,0,0,0,0,0,0,0,0,0,0,0,0,0,0,0,0,0,0,0,0,0,0,0,0,0,0,0,0,0,0,0,0,0,0,0,0,0,0,0,0,0,0,0,0,0,0,0,0,0,0,0,0,0,0,0,0,0,0,0,0,0,0,0,0,0,0,0,0,0,0,0,0,0,0,0,0,0,0,0,0,0,0,0,0,0,0,0,0,0,0,0,0,0,0,0,0,0,0,0,0,0,0,0,0,0,0,0,0,0,0,0,0,0,0,0,0,0,0,0,0,0,0,0,0,0,0,0,0,0,0,0,0,0,0,0,0,0,0,0,0,0,0,0,0,0,0,0,0,0,0,0,0,0,0,0,0,0,0,0,0,0,0,0,0,0,0,0,0,0,0,0,0,0,0,0,0,0,0,0,0,0,0,0,0,0,0,0,0]}],[{"header":{"parameterUnit":"kt","parameterCategory":2,"dx":1,"dy":1,"la1":29.46422004699707,"la2":30.564109802246094,"lo1":-89.4342041015625,"lo2":-87.934326171875,"nx":46,"ny":34,"refTime":"2022-09-27T00:00:00:Z","depth":"15","parameterNumber":3,"parameterNumberName":"V-component_of_CURRENTS"},"data":[0,0,0,0,0,0,0,0,0,0,0,0,0,0,0,0,0,-0.1639,-0.1644,-0.158,-0.1335,-0.0881,-0.0198,0.0497,0.0715,0.0299,-0.0475,-0.0347,0.0155,0.0705,0.1089,0.1383,0.1644,0.1826,0.1933,0.1975,0.1933,0.1901,0.2077,0.2269,0.2339,0.229,0.221,0.2173,0.229,0.228,0,0,0,0,0,0,0,0,0,0,0,0,0,0,0,0,0,0,-0.1431,-0.1335,-0.1281,-0.1046,-0.063,0.0016,0.0673,0.078,0.0224,-0.0251,-0.0187,0.0288,0.0737,0.0945,0.1105,0.1228,0.1335,0.1361,0.1303,0.1249,0.1447,0.1799,0.2178,0.2499,0.2718,0.2814,0.2803,0.2461,0,0,0,0,0,0,0,0,0,0,0,0,0,0,0,0,0,0,0,-0.1201,-0.1068,-0.0956,-0.0763,-0.0352,0.0256,0.0801,0.0865,0.0432,0.0117,0.0368,0.0908,0.1078,0.1084,0.1041,0.1009,0.0934,0.0854,0.094,0.1046,0.1367,0.1671,0.2061,0.2264,0.2371,0.2125,0.1783,0,0,0,0,0,0,0,0,0,0,0,0,0,0,0,0,0,0,0,0,-0.0972,-0.0828,-0.0699,-0.0497,-0.0091,0.0486,0.0982,0.1078,0.0854,0.0774,0.1137,0.1324,0.1271,0.1062,0.0918,0.078,0.0678,0.0801,0.0753,0.1041,0.1191,0.1516,0.157,0.1596,0.1361,0.1143,0,0,0,0,0,0,0,0,0,0,0,0,0,0,0,0,0,0,0,0,0,-0.0753,-0.0614,-0.0491,-0.0251,0.0187,0.0806,0.1324,0.1479,0.1329,0.1388,0.1431,0.1313,0.1143,0.1062,0.0998,0.0908,0.0849,0.0731,0.0812,0.0865,0.102,0.1062,0.1036,0.0956,0.0801,0,0,0,0,0,0,0,0,0,0,0,0,0,0,0,0,0,0,0,0,0,-0.0705,-0.0555,-0.0438,-0.0283,0.0,0.0545,0.1244,0.1676,0.1687,0.1602,0.1436,0.1153,0.1228,0.1313,0.1324,0.1207,0.1046,0.087,0.0774,0.0758,0.078,0.0838,0.0822,0.078,0.0705,0,0,0,0,0,0,0,0,0,0,0,0,0,0,0,0,0,0,0,0,0,-0.0694,-0.0529,-0.0395,-0.0256,-0.0064,0.0336,0.1004,0.1591,0.1773,0.1709,0.1522,0.1052,0.1175,0.1351,0.1351,0.1207,0.0972,0.0737,0.0678,0.0609,0.0619,0.0678,0.0689,0.0662,0.0662,0,0,0,0,0,0,0,0,0,0,0,0,0,0,0,0,0,0,0,0,0,0,-0.0539,-0.0395,-0.023,-0.0053,0.0256,0.079,0.1377,0.1682,0.1719,0.1618,0.126,0.1169,0.1335,0.1287,0.1111,0.071,0.0459,0.0486,0.0427,0.0432,0.0486,0.0513,0.0502,0.0539,0,0,0,0,0,0,0,0,0,0,0,0,0,0,0,0,0,0,0,0,0,0,-0.0582,-0.0438,-0.0251,-0.0032,0.0251,0.0678,0.1169,0.1516,0.1644,0.1639,0.1522,0.1367,0.1351,0.118,0.0881,0.0438,0.0219,0.0331,0.0315,0.0304,0.0331,0.0336,0.0315,0.0358,0,0,0,0,0,0,0,0,0,0,0,0,0,0,0,0,0,0,0,0,0,0,-0.0625,-0.0491,-0.031,-0.0059,0.023,0.0603,0.1014,0.1335,0.15,0.1554,0.1564,0.1527,0.1383,0.11,0.0699,0.032,0.0203,0.0304,0.0304,0.0272,0.0235,0.0182,0.0149,0.0203,0,0,0,0,0,0,0,0,0,0,0,0,0,0,0,0,0,0,0,0,0,0,-0.0635,-0.0529,-0.0368,-0.0112,0.0182,0.0507,0.087,0.1164,0.1335,0.1399,0.1431,0.1436,0.1319,0.1025,0.0646,0.0368,0.032,0.0379,0.0374,0.0304,0.0182,0.0059,0.0016,0.0101,0,0,0,0,0,0,0,0,0,0,0,0,0,0,0,0,0,0,0,0,0,0,-0.0609,-0.0534,-0.0406,-0.0171,0.0112,0.0411,0.0731,0.0998,0.1159,0.1228,0.126,0.126,0.1164,0.0924,0.063,0.0432,0.0406,0.0454,0.0448,0.0342,0.0155,-0.0021,-0.0075,0.0037,0,0,0,0,0,0,0,0,0,0,0,0,0,0,0,0,0,0,0,0,0,0,-0.0577,-0.0518,-0.0411,-0.0208,0.0053,0.0326,0.0603,0.0844,0.0988,0.1057,0.1089,0.1089,0.1014,0.0844,0.063,0.0481,0.0448,0.0481,0.0464,0.0342,0.0149,-0.0032,-0.0085,0.0032,0,0,0,0,0,0,0,0,0,0,0,0,0,0,0,0,0,0,0,0,0,0,-0.055,-0.0491,-0.039,-0.0208,0.0027,0.0262,0.0486,0.0683,0.0822,0.0902,0.095,0.0956,0.0897,0.0774,0.0635,0.0534,0.0481,0.0459,0.0395,0.0267,0.0123,0.0005,-0.0016,0.0107,0,0,0,0,0,0,0,0,0,0,0,0,0,0,0,0,0,0,0,0,0,0,-0.0513,-0.0438,-0.0331,-0.0166,0.0032,0.0224,0.039,0.0539,0.0667,0.0769,0.0849,0.0876,0.0838,0.0753,0.0673,0.0609,0.0529,0.0422,0.0288,0.0155,0.0064,0.0037,0.008,0.023,0,0,0,0,0,0,0,0,0,0,0,0,0,0,0,0,0,0,0,0,0,0,-0.0454,-0.0342,-0.023,-0.0085,0.0069,0.0214,0.032,0.0427,0.0523,0.0651,0.078,0.0854,0.0849,0.0812,0.0774,0.0721,0.0598,0.0427,0.0235,0.0069,-0.0011,0.0021,0.0128,0.0315,0,0,0,0,0,0,0,0,0,0,0,0,0,0,0,0,0,0,0,0,0,0,-0.0374,-0.0219,-0.0107,0.0005,0.0128,0.023,0.0294,0.0358,0.0422,0.0555,0.0737,0.0886,0.095,0.095,0.0918,0.0838,0.0678,0.0464,0.0256,0.0085,-0.0005,0.0027,0.0133,0.0342,0,0,0,0,0,0,0,0,0,0,0,0,0,0,0,0,0,0,0,0,0,-0.0464,-0.0251,-0.0085,0.0011,0.0091,0.0192,0.0288,0.0331,0.0368,0.0406,0.0529,0.0737,0.0956,0.1078,0.1089,0.102,0.0886,0.0683,0.0464,0.0299,0.0192,0.0139,0.0144,0.0182,0.0336,0,0,0,0,0,0,0,0,0,0,0,0,0,0,0,0,0,0,0,0,0,-0.0299,-0.0091,0.0064,0.0128,0.0171,0.0278,0.0384,0.04,0.039,0.0416,0.0534,0.0742,0.0982,0.1132,0.1127,0.0998,0.0806,0.0577,0.0406,0.0342,0.0336,0.0347,0.0368,0.032,0.0379,0,0,0,0,0,0,0,0,0,0,0,0,0,0,0,0,0,0,0,0,0,0,0.0112,0.0251,0.0272,0.0272,0.0368,0.0491,0.0481,0.04,0.0395,0.0443,0.0673,0.0924,0.1105,0.1089,0.0924,0.0726,0.0545,0.047,0.0491,0.0518,0.0464,0.0571,0.0491,0.0448,0,0,0,0,0,0,0,0,0,0,0,0,0,0,0,0,0,0,0,0,0,0,0,0.0427,0.0411,0,0,0,0,0,0,0.0256,0.0523,0.0833,0.1089,0.1121,0.1009,0.0897,0.0806,0.0774,0,0,0,0,0,0,0,0,0,0,0,0,0,0,0,0,0,0,0,0,0,0,0,0,0,0,0,0,0,0,0,0,0,0,0,0,0,0,0,0,0,0.1271,0.1207,0,0,0,0,0,0,0,0,0,0,0,0,0,0,0,0,0,0,0,0,0,0,0,0,0,0,0,0,0,0,0,0,0,0,0,0,0,0,0,0,0,0,0,0,0,0,0,0,0,0,0,0,0,0,0,0,0,0,0,0,0,0,0,0,0,0,0,0,0,0,0,0,0,0,0,0,0,0,0,0,0,0,0,0,0,0,0,0,0,0,0,0,0,0,0,0,0,0,0,0,0,0,0,0,0,0,0,0,0,0,0,0,0,0,0,0,0,0,0,0,0,0,0,0,0,0,0,0,0,0,0,0,0,0,0,0,0,0,0,0,0,0,0,0,0,0,0,0,0,0,0,0,0,0,0,0,0,0,0,0,0,0,0,0,0,0,0,0,0,0,0,0,0,0,0,0,0,0,0,0,0,0,0,0,0,0,0,0,0,0,0,0,0,0,0,0,0,0,0,0,0,0,0,0,0,0,0,0,0,0,0,0,0,0,0,0,0,0,0,0,0,0,0,0,0,0,0,0,0,0,0,0,0,0,0,0,0,0,0,0,0,0,0,0,0,0,0,0,0,0,0,0,0,0,0,0,0,0,0,0,0,0,0,0,0,0,0,0,0,0,0,0,0,0,0,0,0,0,0,0,0,0,0,0,0,0,0,0,0,0,0,0,0,0,0,0,0,0,0,0,0,0,0,0,0,0,0,0,0,0,0,0,0,0,0,0,0,0,0,0,0,0,0,0,0,0,0,0,0,0,0,0,0,0,0,0,0,0,0,0,0,0,0,0,0,0,0,0,0,0,0,0,0,0,0,0,0,0,0,0,0,0,0,0,0,0,0,0,0,0,0,0,0,0,0,0,0,0,0,0,0,0,0,0,0,0,0,0,0,0,0,0,0,0,0,0,0,0,0,0,0,0,0,0,0,0,0,0,0,0,0,0,0,0,0,0,0,0,0,0,0,0,0,0,0,0,0,0,0,0,0,0,0,0,0,0,0,0,0,0,0,0,0,0,0,0,0,0,0,0,0,0,0,0,0,0,0,0,0,0,0,0,0,0,0,0,0,0,0,0,0,0,0,0,0,0,0,0,0,0,0,0,0,0,0,0,0,0,0,0,0,0,0,0,0,0,0,0,0,0,0,0,0,0,0,0,0,0,0,0,0,0,0,0,0,0,0,0,0,0,0,0,0,0,0,0,0,0,0,0,0,0,0,0,0,0,0,0,0,0,0,0,0,0,0,0,0,0,0,0,0,0,0,0,0,0,0,0,0,0,0]}]],[[{"header":{"parameterUnit":"kt","parameterCategory":2,"dx":1,"dy":1,"la1":29.46422004699707,"la2":30.564109802246094,"lo1":-89.4342041015625,"lo2":-87.934326171875,"nx":46,"ny":34,"refTime":"2022-09-27T00:00:00:Z","depth":"20","parameterNumber":2,"parameterNumberName":"U-component_of_CURRENTS"},"data":[0,0,0,0,0,0,0,0,0,0,0,0,0,0,0,0,0,0,0,-0.1757,-0.1757,-0.1623,-0.1175,-0.0667,-0.0384,-0.0534,-0.1078,-0.1554,-0.1628,-0.1506,-0.1458,-0.1447,-0.1383,-0.1239,-0.1036,-0.0822,-0.0609,-0.032,0.0133,0.0737,0.1356,0.1837,0.2072,0.2029,0.1842,0.181,0,0,0,0,0,0,0,0,0,0,0,0,0,0,0,0,0,0,0,0,0,-0.1751,-0.165,-0.1201,-0.0667,-0.0374,-0.0513,-0.0934,-0.1276,-0.1383,-0.1436,-0.1527,-0.1618,-0.1628,-0.165,-0.1692,-0.1559,-0.1324,-0.1127,-0.0886,-0.0598,-0.031,-0.0096,0.0101,0.0422,0.0929,0,0,0,0,0,0,0,0,0,0,0,0,0,0,0,0,0,0,0,0,0,0,-0.1692,-0.1522,-0.1089,-0.0571,-0.0331,-0.0497,-0.086,-0.1159,-0.1404,-0.1682,-0.1986,-0.2221,-0.2349,-0.2424,-0.2467,-0.2499,-0.2541,-0.2531,-0.2376,-0.2088,-0.1687,-0.1153,-0.0486,0.0267,0,0,0,0,0,0,0,0,0,0,0,0,0,0,0,0,0,0,0,0,0,0,0,0,-0.1313,-0.0908,-0.0481,-0.0368,-0.0657,-0.1196,-0.1586,-0.1842,-0.2168,-0.2451,-0.2584,-0.2605,-0.2605,-0.2515,-0.2403,-0.2306,-0.212,-0.1757,-0.1255,-0.0635,0.0021,0.0561,0,0,0,0,0,0,0,0,0,0,0,0,0,0,0,0,0,0,0,0,0,0,0,0,-0.1287,-0.1078,-0.0699,-0.0406,-0.039,-0.063,-0.0988,-0.1185,-0.1148,-0.1068,-0.1052,-0.1148,-0.1319,-0.1447,-0.1452,-0.1319,-0.1073,-0.0715,-0.0299,0.0117,0.047,0.0721,0,0,0,0,0,0,0,0,0,0,0,0,0,0,0,0,0,0,0,0,0,0,0,0,0,-0.1009,-0.0801,-0.0448,-0.0224,-0.0203,-0.0278,-0.0363,-0.0363,-0.0304,-0.0336,-0.0427,-0.0443,-0.0368,-0.0262,-0.0117,0.0085,0.0326,0.0582,0.0844,0.11,0.1319,0,0,0,0,0,0,0,0,0,0,0,0,0,0,0,0,0,0,0,0,0,0,0,0,0,-0.0828,-0.0747,-0.0507,-0.0219,-0.0032,0.0021,-0.0027,-0.0176,-0.0251,-0.023,-0.0235,-0.0256,-0.016,0.0128,0.0395,0.0587,0.078,0.0988,0.1201,0.141,0.1596,0,0,0,0,0,0,0,0,0,0,0,0,0,0,0,0,0,0,0,0,0,0,0,0,0,-0.0577,-0.0577,-0.0481,-0.0262,-0.0016,0.0139,0.0182,0.0,-0.0246,-0.0331,-0.0315,-0.0219,-0.0059,0.0224,0.0507,0.0678,0.0817,0.0977,0.1159,0.1351,0.1532,0,0,0,0,0,0,0,0,0,0,0,0,0,0,0,0,0,0,0,0,0,0,0,0,0,-0.0352,-0.0363,-0.0326,-0.0198,0.0,0.0192,0.032,0.031,0.0075,-0.0144,-0.0149,0.0,0.0214,0.0443,0.0662,0.0774,0.0838,0.0924,0.1068,0.1233,0.1388,0,0,0,0,0,0,0,0,0,0,0,0,0,0,0,0,0,0,0,0,0,0,0,0,0,-0.0214,-0.0203,-0.0149,-0.0053,0.0085,0.0251,0.0411,0.0534,0.0593,0.0593,0.0603,0.0699,0.0822,0.0908,0.0934,0.0918,0.0902,0.0945,0.1057,0.1196,0.1303,0,0,0,0,0,0,0,0,0,0,0,0,0,0,0,0,0,0,0,0,0,0,0,0,-0.0219,-0.0144,-0.0112,-0.0048,0.0053,0.0182,0.0326,0.0481,0.0625,0.078,0.094,0.1095,0.1201,0.1223,0.1169,0.1095,0.102,0.0972,0.0993,0.1078,0.1185,0.126,0,0,0,0,0,0,0,0,0,0,0,0,0,0,0,0,0,0,0,0,0,0,0,0,-0.0139,-0.0091,-0.0053,-0.0005,0.0091,0.0214,0.0347,0.0491,0.0646,0.0817,0.0988,0.1143,0.1233,0.1255,0.1223,0.1169,0.1116,0.1084,0.11,0.1148,0.1201,0.1223,0,0,0,0,0,0,0,0,0,0,0,0,0,0,0,0,0,0,0,0,0,0,0,0,-0.0059,-0.0032,-0.0011,0.0021,0.0091,0.0208,0.0342,0.0481,0.0625,0.078,0.0945,0.1089,0.118,0.1201,0.1169,0.1132,0.1137,0.118,0.1239,0.1271,0.1249,0.1201,0,0,0,0,0,0,0,0,0,0,0,0,0,0,0,0,0,0,0,0,0,0,0,0,0.0011,0.0021,0.0027,0.0048,0.0101,0.0208,0.0342,0.0481,0.0603,0.0731,0.086,0.0977,0.1046,0.1041,0.0993,0.0977,0.1041,0.1169,0.1287,0.1324,0.1276,0.1175,0,0,0,0,0,0,0,0,0,0,0,0,0,0,0,0,0,0,0,0,0,0,0,0,0.0027,0.0011,-0.0005,0.0,0.0053,0.016,0.0294,0.0432,0.0555,0.0662,0.0763,0.0838,0.0865,0.0817,0.0747,0.0742,0.0822,0.0961,0.1095,0.1153,0.1121,0.1036,0,0,0,0,0,0,0,0,0,0,0,0,0,0,0,0,0,0,0,0,0,0,0,0,-0.0037,-0.0107,-0.016,-0.016,-0.0096,0.0011,0.0155,0.0315,0.0464,0.0582,0.0667,0.0699,0.0662,0.0571,0.0502,0.0481,0.0523,0.0598,0.0673,0.0731,0.0747,0.0726,0,0,0,0,0,0,0,0,0,0,0,0,0,0,0,0,0,0,0,0,0,0,0,0,-0.0171,-0.0267,-0.0315,-0.032,-0.0272,-0.0192,-0.0085,0.0069,0.0235,0.0379,0.0454,0.0443,0.0379,0.0315,0.0283,0.0283,0.0288,0.0267,0.023,0.0214,0.0224,0.0256,0,0,0,0,0,0,0,0,0,0,0,0,0,0,0,0,0,0,0,0,0,0,0,0,0,-0.0411,-0.0443,-0.0454,-0.0448,-0.0438,-0.0395,-0.0299,-0.0155,-0.0016,0.0059,0.0059,0.0037,0.0037,0.0069,0.0117,0.0128,0,0,0,0,0,0,0,0,0,0,0,0,0,0,0,0,0,0,0,0,0,0,0,0,0,0,0,0,0,0,0,0,0,0,0,0,0,0,-0.04,-0.032,-0.0304,0,0,0,0,0,0,0,0,0,0,0,0,0,0,0,0,0,0,0,0,0,0,0,0,0,0,0,0,0,0,0,0,0,0,0,0,0,0,0,0,0,0,0,0,0,0,0,0,0,0,0,0,0,0,0,0,0,0,0,0,0,0,0,0,0,0,0,0,0,0,0,0,0,0,0,0,0,0,0,0,0,0,0,0,0,0,0,0,0,0,0,0,0,0,0,0,0,0,0,0,0,0,0,0,0,0,0,0,0,0,0,0,0,0,0,0,0,0,0,0,0,0,0,0,0,0,0,0,0,0,0,0,0,0,0,0,0,0,0,0,0,0,0,0,0,0,0,0,0,0,0,0,0,0,0,0,0,0,0,0,0,0,0,0,0,0,0,0,0,0,0,0,0,0,0,0,0,0,0,0,0,0,0,0,0,0,0,0,0,0,0,0,0,0,0,0,0,0,0,0,0,0,0,0,0,0,0,0,0,0,0,0,0,0,0,0,0,0,0,0,0,0,0,0,0,0,0,0,0,0,0,0,0,0,0,0,0,0,0,0,0,0,0,0,0,0,0,0,0,0,0,0,0,0,0,0,0,0,0,0,0,0,0,0,0,0,0,0,0,0,0,0,0,0,0,0,0,0,0,0,0,0,0,0,0,0,0,0,0,0,0,0,0,0,0,0,0,0,0,0,0,0,0,0,0,0,0,0,0,0,0,0,0,0,0,0,0,0,0,0,0,0,0,0,0,0,0,0,0,0,0,0,0,0,0,0,0,0,0,0,0,0,0,0,0,0,0,0,0,0,0,0,0,0,0,0,0,0,0,0,0,0,0,0,0,0,0,0,0,0,0,0,0,0,0,0,0,0,0,0,0,0,0,0,0,0,0,0,0,0,0,0,0,0,0,0,0,0,0,0,0,0,0,0,0,0,0,0,0,0,0,0,0,0,0,0,0,0,0,0,0,0,0,0,0,0,0,0,0,0,0,0,0,0,0,0,0,0,0,0,0,0,0,0,0,0,0,0,0,0,0,0,0,0,0,0,0,0,0,0,0,0,0,0,0,0,0,0,0,0,0,0,0,0,0,0,0,0,0,0,0,0,0,0,0,0,0,0,0,0,0,0,0,0,0,0,0,0,0,0,0,0,0,0,0,0,0,0,0,0,0,0,0,0,0,0,0,0,0,0,0,0,0,0,0,0,0,0,0,0,0,0,0,0,0,0,0,0,0,0,0,0,0,0,0,0,0,0,0,0,0,0,0,0,0,0,0,0,0,0,0,0,0,0,0,0,0,0,0,0,0,0,0,0,0,0,0,0,0,0,0,0,0,0,0,0,0,0,0,0,0,0,0,0,0,0,0,0,0,0,0,0,0,0,0,0,0,0,0,0,0,0,0,0,0,0,0,0,0,0,0,0,0,0,0,0,0,0,0,0,0,0,0,0,0,0,0,0,0,0,0,0,0,0,0,0,0,0,0,0,0,0,0,0,0,0,0,0,0,0,0,0,0,0,0,0,0,0,0,0,0,0,0,0,0,0,0,0,0,0,0,0,0,0,0,0,0,0,0,0,0,0,0,0,0,0,0,0,0,0]}],[{"header":{"parameterUnit":"kt","parameterCategory":2,"dx":1,"dy":1,"la1":29.46422004699707,"la2":30.564109802246094,"lo1":-89.4342041015625,"lo2":-87.934326171875,"nx":46,"ny":34,"refTime":"2022-09-27T00:00:00:Z","depth":"20","parameterNumber":3,"parameterNumberName":"V-component_of_CURRENTS"},"data":[0,0,0,0,0,0,0,0,0,0,0,0,0,0,0,0,0,0,0,-0.1356,-0.1121,-0.0737,-0.0101,0.0598,0.0849,0.0486,-0.0267,-0.0214,0.0251,0.0806,0.1191,0.1484,0.173,0.1917,0.2013,0.2066,0.2018,0.1975,0.2178,0.2456,0.2589,0.252,0.2387,0.2344,0.2429,0.2477,0,0,0,0,0,0,0,0,0,0,0,0,0,0,0,0,0,0,0,0,0,-0.086,-0.0491,0.0123,0.0785,0.0924,0.0432,-0.0069,-0.0059,0.039,0.0838,0.1062,0.1212,0.1361,0.142,0.1452,0.1393,0.1319,0.1538,0.1901,0.229,0.2627,0.2872,0.2985,0.2979,0.2691,0,0,0,0,0,0,0,0,0,0,0,0,0,0,0,0,0,0,0,0,0,0,-0.0625,-0.0224,0.0363,0.0902,0.1004,0.0614,0.0272,0.0491,0.103,0.1212,0.1228,0.1228,0.1175,0.11,0.1041,0.1095,0.126,0.1532,0.1842,0.2226,0.2461,0.2552,0.2317,0.1938,0,0,0,0,0,0,0,0,0,0,0,0,0,0,0,0,0,0,0,0,0,0,0,0,0.0027,0.0587,0.1089,0.1212,0.1004,0.0918,0.1271,0.1479,0.1452,0.1313,0.1207,0.1062,0.0998,0.1095,0.1223,0.1335,0.1506,0.1767,0.1858,0.1821,0.158,0.1281,0,0,0,0,0,0,0,0,0,0,0,0,0,0,0,0,0,0,0,0,0,0,0,0,-0.016,0.0299,0.0908,0.1426,0.1596,0.1479,0.1527,0.158,0.1495,0.1367,0.1319,0.1244,0.1191,0.1132,0.1153,0.1105,0.1169,0.1249,0.1297,0.1228,0.1132,0.095,0,0,0,0,0,0,0,0,0,0,0,0,0,0,0,0,0,0,0,0,0,0,0,0,0,0.0101,0.0651,0.134,0.1773,0.1821,0.1746,0.1575,0.1313,0.1372,0.1452,0.1463,0.1356,0.1207,0.1046,0.0945,0.0924,0.0934,0.0982,0.0961,0.0913,0.0838,0,0,0,0,0,0,0,0,0,0,0,0,0,0,0,0,0,0,0,0,0,0,0,0,0,0.0021,0.0427,0.11,0.1692,0.189,0.1853,0.1666,0.1223,0.1319,0.1484,0.1474,0.1329,0.1089,0.086,0.0774,0.0699,0.071,0.0763,0.078,0.0758,0.0774,0,0,0,0,0,0,0,0,0,0,0,0,0,0,0,0,0,0,0,0,0,0,0,0,0,0.0037,0.0336,0.0876,0.1474,0.1794,0.1853,0.1767,0.1431,0.1324,0.1479,0.142,0.1239,0.0833,0.0582,0.0577,0.0513,0.0507,0.0561,0.0587,0.0577,0.0619,0,0,0,0,0,0,0,0,0,0,0,0,0,0,0,0,0,0,0,0,0,0,0,0,0,0.0059,0.0326,0.0747,0.1244,0.1607,0.1751,0.1762,0.166,0.1511,0.149,0.1303,0.0998,0.0561,0.0347,0.0427,0.0411,0.0395,0.0416,0.0416,0.0395,0.0438,0,0,0,0,0,0,0,0,0,0,0,0,0,0,0,0,0,0,0,0,0,0,0,0,0,0.0043,0.0315,0.0673,0.1073,0.1399,0.158,0.1639,0.1655,0.1634,0.149,0.1201,0.0796,0.0416,0.031,0.039,0.04,0.0374,0.0331,0.0278,0.0246,0.0299,0,0,0,0,0,0,0,0,0,0,0,0,0,0,0,0,0,0,0,0,0,0,0,0,-0.0288,-0.0016,0.0262,0.0587,0.0934,0.1223,0.1393,0.1463,0.15,0.1511,0.1393,0.1105,0.0726,0.0459,0.0406,0.0459,0.0464,0.0395,0.0272,0.0155,0.0112,0.0198,0,0,0,0,0,0,0,0,0,0,0,0,0,0,0,0,0,0,0,0,0,0,0,0,-0.0326,-0.0075,0.0192,0.0491,0.0806,0.1062,0.1212,0.1281,0.1319,0.1324,0.1228,0.0998,0.0715,0.0534,0.0502,0.0545,0.0534,0.0427,0.024,0.0069,0.0016,0.0123,0,0,0,0,0,0,0,0,0,0,0,0,0,0,0,0,0,0,0,0,0,0,0,0,-0.0331,-0.0107,0.0139,0.0406,0.0678,0.0908,0.1041,0.1105,0.1143,0.1148,0.1084,0.0924,0.0737,0.0603,0.0566,0.0577,0.0545,0.0416,0.023,0.0053,0.0,0.0117,0,0,0,0,0,0,0,0,0,0,0,0,0,0,0,0,0,0,0,0,0,0,0,0,-0.0299,-0.0091,0.0128,0.0352,0.0571,0.0758,0.0886,0.0966,0.1014,0.103,0.0988,0.0892,0.078,0.0678,0.0598,0.0545,0.047,0.0336,0.0198,0.0085,0.0064,0.0187,0,0,0,0,0,0,0,0,0,0,0,0,0,0,0,0,0,0,0,0,0,0,0,0,-0.0214,-0.0011,0.0176,0.0358,0.0513,0.0657,0.0774,0.087,0.0956,0.0993,0.0982,0.0929,0.086,0.0763,0.0641,0.0507,0.0368,0.0224,0.0133,0.0107,0.0155,0.0304,0,0,0,0,0,0,0,0,0,0,0,0,0,0,0,0,0,0,0,0,0,0,0,0,-0.0085,0.0101,0.0256,0.039,0.0497,0.0593,0.0683,0.0801,0.0929,0.102,0.1052,0.103,0.0977,0.087,0.0715,0.0529,0.0336,0.0171,0.0085,0.0107,0.0208,0.0395,0,0,0,0,0,0,0,0,0,0,0,0,0,0,0,0,0,0,0,0,0,0,0,0,0.0037,0.0187,0.032,0.0427,0.0497,0.0555,0.0603,0.0726,0.0908,0.1078,0.1164,0.1164,0.11,0.0988,0.0812,0.0603,0.0395,0.0224,0.0128,0.0155,0.0251,0.0448,0,0,0,0,0,0,0,0,0,0,0,0,0,0,0,0,0,0,0,0,0,0,0,0,0,0.0214,0.0336,0.0448,0.0502,0.0529,0.0561,0.0678,0.0876,0.1089,0.1207,0.1217,0.1137,0.1004,0.0796,0.0577,0.0411,0,0,0,0,0,0,0,0,0,0,0,0,0,0,0,0,0,0,0,0,0,0,0,0,0,0,0,0,0,0,0,0,0,0,0,0,0,0,0.1025,0.1164,0.1164,0,0,0,0,0,0,0,0,0,0,0,0,0,0,0,0,0,0,0,0,0,0,0,0,0,0,0,0,0,0,0,0,0,0,0,0,0,0,0,0,0,0,0,0,0,0,0,0,0,0,0,0,0,0,0,0,0,0,0,0,0,0,0,0,0,0,0,0,0,0,0,0,0,0,0,0,0,0,0,0,0,0,0,0,0,0,0,0,0,0,0,0,0,0,0,0,0,0,0,0,0,0,0,0,0,0,0,0,0,0,0,0,0,0,0,0,0,0,0,0,0,0,0,0,0,0,0,0,0,0,0,0,0,0,0,0,0,0,0,0,0,0,0,0,0,0,0,0,0,0,0,0,0,0,0,0,0,0,0,0,0,0,0,0,0,0,0,0,0,0,0,0,0,0,0,0,0,0,0,0,0,0,0,0,0,0,0,0,0,0,0,0,0,0,0,0,0,0,0,0,0,0,0,0,0,0,0,0,0,0,0,0,0,0,0,0,0,0,0,0,0,0,0,0,0,0,0,0,0,0,0,0,0,0,0,0,0,0,0,0,0,0,0,0,0,0,0,0,0,0,0,0,0,0,0,0,0,0,0,0,0,0,0,0,0,0,0,0,0,0,0,0,0,0,0,0,0,0,0,0,0,0,0,0,0,0,0,0,0,0,0,0,0,0,0,0,0,0,0,0,0,0,0,0,0,0,0,0,0,0,0,0,0,0,0,0,0,0,0,0,0,0,0,0,0,0,0,0,0,0,0,0,0,0,0,0,0,0,0,0,0,0,0,0,0,0,0,0,0,0,0,0,0,0,0,0,0,0,0,0,0,0,0,0,0,0,0,0,0,0,0,0,0,0,0,0,0,0,0,0,0,0,0,0,0,0,0,0,0,0,0,0,0,0,0,0,0,0,0,0,0,0,0,0,0,0,0,0,0,0,0,0,0,0,0,0,0,0,0,0,0,0,0,0,0,0,0,0,0,0,0,0,0,0,0,0,0,0,0,0,0,0,0,0,0,0,0,0,0,0,0,0,0,0,0,0,0,0,0,0,0,0,0,0,0,0,0,0,0,0,0,0,0,0,0,0,0,0,0,0,0,0,0,0,0,0,0,0,0,0,0,0,0,0,0,0,0,0,0,0,0,0,0,0,0,0,0,0,0,0,0,0,0,0,0,0,0,0,0,0,0,0,0,0,0,0,0,0,0,0,0,0,0,0,0,0,0,0,0,0,0,0,0,0,0,0,0,0,0,0,0,0,0,0,0,0,0,0,0,0,0,0,0,0,0,0,0,0,0,0,0,0,0,0,0,0,0,0,0,0,0,0,0,0,0,0,0,0,0,0,0,0,0,0,0,0,0,0,0,0,0,0,0,0,0,0,0,0,0,0,0,0,0,0,0,0,0,0,0,0,0,0,0,0,0,0,0,0,0,0,0,0,0,0,0,0,0,0,0,0,0,0,0,0,0,0,0,0,0,0,0,0,0,0,0,0,0,0,0,0,0,0,0,0,0,0,0,0,0,0,0,0,0,0,0,0,0,0,0,0,0,0,0,0,0,0,0,0,0,0,0,0,0,0,0,0,0,0,0,0]}]],[[{"header":{"parameterUnit":"kt","parameterCategory":2,"dx":1,"dy":1,"la1":29.46422004699707,"la2":30.564109802246094,"lo1":-89.4342041015625,"lo2":-87.934326171875,"nx":46,"ny":34,"refTime":"2022-09-27T00:00:00:Z","depth":"25","parameterNumber":2,"parameterNumberName":"U-component_of_CURRENTS"},"data":[0,0,0,0,0,0,0,0,0,0,0,0,0,0,0,0,0,0,0,0,0,-0.1436,-0.102,-0.0539,-0.0315,-0.0523,-0.1073,-0.1538,-0.1596,-0.1458,-0.1404,-0.1377,-0.1319,-0.1175,-0.0977,-0.0769,-0.0561,-0.0256,0.0278,0.0998,0.173,0.2296,0.252,0.2435,0.2264,0.2328,0,0,0,0,0,0,0,0,0,0,0,0,0,0,0,0,0,0,0,0,0,0,0,-0.1062,-0.0571,-0.032,-0.0491,-0.0924,-0.1244,-0.1335,-0.1335,-0.1308,-0.1137,-0.1233,-0.1543,-0.165,-0.15,-0.1265,-0.1078,-0.0844,-0.0555,-0.0262,-0.0032,0.0192,0.0566,0.1127,0,0,0,0,0,0,0,0,0,0,0,0,0,0,0,0,0,0,0,0,0,0,0,0,-0.0977,-0.0513,-0.0288,-0.047,-0.0844,-0.1121,-0.1319,-0.1527,-0.1751,-0.1981,-0.213,-0.2173,-0.2146,-0.2141,-0.2168,-0.2136,-0.197,-0.1644,-0.1223,-0.063,0.0,0.0497,0,0,0,0,0,0,0,0,0,0,0,0,0,0,0,0,0,0,0,0,0,0,0,0,0,-0.0822,-0.0438,-0.0342,-0.0651,-0.1169,-0.1522,-0.173,-0.1965,-0.2082,-0.2098,-0.1997,-0.1895,-0.1821,-0.1725,-0.166,-0.1527,-0.1265,-0.0833,-0.0267,0.0283,0.0689,0,0,0,0,0,0,0,0,0,0,0,0,0,0,0,0,0,0,0,0,0,0,0,0,0,0,-0.0646,-0.0379,-0.0368,-0.0598,-0.0902,-0.0998,-0.0849,-0.0689,-0.063,-0.0678,-0.0806,-0.087,-0.0833,-0.0785,-0.0673,-0.0406,-0.0064,0.0288,0.0577,0.079,0,0,0,0,0,0,0,0,0,0,0,0,0,0,0,0,0,0,0,0,0,0,0,0,0,0,-0.0737,-0.0411,-0.0198,-0.0171,-0.0224,-0.0262,-0.0208,-0.0123,-0.0166,-0.0267,-0.0256,-0.0155,-0.0043,0.0075,0.0235,0.0448,0.0683,0.0929,0.1175,0.1367,0,0,0,0,0,0,0,0,0,0,0,0,0,0,0,0,0,0,0,0,0,0,0,0,0,0,0,-0.0454,-0.0176,0.0005,0.0069,0.0064,-0.0037,-0.0117,-0.0117,-0.0128,-0.016,-0.0059,0.023,0.0475,0.0646,0.0833,0.1036,0.1244,0.1452,0.1628,0,0,0,0,0,0,0,0,0,0,0,0,0,0,0,0,0,0,0,0,0,0,0,0,0,0,0,-0.04,-0.0203,0.0037,0.0198,0.0267,0.0133,-0.0101,-0.0203,-0.0198,-0.0112,0.0053,0.0326,0.0577,0.0731,0.087,0.1025,0.1201,0.1393,0.1564,0,0,0,0,0,0,0,0,0,0,0,0,0,0,0,0,0,0,0,0,0,0,0,0,0,0,0,-0.0235,-0.0128,0.0059,0.0251,0.0384,0.0395,0.0182,-0.0027,-0.0037,0.0112,0.0331,0.055,0.0731,0.0822,0.0886,0.0977,0.1116,0.1281,0.1431,0,0,0,0,0,0,0,0,0,0,0,0,0,0,0,0,0,0,0,0,0,0,0,0,0,0,-0.0155,-0.0069,0.0027,0.016,0.0315,0.0464,0.0587,0.0657,0.0667,0.0694,0.0801,0.094,0.1009,0.0998,0.0966,0.095,0.0993,0.1105,0.1239,0.1345,0,0,0,0,0,0,0,0,0,0,0,0,0,0,0,0,0,0,0,0,0,0,0,0,0,0,-0.0069,0.0016,0.0133,0.0262,0.039,0.0534,0.0673,0.0817,0.0977,0.1132,0.1249,0.1281,0.1239,0.1159,0.1073,0.102,0.1041,0.1127,0.1228,0.1297,0,0,0,0,0,0,0,0,0,0,0,0,0,0,0,0,0,0,0,0,0,0,0,0,0,0,0,0.0053,0.0155,0.0283,0.0411,0.055,0.0694,0.0854,0.1025,0.1185,0.1292,0.1329,0.1303,0.1239,0.1164,0.1121,0.1137,0.1185,0.1233,0.1255,0,0,0,0,0,0,0,0,0,0,0,0,0,0,0,0,0,0,0,0,0,0,0,0,0,0,0,0.0075,0.0149,0.0267,0.04,0.0534,0.0678,0.0828,0.0988,0.1143,0.126,0.1303,0.126,0.1201,0.1175,0.1212,0.1265,0.1287,0.1271,0.1233,0,0,0,0,0,0,0,0,0,0,0,0,0,0,0,0,0,0,0,0,0,0,0,0,0,0,0,0.0096,0.0155,0.0262,0.0395,0.0534,0.0662,0.079,0.0924,0.1062,0.1164,0.1169,0.1089,0.103,0.1073,0.1191,0.1297,0.1329,0.1281,0.1196,0,0,0,0,0,0,0,0,0,0,0,0,0,0,0,0,0,0,0,0,0,0,0,0,0,0,0,0.0043,0.0107,0.0219,0.0358,0.0502,0.063,0.0747,0.087,0.0982,0.1014,0.094,0.0822,0.078,0.0849,0.0982,0.1105,0.1159,0.1137,0.1062,0,0,0,0,0,0,0,0,0,0,0,0,0,0,0,0,0,0,0,0,0,0,0,0,0,0,0,-0.0128,-0.0048,0.008,0.023,0.0395,0.055,0.0683,0.0785,0.0822,0.0769,0.0657,0.055,0.0518,0.055,0,0,0,0,0,0,0,0,0,0,0,0,0,0,0,0,0,0,0,0,0,0,0,0,0,0,0,0,0,0,0,0,0,0,-0.0149,-0.0037,0.0123,0.0299,0.0443,0.0518,0.0502,0,0,0,0,0,0,0,0,0,0,0,0,0,0,0,0,0,0,0,0,0,0,0,0,0,0,0,0,0,0,0,0,0,0,0,0,0,0,0,0,0,0,0,0,0,0,0,0,0,0,0,0,0,0,0,0,0,0,0,0,0,0,0,0,0,0,0,0,0,0,0,0,0,0,0,0,0,0,0,0,0,0,0,0,0,0,0,0,0,0,0,0,0,0,0,0,0,0,0,0,0,0,0,0,0,0,0,0,0,0,0,0,0,0,0,0,0,0,0,0,0,0,0,0,0,0,0,0,0,0,0,0,0,0,0,0,0,0,0,0,0,0,0,0,0,0,0,0,0,0,0,0,0,0,0,0,0,0,0,0,0,0,0,0,0,0,0,0,0,0,0,0,0,0,0,0,0,0,0,0,0,0,0,0,0,0,0,0,0,0,0,0,0,0,0,0,0,0,0,0,0,0,0,0,0,0,0,0,0,0,0,0,0,0,0,0,0,0,0,0,0,0,0,0,0,0,0,0,0,0,0,0,0,0,0,0,0,0,0,0,0,0,0,0,0,0,0,0,0,0,0,0,0,0,0,0,0,0,0,0,0,0,0,0,0,0,0,0,0,0,0,0,0,0,0,0,0,0,0,0,0,0,0,0,0,0,0,0,0,0,0,0,0,0,0,0,0,0,0,0,0,0,0,0,0,0,0,0,0,0,0,0,0,0,0,0,0,0,0,0,0,0,0,0,0,0,0,0,0,0,0,0,0,0,0,0,0,0,0,0,0,0,0,0,0,0,0,0,0,0,0,0,0,0,0,0,0,0,0,0,0,0,0,0,0,0,0,0,0,0,0,0,0,0,0,0,0,0,0,0,0,0,0,0,0,0,0,0,0,0,0,0,0,0,0,0,0,0,0,0,0,0,0,0,0,0,0,0,0,0,0,0,0,0,0,0,0,0,0,0,0,0,0,0,0,0,0,0,0,0,0,0,0,0,0,0,0,0,0,0,0,0,0,0,0,0,0,0,0,0,0,0,0,0,0,0,0,0,0,0,0,0,0,0,0,0,0,0,0,0,0,0,0,0,0,0,0,0,0,0,0,0,0,0,0,0,0,0,0,0,0,0,0,0,0,0,0,0,0,0,0,0,0,0,0,0,0,0,0,0,0,0,0,0,0,0,0,0,0,0,0,0,0,0,0,0,0,0,0,0,0,0,0,0,0,0,0,0,0,0,0,0,0,0,0,0,0,0,0,0,0,0,0,0,0,0,0,0,0,0,0,0,0,0,0,0,0,0,0,0,0,0,0,0,0,0,0,0,0,0,0,0,0,0,0,0,0,0,0,0,0,0,0,0,0,0,0,0,0,0,0,0,0,0,0,0,0,0,0,0,0,0,0,0,0,0,0,0,0,0,0,0,0,0,0,0,0,0,0,0,0,0,0,0,0,0,0,0,0,0,0,0,0,0,0,0,0,0,0,0,0,0,0,0,0,0,0,0,0,0,0,0,0,0,0,0,0,0,0,0,0,0,0,0,0,0,0,0,0,0,0,0,0,0,0,0,0,0,0,0,0,0,0,0,0,0,0,0,0,0,0,0,0,0,0,0,0,0,0,0,0,0,0,0,0,0,0,0,0,0,0,0,0,0,0,0,0,0,0,0,0,0,0,0,0,0,0,0,0,0,0,0,0,0,0,0,0,0,0,0,0,0,0,0,0,0,0,0,0,0,0,0,0,0,0,0,0,0,0,0,0,0,0,0,0,0,0,0,0,0,0,0,0,0,0,0,0,0,0,0,0,0]}],[{"header":{"parameterUnit":"kt","parameterCategory":2,"dx":1,"dy":1,"la1":29.46422004699707,"la2":30.564109802246094,"lo1":-89.4342041015625,"lo2":-87.934326171875,"nx":46,"ny":34,"refTime":"2022-09-27T00:00:00:Z","depth":"25","parameterNumber":3,"parameterNumberName":"V-component_of_CURRENTS"},"data":[0,0,0,0,0,0,0,0,0,0,0,0,0,0,0,0,0,0,0,0,0,-0.0625,-0.0037,0.0673,0.0977,0.0673,-0.0027,-0.0101,0.032,0.0881,0.1271,0.157,0.1805,0.2018,0.2104,0.2141,0.2088,0.2045,0.2339,0.2696,0.2947,0.2963,0.2792,0.2664,0.2712,0.2792,0,0,0,0,0,0,0,0,0,0,0,0,0,0,0,0,0,0,0,0,0,0,0,0.0198,0.0881,0.1078,0.0705,0.0128,0.0048,0.047,0.0934,0.1196,0.1361,0.1564,0.1516,0.1527,0.149,0.1377,0.1607,0.197,0.2371,0.2723,0.299,0.3123,0.3118,0.2936,0,0,0,0,0,0,0,0,0,0,0,0,0,0,0,0,0,0,0,0,0,0,0,0,0.0438,0.0993,0.1148,0.0828,0.0427,0.0598,0.1148,0.1383,0.1447,0.1506,0.1377,0.1297,0.1329,0.126,0.1516,0.1703,0.2104,0.2429,0.2728,0.2766,0.2557,0.213,0,0,0,0,0,0,0,0,0,0,0,0,0,0,0,0,0,0,0,0,0,0,0,0,0,0.0667,0.118,0.134,0.1148,0.1046,0.1388,0.1607,0.1628,0.1618,0.1543,0.1404,0.1554,0.1431,0.1815,0.1671,0.205,0.2082,0.2285,0.2088,0.1869,0.1447,0,0,0,0,0,0,0,0,0,0,0,0,0,0,0,0,0,0,0,0,0,0,0,0,0,0,0.0977,0.1506,0.1692,0.1612,0.1644,0.1714,0.1676,0.1618,0.1607,0.1543,0.1607,0.1458,0.1692,0.1452,0.1628,0.1548,0.1623,0.1463,0.1335,0.1105,0,0,0,0,0,0,0,0,0,0,0,0,0,0,0,0,0,0,0,0,0,0,0,0,0,0,0.0694,0.1404,0.1837,0.1927,0.1869,0.1698,0.1479,0.1506,0.1602,0.1612,0.1522,0.1383,0.126,0.1137,0.1105,0.11,0.1137,0.1095,0.1041,0.0966,0,0,0,0,0,0,0,0,0,0,0,0,0,0,0,0,0,0,0,0,0,0,0,0,0,0,0,0.1159,0.1762,0.1981,0.197,0.1789,0.1404,0.1463,0.1612,0.1596,0.1447,0.1201,0.0982,0.0854,0.0774,0.078,0.0833,0.0854,0.0838,0.0865,0,0,0,0,0,0,0,0,0,0,0,0,0,0,0,0,0,0,0,0,0,0,0,0,0,0,0,0.0924,0.1543,0.1874,0.1959,0.1895,0.1607,0.1484,0.1618,0.1548,0.1361,0.0956,0.0715,0.0651,0.0582,0.0566,0.0614,0.0641,0.0635,0.0683,0,0,0,0,0,0,0,0,0,0,0,0,0,0,0,0,0,0,0,0,0,0,0,0,0,0,0,0.0785,0.1287,0.1666,0.1826,0.1858,0.1783,0.165,0.1623,0.1426,0.1116,0.0683,0.0491,0.0513,0.0497,0.0475,0.0491,0.0486,0.0464,0.0502,0,0,0,0,0,0,0,0,0,0,0,0,0,0,0,0,0,0,0,0,0,0,0,0,0,0,0.0352,0.071,0.11,0.1436,0.1623,0.1698,0.1725,0.1719,0.1586,0.1292,0.0886,0.0513,0.0411,0.0464,0.0486,0.0459,0.0422,0.0368,0.0331,0.0379,0,0,0,0,0,0,0,0,0,0,0,0,0,0,0,0,0,0,0,0,0,0,0,0,0,0,0.031,0.0641,0.0966,0.1249,0.1426,0.1506,0.1543,0.1559,0.1452,0.1164,0.079,0.0529,0.0486,0.0529,0.0539,0.047,0.0358,0.024,0.0203,0.0283,0,0,0,0,0,0,0,0,0,0,0,0,0,0,0,0,0,0,0,0,0,0,0,0,0,0,0,0.0555,0.0854,0.1095,0.1239,0.1313,0.1351,0.1361,0.1276,0.1052,0.0785,0.0614,0.0593,0.0625,0.0609,0.0497,0.032,0.0155,0.0101,0.0208,0,0,0,0,0,0,0,0,0,0,0,0,0,0,0,0,0,0,0,0,0,0,0,0,0,0,0,0.0464,0.0731,0.0945,0.1073,0.1137,0.1175,0.1191,0.1132,0.0988,0.0822,0.071,0.0667,0.0657,0.0614,0.0486,0.0299,0.0139,0.0085,0.0198,0,0,0,0,0,0,0,0,0,0,0,0,0,0,0,0,0,0,0,0,0,0,0,0,0,0,0,0.0411,0.063,0.0812,0.0929,0.1004,0.1052,0.1073,0.1046,0.0982,0.0902,0.0806,0.0705,0.0619,0.0529,0.0395,0.0262,0.0155,0.0139,0.0262,0,0,0,0,0,0,0,0,0,0,0,0,0,0,0,0,0,0,0,0,0,0,0,0,0,0,0,0.0427,0.0593,0.0737,0.0844,0.094,0.102,0.1068,0.1073,0.1057,0.0998,0.0886,0.0731,0.0582,0.0438,0.0294,0.0198,0.0166,0.0208,0.0358,0,0,0,0,0,0,0,0,0,0,0,0,0,0,0,0,0,0,0,0,0,0,0,0,0,0,0,0.0464,0.0582,0.0694,0.0785,0.0892,0.1014,0.1105,0.1143,0.1132,0.1073,0.0956,0.079,0.0598,0.04,0,0,0,0,0,0,0,0,0,0,0,0,0,0,0,0,0,0,0,0,0,0,0,0,0,0,0,0,0,0,0,0,0,0,0.0619,0.0673,0.079,0.0961,0.1116,0.1191,0.1191,0,0,0,0,0,0,0,0,0,0,0,0,0,0,0,0,0,0,0,0,0,0,0,0,0,0,0,0,0,0,0,0,0,0,0,0,0,0,0,0,0,0,0,0,0,0,0,0,0,0,0,0,0,0,0,0,0,0,0,0,0,0,0,0,0,0,0,0,0,0,0,0,0,0,0,0,0,0,0,0,0,0,0,0,0,0,0,0,0,0,0,0,0,0,0,0,0,0,0,0,0,0,0,0,0,0,0,0,0,0,0,0,0,0,0,0,0,0,0,0,0,0,0,0,0,0,0,0,0,0,0,0,0,0,0,0,0,0,0,0,0,0,0,0,0,0,0,0,0,0,0,0,0,0,0,0,0,0,0,0,0,0,0,0,0,0,0,0,0,0,0,0,0,0,0,0,0,0,0,0,0,0,0,0,0,0,0,0,0,0,0,0,0,0,0,0,0,0,0,0,0,0,0,0,0,0,0,0,0,0,0,0,0,0,0,0,0,0,0,0,0,0,0,0,0,0,0,0,0,0,0,0,0,0,0,0,0,0,0,0,0,0,0,0,0,0,0,0,0,0,0,0,0,0,0,0,0,0,0,0,0,0,0,0,0,0,0,0,0,0,0,0,0,0,0,0,0,0,0,0,0,0,0,0,0,0,0,0,0,0,0,0,0,0,0,0,0,0,0,0,0,0,0,0,0,0,0,0,0,0,0,0,0,0,0,0,0,0,0,0,0,0,0,0,0,0,0,0,0,0,0,0,0,0,0,0,0,0,0,0,0,0,0,0,0,0,0,0,0,0,0,0,0,0,0,0,0,0,0,0,0,0,0,0,0,0,0,0,0,0,0,0,0,0,0,0,0,0,0,0,0,0,0,0,0,0,0,0,0,0,0,0,0,0,0,0,0,0,0,0,0,0,0,0,0,0,0,0,0,0,0,0,0,0,0,0,0,0,0,0,0,0,0,0,0,0,0,0,0,0,0,0,0,0,0,0,0,0,0,0,0,0,0,0,0,0,0,0,0,0,0,0,0,0,0,0,0,0,0,0,0,0,0,0,0,0,0,0,0,0,0,0,0,0,0,0,0,0,0,0,0,0,0,0,0,0,0,0,0,0,0,0,0,0,0,0,0,0,0,0,0,0,0,0,0,0,0,0,0,0,0,0,0,0,0,0,0,0,0,0,0,0,0,0,0,0,0,0,0,0,0,0,0,0,0,0,0,0,0,0,0,0,0,0,0,0,0,0,0,0,0,0,0,0,0,0,0,0,0,0,0,0,0,0,0,0,0,0,0,0,0,0,0,0,0,0,0,0,0,0,0,0,0,0,0,0,0,0,0,0,0,0,0,0,0,0,0,0,0,0,0,0,0,0,0,0,0,0,0,0,0,0,0,0,0,0,0,0,0,0,0,0,0,0,0,0,0,0,0,0,0,0,0,0,0,0,0,0,0,0,0,0,0,0,0,0,0,0,0,0,0,0,0,0,0,0,0,0,0,0,0,0,0,0,0,0,0,0,0,0,0,0,0,0,0,0,0,0,0,0,0,0,0,0,0,0,0,0,0,0,0,0,0,0,0,0,0,0,0,0,0,0,0,0,0,0,0,0,0,0,0,0,0,0,0,0,0,0,0,0,0,0,0,0,0,0,0,0,0,0,0,0,0,0,0,0,0,0,0,0,0,0,0,0,0,0,0,0,0,0,0,0,0,0,0,0,0,0,0,0,0,0,0,0,0,0,0,0,0,0,0,0,0,0,0,0,0,0,0,0,0,0,0,0,0,0,0,0,0,0,0,0]}]]]